Wetterdaten: aktuell Mittwoch, 18.09.2019 19:52
Datum Zeit Temp. 2m Temp. 5cm Feuchte A. Luftdruck Regen Wind Richtung Richtung ET UV Solar Taupunkt Windchill Windben Empfang
18.09.2019 19:52 10,0 C 7,2 C 56 % 1024,4 hPa 0,0 l/m 3,2 km/h (1 Bft) W-NW 292 0,000 mm 0,0 UV-I 0 W/m 1,6 C 10,0 C 4,8 km/h (1 Bft) 100,00 %
18.09.2019 19:51 10,0 C 7,2 C 56 % 1024,3 hPa 0,0 l/m 1,6 km/h (1 Bft) W-NW 292 0,000 mm 0,0 UV-I 0 W/m 1,6 C 10,0 C 4,8 km/h (1 Bft) 100,00 %
18.09.2019 19:50 10,1 C 7,2 C 56 % 1024,3 hPa 0,0 l/m 1,6 km/h (1 Bft) W-NW 292 0,000 mm 0,0 UV-I 0 W/m 1,7 C 10,1 C 4,8 km/h (1 Bft) 100,00 %
18.09.2019 19:49 10,1 C 7,2 C 55 % 1024,3 hPa 0,0 l/m 3,2 km/h (1 Bft) W-NW 292 0,000 mm 0,0 UV-I 0 W/m 1,5 C 10,1 C 4,8 km/h (1 Bft) 91,30 %
18.09.2019 19:48 10,1 C 7,2 C 55 % 1024,3 hPa 0,0 l/m 1,6 km/h (1 Bft) W-NW 292 0,000 mm 0,0 UV-I 0 W/m 1,5 C 10,1 C 3,2 km/h (1 Bft) 100,00 %
18.09.2019 19:47 10,1 C 7,2 C 55 % 1024,3 hPa 0,0 l/m 3,2 km/h (1 Bft) W-NW 292 0,000 mm 0,0 UV-I 0 W/m 1,5 C 10,1 C 4,8 km/h (1 Bft) 100,00 %
18.09.2019 19:46 10,2 C 7,2 C 54 % 1024,2 hPa 0,0 l/m 1,6 km/h (1 Bft) W-NW 292 0,000 mm 0,0 UV-I 0 W/m 1,3 C 10,2 C 3,2 km/h (1 Bft) 95,65 %
18.09.2019 19:45 10,2 C 7,2 C 54 % 1024,2 hPa 0,0 l/m 3,2 km/h (1 Bft) W-NW 292 0,000 mm 0,0 UV-I 0 W/m 1,3 C 10,2 C 4,8 km/h (1 Bft) 95,65 %
18.09.2019 19:44 10,3 C 7,2 C 54 % 1024,2 hPa 0,0 l/m 1,6 km/h (1 Bft) W-NW 292 0,000 mm 0,0 UV-I 0 W/m 1,4 C 10,3 C 4,8 km/h (1 Bft) 100,00 %
18.09.2019 19:43 10,3 C 7,2 C 54 % 1024,2 hPa 0,0 l/m 1,6 km/h (1 Bft) W-NW 292 0,000 mm 0,0 UV-I 0 W/m 1,4 C 10,3 C 3,2 km/h (1 Bft) 100,00 %
18.09.2019 19:42 10,3 C 7,2 C 53 % 1024,1 hPa 0,0 l/m 1,6 km/h (1 Bft) NW 315 0,000 mm 0,0 UV-I 0 W/m 1,1 C 10,3 C 3,2 km/h (1 Bft) 95,65 %
18.09.2019 19:41 10,3 C 7,2 C 54 % 1024,2 hPa 0,0 l/m 1,6 km/h (1 Bft) NW 315 0,000 mm 0,0 UV-I 0 W/m 1,4 C 10,3 C 3,2 km/h (1 Bft) 100,00 %
18.09.2019 19:40 10,3 C 7,2 C 54 % 1024,2 hPa 0,0 l/m 3,2 km/h (1 Bft) NW 315 0,000 mm 0,0 UV-I 0 W/m 1,4 C 10,3 C 4,8 km/h (1 Bft) 91,30 %
18.09.2019 19:39 10,3 C 7,2 C 54 % 1024,2 hPa 0,0 l/m 3,2 km/h (1 Bft) NW 315 0,000 mm 0,0 UV-I 0 W/m 1,4 C 10,3 C 4,8 km/h (1 Bft) 95,65 %
18.09.2019 19:38 10,3 C 7,2 C 54 % 1024,1 hPa 0,0 l/m 3,2 km/h (1 Bft) NW 315 0,000 mm 0,0 UV-I 0 W/m 1,4 C 10,3 C 4,8 km/h (1 Bft) 86,96 %
18.09.2019 19:37 10,3 C 7,2 C 53 % 1024,1 hPa 0,0 l/m 3,2 km/h (1 Bft) NW 315 0,000 mm 0,0 UV-I 0 W/m 1,1 C 10,3 C 4,8 km/h (1 Bft) 100,00 %
18.09.2019 19:36 10,3 C 7,2 C 53 % 1024,1 hPa 0,0 l/m 1,6 km/h (1 Bft) NW 315 0,000 mm 0,0 UV-I 0 W/m 1,1 C 10,3 C 4,8 km/h (1 Bft) 91,30 %
18.09.2019 19:35 10,3 C 7,2 C 54 % 1024,2 hPa 0,0 l/m 3,2 km/h (1 Bft) NW 315 0,000 mm 0,0 UV-I 0 W/m 1,4 C 10,3 C 4,8 km/h (1 Bft) 100,00 %
18.09.2019 19:34 10,3 C 7,2 C 55 % 1024,1 hPa 0,0 l/m 1,6 km/h (1 Bft) NW 315 0,000 mm 0,0 UV-I 0 W/m 1,7 C 10,3 C 4,8 km/h (1 Bft) 86,96 %
18.09.2019 19:33 10,3 C 7,8 C 54 % 1024,1 hPa 0,0 l/m 3,2 km/h (1 Bft) NW 315 0,000 mm 0,0 UV-I 0 W/m 1,4 C 10,3 C 4,8 km/h (1 Bft) 86,96 %
18.09.2019 19:32 10,3 C 7,8 C 54 % 1024,1 hPa 0,0 l/m 1,6 km/h (1 Bft) NW 315 0,000 mm 0,0 UV-I 0 W/m 1,4 C 10,3 C 4,8 km/h (1 Bft) 91,30 %
18.09.2019 19:31 10,3 C 7,8 C 55 % 1024,1 hPa 0,0 l/m 1,6 km/h (1 Bft) NW 315 0,000 mm 0,0 UV-I 0 W/m 1,7 C 10,3 C 4,8 km/h (1 Bft) 95,65 %
18.09.2019 19:30 10,3 C 7,8 C 56 % 1024,1 hPa 0,0 l/m 1,6 km/h (1 Bft) NW 315 0,000 mm 0,0 UV-I 0 W/m 1,9 C 10,3 C 3,2 km/h (1 Bft) 86,96 %
18.09.2019 19:29 10,3 C 7,8 C 57 % 1024,0 hPa 0,0 l/m 0,0 km/h (0 Bft) NW 315 0,000 mm 0,0 UV-I 0 W/m 2,2 C 10,3 C 1,6 km/h (1 Bft) 91,30 %
18.09.2019 19:28 10,4 C 7,8 C 57 % 1024,1 hPa 0,0 l/m 3,2 km/h (1 Bft) NW 315 0,000 mm 0,0 UV-I 0 W/m 2,3 C 10,4 C 4,8 km/h (1 Bft) 95,65 %
18.09.2019 19:27 10,4 C 7,8 C 58 % 1024,1 hPa 0,0 l/m 3,2 km/h (1 Bft) NW 315 0,000 mm 0,0 UV-I 0 W/m 2,5 C 10,4 C 4,8 km/h (1 Bft) 95,65 %
18.09.2019 19:26 10,4 C 7,8 C 57 % 1024,0 hPa 0,0 l/m 3,2 km/h (1 Bft) NW 315 0,000 mm 0,0 UV-I 0 W/m 2,3 C 10,4 C 4,8 km/h (1 Bft) 95,65 %
18.09.2019 19:25 10,4 C 7,8 C 57 % 1024,0 hPa 0,0 l/m 1,6 km/h (1 Bft) NW 315 0,000 mm 0,0 UV-I 0 W/m 2,3 C 10,4 C 4,8 km/h (1 Bft) 95,65 %
18.09.2019 19:24 10,4 C 7,8 C 58 % 1024,0 hPa 0,0 l/m 0,0 km/h (0 Bft) NW 315 0,000 mm 0,0 UV-I 0 W/m 2,5 C 10,4 C 1,6 km/h (1 Bft) 86,96 %
18.09.2019 19:23 10,4 C 7,8 C 58 % 1024,0 hPa 0,0 l/m 3,2 km/h (1 Bft) NW 315 0,000 mm 0,0 UV-I 0 W/m 2,5 C 10,4 C 4,8 km/h (1 Bft) 100,00 %
18.09.2019 19:22 10,4 C 7,8 C 57 % 1024,0 hPa 0,0 l/m 3,2 km/h (1 Bft) NW 315 0,000 mm 0,0 UV-I 0 W/m 2,3 C 10,4 C 3,2 km/h (1 Bft) 82,61 %
18.09.2019 19:21 10,4 C 7,8 C 57 % 1024,0 hPa 0,0 l/m 1,6 km/h (1 Bft) NW 315 0,000 mm 0,0 UV-I 0 W/m 2,3 C 10,4 C 3,2 km/h (1 Bft) 95,65 %
18.09.2019 19:20 10,4 C 7,8 C 57 % 1023,9 hPa 0,0 l/m 1,6 km/h (1 Bft) NW 315 0,000 mm 0,0 UV-I 0 W/m 2,3 C 10,4 C 3,2 km/h (1 Bft) 91,30 %
18.09.2019 19:19 10,4 C 7,8 C 57 % 1024,0 hPa 0,0 l/m 0,0 km/h (0 Bft) NW 315 0,000 mm 0,0 UV-I 0 W/m 2,3 C 10,4 C 3,2 km/h (1 Bft) 95,65 %
18.09.2019 19:18 10,5 C 7,8 C 57 % 1024,0 hPa 0,0 l/m 1,6 km/h (1 Bft) NW 315 0,000 mm 0,0 UV-I 0 W/m 2,3 C 10,5 C 3,2 km/h (1 Bft) 82,61 %
18.09.2019 19:17 10,6 C 8,3 C 58 % 1024,0 hPa 0,0 l/m 0,0 km/h (0 Bft) NW 315 0,000 mm 0,0 UV-I 0 W/m 2,7 C 10,6 C 3,2 km/h (1 Bft) 95,65 %
18.09.2019 19:16 10,6 C 8,3 C 57 % 1024,0 hPa 0,0 l/m 1,6 km/h (1 Bft) NW 315 0,000 mm 0,0 UV-I 0 W/m 2,4 C 10,6 C 3,2 km/h (1 Bft) 100,00 %
18.09.2019 19:15 10,6 C 8,3 C 58 % 1023,9 hPa 0,0 l/m 0,0 km/h (0 Bft) NW 315 0,000 mm 0,0 UV-I 0 W/m 2,7 C 10,6 C 1,6 km/h (1 Bft) 91,30 %
18.09.2019 19:14 10,6 C 8,3 C 57 % 1023,9 hPa 0,0 l/m 1,6 km/h (1 Bft) NW 315 0,000 mm 0,0 UV-I 0 W/m 2,4 C 10,6 C 3,2 km/h (1 Bft) 100,00 %
18.09.2019 19:13 10,6 C 8,3 C 57 % 1023,9 hPa 0,0 l/m 3,2 km/h (1 Bft) NW 315 0,000 mm 0,0 UV-I 0 W/m 2,4 C 10,6 C 4,8 km/h (1 Bft) 95,65 %
18.09.2019 19:12 10,7 C 8,3 C 57 % 1023,8 hPa 0,0 l/m 3,2 km/h (1 Bft) NW 315 0,000 mm 0,0 UV-I 0 W/m 2,5 C 10,7 C 3,2 km/h (1 Bft) 100,00 %
18.09.2019 19:11 10,7 C 8,3 C 58 % 1023,8 hPa 0,0 l/m 3,2 km/h (1 Bft) NW 315 0,000 mm 0,0 UV-I 0 W/m 2,8 C 10,7 C 4,8 km/h (1 Bft) 91,30 %
18.09.2019 19:10 10,7 C 8,3 C 57 % 1023,8 hPa 0,0 l/m 1,6 km/h (1 Bft) NW 315 0,000 mm 0,0 UV-I 0 W/m 2,5 C 10,7 C 3,2 km/h (1 Bft) 100,00 %
18.09.2019 19:09 10,7 C 8,3 C 58 % 1023,8 hPa 0,0 l/m 1,6 km/h (1 Bft) NW 315 0,000 mm 0,0 UV-I 0 W/m 2,8 C 10,7 C 3,2 km/h (1 Bft) 100,00 %
18.09.2019 19:08 10,7 C 8,3 C 57 % 1023,8 hPa 0,0 l/m 1,6 km/h (1 Bft) NW 315 0,000 mm 0,0 UV-I 0 W/m 2,5 C 10,7 C 1,6 km/h (1 Bft) 95,65 %
18.09.2019 19:07 10,8 C 8,3 C 57 % 1023,8 hPa 0,0 l/m 1,6 km/h (1 Bft) NW 315 0,000 mm 0,0 UV-I 0 W/m 2,6 C 10,8 C 3,2 km/h (1 Bft) 95,65 %
18.09.2019 19:06 10,8 C 8,3 C 57 % 1023,8 hPa 0,0 l/m 0,0 km/h (0 Bft) NW 315 0,000 mm 0,0 UV-I 0 W/m 2,6 C 10,8 C 3,2 km/h (1 Bft) 100,00 %
18.09.2019 19:05 10,8 C 8,3 C 57 % 1023,8 hPa 0,0 l/m 0,0 km/h (0 Bft) NW 315 0,000 mm 0,0 UV-I 0 W/m 2,6 C 10,8 C 3,2 km/h (1 Bft) 100,00 %
18.09.2019 19:04 10,9 C 8,3 C 57 % 1023,7 hPa 0,0 l/m 1,6 km/h (1 Bft) NW 315 0,000 mm 0,0 UV-I 0 W/m 2,7 C 10,9 C 3,2 km/h (1 Bft) 95,65 %
18.09.2019 19:03 10,9 C 8,3 C 57 % 1023,7 hPa 0,0 l/m 1,6 km/h (1 Bft) NW 315 0,000 mm 0,0 UV-I 5 W/m 2,7 C 10,9 C 3,2 km/h (1 Bft) 95,65 %
18.09.2019 19:02 10,9 C 8,3 C 57 % 1023,7 hPa 0,0 l/m 1,6 km/h (1 Bft) NW 315 0,000 mm 0,0 UV-I 5 W/m 2,7 C 10,9 C 3,2 km/h (1 Bft) 95,65 %
18.09.2019 19:01 10,9 C 8,3 C 57 % 1023,7 hPa 0,0 l/m 1,6 km/h (1 Bft) NW 315 0,000 mm 0,0 UV-I 5 W/m 2,7 C 10,9 C 4,8 km/h (1 Bft) 100,00 %
18.09.2019 19:00 10,9 C 8,3 C 57 % 1023,7 hPa 0,0 l/m 1,6 km/h (1 Bft) NW 315 0,025 mm 0,0 UV-I 5 W/m 2,7 C 10,9 C 4,8 km/h (1 Bft) 100,00 %
18.09.2019 18:59 11,0 C 8,3 C 57 % 1023,7 hPa 0,0 l/m 0,0 km/h (0 Bft) NW 315 0,000 mm 0,0 UV-I 5 W/m 2,8 C 11,0 C 3,2 km/h (1 Bft) 100,00 %
18.09.2019 18:58 11,0 C 8,3 C 57 % 1023,7 hPa 0,0 l/m 1,6 km/h (1 Bft) NW 315 0,000 mm 0,0 UV-I 5 W/m 2,8 C 11,0 C 3,2 km/h (1 Bft) 100,00 %
18.09.2019 18:57 11,0 C 8,3 C 57 % 1023,7 hPa 0,0 l/m 1,6 km/h (1 Bft) NW 315 0,000 mm 0,0 UV-I 5 W/m 2,8 C 11,0 C 3,2 km/h (1 Bft) 95,65 %
18.09.2019 18:56 11,1 C 8,3 C 57 % 1023,7 hPa 0,0 l/m 0,0 km/h (0 Bft) NW 315 0,000 mm 0,0 UV-I 7 W/m 2,9 C 11,1 C 1,6 km/h (1 Bft) 91,30 %
18.09.2019 18:55 11,1 C 8,3 C 57 % 1023,7 hPa 0,0 l/m 1,6 km/h (1 Bft) NW 315 0,000 mm 0,0 UV-I 7 W/m 2,9 C 11,1 C 3,2 km/h (1 Bft) 86,96 %
18.09.2019 18:54 11,1 C 8,3 C 57 % 1023,7 hPa 0,0 l/m 1,6 km/h (1 Bft) NW 315 0,000 mm 0,0 UV-I 7 W/m 2,9 C 11,1 C 3,2 km/h (1 Bft) 100,00 %
18.09.2019 18:53 11,1 C 8,3 C 57 % 1023,6 hPa 0,0 l/m 3,2 km/h (1 Bft) NW 315 0,000 mm 0,0 UV-I 7 W/m 2,9 C 11,1 C 3,2 km/h (1 Bft) 95,65 %
18.09.2019 18:52 11,2 C 8,3 C 57 % 1023,7 hPa 0,0 l/m 1,6 km/h (1 Bft) NW 315 0,000 mm 0,0 UV-I 7 W/m 3,0 C 11,2 C 3,2 km/h (1 Bft) 100,00 %
18.09.2019 18:51 11,2 C 8,3 C 57 % 1023,7 hPa 0,0 l/m 0,0 km/h (0 Bft) NW 315 0,000 mm 0,0 UV-I 7 W/m 3,0 C 11,2 C 3,2 km/h (1 Bft) 100,00 %
18.09.2019 18:50 11,2 C 8,3 C 57 % 1023,7 hPa 0,0 l/m 0,0 km/h (0 Bft) NW 315 0,000 mm 0,0 UV-I 9 W/m 3,0 C 11,2 C 3,2 km/h (1 Bft) 91,30 %
18.09.2019 18:49 11,2 C 8,3 C 56 % 1023,7 hPa 0,0 l/m 1,6 km/h (1 Bft) NW 315 0,000 mm 0,0 UV-I 9 W/m 2,8 C 11,2 C 3,2 km/h (1 Bft) 95,65 %
18.09.2019 18:48 11,2 C 8,3 C 57 % 1023,7 hPa 0,0 l/m 1,6 km/h (1 Bft) NW 315 0,000 mm 0,0 UV-I 9 W/m 3,0 C 11,2 C 3,2 km/h (1 Bft) 95,65 %
18.09.2019 18:47 11,2 C 8,9 C 57 % 1023,6 hPa 0,0 l/m 1,6 km/h (1 Bft) NW 315 0,000 mm 0,0 UV-I 9 W/m 3,0 C 11,2 C 3,2 km/h (1 Bft) 95,65 %
18.09.2019 18:46 11,2 C 8,9 C 56 % 1023,6 hPa 0,0 l/m 1,6 km/h (1 Bft) NW 315 0,000 mm 0,0 UV-I 11 W/m 2,8 C 11,2 C 3,2 km/h (1 Bft) 91,30 %
18.09.2019 18:45 11,2 C 8,9 C 57 % 1023,6 hPa 0,0 l/m 0,0 km/h (0 Bft) NW 315 0,000 mm 0,0 UV-I 11 W/m 3,0 C 11,2 C 3,2 km/h (1 Bft) 95,65 %
18.09.2019 18:44 11,3 C 8,9 C 57 % 1023,6 hPa 0,0 l/m 1,6 km/h (1 Bft) NW 315 0,000 mm 0,0 UV-I 11 W/m 3,1 C 11,3 C 3,2 km/h (1 Bft) 91,30 %
18.09.2019 18:43 11,3 C 8,9 C 57 % 1023,6 hPa 0,0 l/m 1,6 km/h (1 Bft) NW 315 0,000 mm 0,0 UV-I 11 W/m 3,1 C 11,3 C 1,6 km/h (1 Bft) 73,91 %
18.09.2019 18:42 11,3 C 8,9 C 56 % 1023,6 hPa 0,0 l/m 1,6 km/h (1 Bft) NW 315 0,000 mm 0,0 UV-I 11 W/m 2,8 C 11,3 C 3,2 km/h (1 Bft) 91,30 %
18.09.2019 18:41 11,4 C 8,9 C 56 % 1023,6 hPa 0,0 l/m 1,6 km/h (1 Bft) NW 315 0,000 mm 0,0 UV-I 11 W/m 2,9 C 11,4 C 3,2 km/h (1 Bft) 95,65 %
18.09.2019 18:40 11,3 C 8,9 C 56 % 1023,7 hPa 0,0 l/m 0,0 km/h (0 Bft) NW 315 0,000 mm 0,0 UV-I 12 W/m 2,8 C 11,3 C 3,2 km/h (1 Bft) 86,96 %
18.09.2019 18:39 11,4 C 8,9 C 57 % 1023,6 hPa 0,0 l/m 1,6 km/h (1 Bft) NW 315 0,000 mm 0,0 UV-I 12 W/m 3,2 C 11,4 C 3,2 km/h (1 Bft) 100,00 %
18.09.2019 18:38 11,4 C 8,9 C 56 % 1023,6 hPa 0,0 l/m 1,6 km/h (1 Bft) NW 315 0,000 mm 0,0 UV-I 12 W/m 2,9 C 11,4 C 1,6 km/h (1 Bft) 91,30 %
18.09.2019 18:37 11,4 C 8,9 C 57 % 1023,6 hPa 0,0 l/m 1,6 km/h (1 Bft) NW 315 0,000 mm 0,0 UV-I 12 W/m 3,2 C 11,4 C 3,2 km/h (1 Bft) 86,96 %
18.09.2019 18:36 11,4 C 8,9 C 56 % 1023,5 hPa 0,0 l/m 1,6 km/h (1 Bft) NW 315 0,000 mm 0,0 UV-I 12 W/m 2,9 C 11,4 C 3,2 km/h (1 Bft) 91,30 %
18.09.2019 18:35 11,4 C 8,9 C 56 % 1023,5 hPa 0,0 l/m 1,6 km/h (1 Bft) NW 315 0,000 mm 0,0 UV-I 12 W/m 2,9 C 11,4 C 3,2 km/h (1 Bft) 100,00 %
18.09.2019 18:34 11,4 C 8,9 C 56 % 1023,6 hPa 0,0 l/m 1,6 km/h (1 Bft) NW 315 0,000 mm 0,0 UV-I 14 W/m 2,9 C 11,4 C 3,2 km/h (1 Bft) 91,30 %
18.09.2019 18:33 11,4 C 8,9 C 56 % 1023,6 hPa 0,0 l/m 1,6 km/h (1 Bft) NW 315 0,000 mm 0,0 UV-I 14 W/m 2,9 C 11,4 C 3,2 km/h (1 Bft) 86,96 %
18.09.2019 18:32 11,4 C 8,9 C 55 % 1023,6 hPa 0,0 l/m 1,6 km/h (1 Bft) NW 315 0,000 mm 0,0 UV-I 14 W/m 2,7 C 11,4 C 3,2 km/h (1 Bft) 86,96 %
18.09.2019 18:31 11,5 C 8,9 C 56 % 1023,6 hPa 0,0 l/m 1,6 km/h (1 Bft) NW 315 0,000 mm 0,0 UV-I 14 W/m 3,0 C 11,5 C 3,2 km/h (1 Bft) 91,30 %
18.09.2019 18:30 11,5 C 8,9 C 56 % 1023,6 hPa 0,0 l/m 0,0 km/h (0 Bft) NW 315 0,000 mm 0,0 UV-I 14 W/m 3,0 C 11,5 C 1,6 km/h (1 Bft) 73,91 %
18.09.2019 18:29 11,6 C 9,4 C 55 % 1023,6 hPa 0,0 l/m 0,0 km/h (0 Bft) W-NW 292 0,000 mm 0,0 UV-I 16 W/m 2,9 C 11,6 C 1,6 km/h (1 Bft) 60,87 %
18.09.2019 18:28 11,6 C 9,4 C 55 % 1023,6 hPa 0,0 l/m 0,0 km/h (0 Bft) W-NW 292 0,000 mm 0,0 UV-I 16 W/m 2,9 C 11,6 C 1,6 km/h (1 Bft) 82,61 %
18.09.2019 18:27 11,5 C 8,9 C 54 % 1023,6 hPa 0,0 l/m 0,0 km/h (0 Bft) N 0 0,000 mm 0,0 UV-I 16 W/m 2,5 C 11,5 C 0,0 km/h (0 Bft) 73,91 %
18.09.2019 18:26 11,4 C 8,9 C 54 % 1023,7 hPa 0,0 l/m 0,0 km/h (0 Bft) N 0 0,000 mm 0,0 UV-I 16 W/m 2,4 C 11,4 C 0,0 km/h (0 Bft) 52,17 %
18.09.2019 18:25 11,4 C 8,9 C 56 % 1023,6 hPa 0,0 l/m 0,0 km/h (0 Bft) N 0 0,000 mm 0,0 UV-I 16 W/m 2,9 C 11,4 C 0,0 km/h (0 Bft) 43,48 %
18.09.2019 18:24 11,4 C 9,4 C 56 % 1023,6 hPa 0,0 l/m 0,0 km/h (0 Bft) N 0 0,000 mm 0,0 UV-I 16 W/m 2,9 C 11,4 C 0,0 km/h (0 Bft) 60,87 %
18.09.2019 18:23 11,4 C 9,4 C 56 % 1023,6 hPa 0,0 l/m 0,0 km/h (0 Bft) N 0 0,000 mm 0,0 UV-I 16 W/m 2,9 C 11,4 C 0,0 km/h (0 Bft) 73,91 %
18.09.2019 18:22 11,4 C 9,4 C 56 % 1023,6 hPa 0,0 l/m 0,0 km/h (0 Bft) N 0 0,000 mm 0,0 UV-I 16 W/m 2,9 C 11,4 C 0,0 km/h (0 Bft) 60,87 %
18.09.2019 18:21 11,4 C 9,4 C 57 % 1023,6 hPa 0,0 l/m 0,0 km/h (0 Bft) N 0 0,000 mm 0,0 UV-I 16 W/m 3,2 C 11,4 C 0,0 km/h (0 Bft) 73,91 %
18.09.2019 18:20 11,3 C 9,4 C 57 % 1023,6 hPa 0,0 l/m 0,0 km/h (0 Bft) W-NW 292 0,000 mm 0,0 UV-I 16 W/m 3,1 C 11,3 C 3,2 km/h (1 Bft) 73,91 %
18.09.2019 18:19 11,3 C 9,4 C 58 % 1023,5 hPa 0,0 l/m 0,0 km/h (0 Bft) N 0 0,000 mm 0,0 UV-I 16 W/m 3,3 C 11,3 C 0,0 km/h (0 Bft) 60,87 %
18.09.2019 18:18 11,2 C 9,4 C 58 % 1023,6 hPa 0,0 l/m 0,0 km/h (0 Bft) W-NW 292 0,000 mm 0,0 UV-I 16 W/m 3,2 C 11,2 C 1,6 km/h (1 Bft) 39,13 %
18.09.2019 18:17 11,1 C 9,4 C 58 % 1023,6 hPa 0,0 l/m 1,6 km/h (1 Bft) W-NW 292 0,000 mm 0,0 UV-I 16 W/m 3,2 C 11,1 C 3,2 km/h (1 Bft) 78,26 %
18.09.2019 18:16 11,1 C 9,4 C 61 % 1023,6 hPa 0,0 l/m 0,0 km/h (0 Bft) W-NW 292 0,000 mm 0,0 UV-I 16 W/m 3,9 C 11,1 C 1,6 km/h (1 Bft) 65,22 %
18.09.2019 18:15 11,2 C 9,4 C 61 % 1023,6 hPa 0,0 l/m 0,0 km/h (0 Bft) N 0 0,000 mm 0,0 UV-I 16 W/m 4,0 C 11,2 C 0,0 km/h (0 Bft) 65,22 %
18.09.2019 18:14 11,2 C 9,4 C 61 % 1023,5 hPa 0,0 l/m 3,2 km/h (1 Bft) W-NW 292 0,000 mm 0,0 UV-I 16 W/m 4,0 C 11,2 C 4,8 km/h (1 Bft) 86,96 %
18.09.2019 18:13 11,3 C 9,4 C 59 % 1023,5 hPa 0,0 l/m 1,6 km/h (1 Bft) W-NW 292 0,000 mm 0,0 UV-I 16 W/m 3,6 C 11,3 C 3,2 km/h (1 Bft) 65,22 %
18.09.2019 18:12 11,3 C 9,4 C 60 % 1023,5 hPa 0,0 l/m 0,0 km/h (0 Bft) W-NW 292 0,000 mm 0,0 UV-I 16 W/m 3,8 C 11,3 C 1,6 km/h (1 Bft) 78,26 %
18.09.2019 18:11 11,3 C 9,4 C 62 % 1023,5 hPa 0,0 l/m 0,0 km/h (0 Bft) W-NW 292 0,000 mm 0,0 UV-I 18 W/m 4,3 C 11,3 C 1,6 km/h (1 Bft) 69,57 %
18.09.2019 18:10 11,3 C 9,4 C 62 % 1023,5 hPa 0,0 l/m 1,6 km/h (1 Bft) W-NW 292 0,000 mm 0,0 UV-I 18 W/m 4,3 C 11,3 C 1,6 km/h (1 Bft) 65,22 %
18.09.2019 18:09 11,3 C 9,4 C 61 % 1023,5 hPa 0,0 l/m 3,2 km/h (1 Bft) W-NW 292 0,000 mm 0,0 UV-I 18 W/m 4,1 C 11,3 C 4,8 km/h (1 Bft) 65,22 %
18.09.2019 18:08 11,3 C 9,4 C 60 % 1023,5 hPa 0,0 l/m 3,2 km/h (1 Bft) W-NW 292 0,000 mm 0,0 UV-I 18 W/m 3,8 C 11,3 C 4,8 km/h (1 Bft) 73,91 %
18.09.2019 18:07 11,3 C 9,4 C 64 % 1023,5 hPa 0,0 l/m 1,6 km/h (1 Bft) W-NW 292 0,000 mm 0,0 UV-I 18 W/m 4,7 C 11,3 C 6,4 km/h (2 Bft) 78,26 %
18.09.2019 18:06 11,3 C 9,4 C 63 % 1023,5 hPa 0,0 l/m 1,6 km/h (1 Bft) W-NW 292 0,000 mm 0,0 UV-I 18 W/m 4,5 C 11,3 C 4,8 km/h (1 Bft) 60,87 %
18.09.2019 18:05 11,3 C 9,4 C 63 % 1023,5 hPa 0,0 l/m 0,0 km/h (0 Bft) W-NW 292 0,000 mm 0,0 UV-I 19 W/m 4,5 C 11,3 C 1,6 km/h (1 Bft) 65,22 %
18.09.2019 18:04 11,3 C 9,4 C 62 % 1023,4 hPa 0,0 l/m 0,0 km/h (0 Bft) W-NW 292 0,000 mm 0,0 UV-I 19 W/m 4,3 C 11,3 C 1,6 km/h (1 Bft) 82,61 %
18.09.2019 18:03 11,3 C 9,4 C 59 % 1023,4 hPa 0,0 l/m 0,0 km/h (0 Bft) N 0 0,000 mm 0,0 UV-I 19 W/m 3,6 C 11,3 C 0,0 km/h (0 Bft) 69,57 %
18.09.2019 18:02 11,3 C 9,4 C 60 % 1023,4 hPa 0,0 l/m 0,0 km/h (0 Bft) N 0 0,000 mm 0,0 UV-I 19 W/m 3,8 C 11,3 C 0,0 km/h (0 Bft) 65,22 %
18.09.2019 18:01 11,3 C 9,4 C 63 % 1023,5 hPa 0,0 l/m 0,0 km/h (0 Bft) W-NW 292 0,000 mm 0,0 UV-I 19 W/m 4,5 C 11,3 C 1,6 km/h (1 Bft) 73,91 %
18.09.2019 18:00 11,3 C 9,4 C 64 % 1023,5 hPa 0,0 l/m 0,0 km/h (0 Bft) W-NW 292 0,025 mm 0,0 UV-I 19 W/m 4,7 C 11,3 C 1,6 km/h (1 Bft) 60,87 %
18.09.2019 17:59 11,3 C 9,4 C 63 % 1023,4 hPa 0,0 l/m 1,6 km/h (1 Bft) W-NW 292 0,000 mm 0,0 UV-I 19 W/m 4,5 C 11,3 C 3,2 km/h (1 Bft) 65,22 %
18.09.2019 17:58 11,4 C 10,0 C 60 % 1023,5 hPa 0,0 l/m 0,0 km/h (0 Bft) N 0 0,000 mm 0,0 UV-I 19 W/m 3,9 C 11,4 C 0,0 km/h (0 Bft) 86,96 %
18.09.2019 17:57 11,4 C 10,0 C 62 % 1023,5 hPa 0,0 l/m 0,0 km/h (0 Bft) W-NW 292 0,000 mm 0,0 UV-I 19 W/m 4,4 C 11,4 C 1,6 km/h (1 Bft) 69,57 %
18.09.2019 17:56 11,4 C 10,0 C 61 % 1023,4 hPa 0,0 l/m 0,0 km/h (0 Bft) W-NW 292 0,000 mm 0,0 UV-I 21 W/m 4,2 C 11,4 C 1,6 km/h (1 Bft) 78,26 %
18.09.2019 17:55 11,4 C 10,0 C 61 % 1023,4 hPa 0,0 l/m 0,0 km/h (0 Bft) W-NW 292 0,000 mm 0,0 UV-I 21 W/m 4,2 C 11,4 C 3,2 km/h (1 Bft) 69,57 %
18.09.2019 17:54 11,5 C 10,0 C 61 % 1023,4 hPa 0,0 l/m 0,0 km/h (0 Bft) W-NW 292 0,000 mm 0,0 UV-I 21 W/m 4,2 C 11,5 C 1,6 km/h (1 Bft) 52,17 %
18.09.2019 17:53 11,5 C 10,0 C 61 % 1023,3 hPa 0,0 l/m 1,6 km/h (1 Bft) W-NW 292 0,000 mm 0,0 UV-I 21 W/m 4,2 C 11,5 C 3,2 km/h (1 Bft) 78,26 %
18.09.2019 17:52 11,5 C 10,0 C 61 % 1023,4 hPa 0,0 l/m 0,0 km/h (0 Bft) W-NW 292 0,000 mm 0,0 UV-I 21 W/m 4,2 C 11,5 C 4,8 km/h (1 Bft) 78,26 %
18.09.2019 17:51 11,5 C 10,0 C 62 % 1023,4 hPa 0,0 l/m 0,0 km/h (0 Bft) W-NW 292 0,000 mm 0,0 UV-I 21 W/m 4,5 C 11,5 C 1,6 km/h (1 Bft) 82,61 %
18.09.2019 17:50 11,6 C 10,0 C 61 % 1023,4 hPa 0,0 l/m 1,6 km/h (1 Bft) W-NW 292 0,000 mm 0,0 UV-I 21 W/m 4,3 C 11,6 C 1,6 km/h (1 Bft) 60,87 %
18.09.2019 17:49 11,6 C 10,0 C 60 % 1023,4 hPa 0,0 l/m 0,0 km/h (0 Bft) W-NW 292 0,000 mm 0,0 UV-I 21 W/m 4,1 C 11,6 C 1,6 km/h (1 Bft) 73,91 %
18.09.2019 17:48 11,6 C 10,0 C 61 % 1023,3 hPa 0,0 l/m 0,0 km/h (0 Bft) W-NW 292 0,000 mm 0,0 UV-I 23 W/m 4,3 C 11,6 C 1,6 km/h (1 Bft) 82,61 %
18.09.2019 17:47 11,6 C 10,0 C 60 % 1023,4 hPa 0,0 l/m 0,0 km/h (0 Bft) W-NW 292 0,000 mm 0,0 UV-I 23 W/m 4,1 C 11,6 C 1,6 km/h (1 Bft) 78,26 %
18.09.2019 17:46 11,6 C 10,0 C 61 % 1023,4 hPa 0,0 l/m 0,0 km/h (0 Bft) W-NW 292 0,000 mm 0,0 UV-I 23 W/m 4,3 C 11,6 C 1,6 km/h (1 Bft) 73,91 %
18.09.2019 17:45 11,5 C 10,0 C 61 % 1023,4 hPa 0,0 l/m 1,6 km/h (1 Bft) W-NW 292 0,000 mm 0,0 UV-I 23 W/m 4,2 C 11,5 C 4,8 km/h (1 Bft) 78,26 %
18.09.2019 17:44 11,6 C 10,0 C 62 % 1023,4 hPa 0,0 l/m 0,0 km/h (0 Bft) N 0 0,000 mm 0,0 UV-I 23 W/m 4,6 C 11,6 C 0,0 km/h (0 Bft) 60,87 %
18.09.2019 17:43 11,6 C 10,0 C 61 % 1023,3 hPa 0,0 l/m 0,0 km/h (0 Bft) N 360 0,000 mm 0,0 UV-I 23 W/m 4,3 C 11,6 C 1,6 km/h (1 Bft) 73,91 %
18.09.2019 17:42 11,6 C 10,0 C 64 % 1023,4 hPa 0,0 l/m 0,0 km/h (0 Bft) N 0 0,000 mm 0,0 UV-I 23 W/m 5,0 C 11,6 C 0,0 km/h (0 Bft) 78,26 %
18.09.2019 17:41 11,7 C 10,0 C 62 % 1023,3 hPa 0,0 l/m 0,0 km/h (0 Bft) N 360 0,000 mm 0,0 UV-I 23 W/m 4,7 C 11,7 C 1,6 km/h (1 Bft) 56,52 %
18.09.2019 17:40 11,7 C 10,0 C 60 % 1023,4 hPa 0,0 l/m 1,6 km/h (1 Bft) N 360 0,000 mm 0,0 UV-I 23 W/m 4,2 C 11,7 C 3,2 km/h (1 Bft) 52,17 %
18.09.2019 17:39 11,7 C 10,0 C 60 % 1023,4 hPa 0,0 l/m 0,0 km/h (0 Bft) N 360 0,000 mm 0,0 UV-I 23 W/m 4,2 C 11,7 C 3,2 km/h (1 Bft) 69,57 %
18.09.2019 17:38 11,8 C 10,6 C 59 % 1023,3 hPa 0,0 l/m 0,0 km/h (0 Bft) N 0 0,000 mm 0,0 UV-I 23 W/m 4,1 C 11,8 C 0,0 km/h (0 Bft) 60,87 %
18.09.2019 17:37 11,8 C 10,6 C 60 % 1023,4 hPa 0,0 l/m 0,0 km/h (0 Bft) N 360 0,000 mm 0,0 UV-I 25 W/m 4,3 C 11,8 C 1,6 km/h (1 Bft) 78,26 %
18.09.2019 17:36 11,8 C 10,6 C 60 % 1023,4 hPa 0,0 l/m 0,0 km/h (0 Bft) N 0 0,000 mm 0,0 UV-I 25 W/m 4,3 C 11,8 C 0,0 km/h (0 Bft) 78,26 %
18.09.2019 17:35 11,8 C 10,6 C 59 % 1023,3 hPa 0,0 l/m 0,0 km/h (0 Bft) N 360 0,000 mm 0,0 UV-I 25 W/m 4,1 C 11,8 C 1,6 km/h (1 Bft) 60,87 %
18.09.2019 17:34 11,8 C 10,6 C 59 % 1023,3 hPa 0,0 l/m 0,0 km/h (0 Bft) N 0 0,000 mm 0,0 UV-I 25 W/m 4,1 C 11,8 C 0,0 km/h (0 Bft) 65,22 %
18.09.2019 17:33 11,8 C 10,6 C 59 % 1023,4 hPa 0,0 l/m 0,0 km/h (0 Bft) N-NO 22 0,000 mm 0,0 UV-I 25 W/m 4,1 C 11,8 C 3,2 km/h (1 Bft) 82,61 %
18.09.2019 17:32 11,8 C 10,6 C 62 % 1023,4 hPa 0,0 l/m 1,6 km/h (1 Bft) N-NO 22 0,000 mm 0,0 UV-I 26 W/m 4,8 C 11,8 C 4,8 km/h (1 Bft) 60,87 %
18.09.2019 17:31 11,8 C 10,6 C 60 % 1023,3 hPa 0,0 l/m 1,6 km/h (1 Bft) W 270 0,000 mm 0,0 UV-I 26 W/m 4,3 C 11,8 C 3,2 km/h (1 Bft) 65,22 %
18.09.2019 17:30 11,9 C 10,6 C 59 % 1023,3 hPa 0,0 l/m 0,0 km/h (0 Bft) W 270 0,000 mm 0,0 UV-I 26 W/m 4,1 C 11,9 C 1,6 km/h (1 Bft) 86,96 %
18.09.2019 17:29 11,9 C 10,6 C 59 % 1023,4 hPa 0,0 l/m 0,0 km/h (0 Bft) W 270 0,000 mm 0,0 UV-I 25 W/m 4,1 C 11,9 C 1,6 km/h (1 Bft) 86,96 %
18.09.2019 17:28 12,0 C 10,6 C 60 % 1023,4 hPa 0,0 l/m 0,0 km/h (0 Bft) W 270 0,000 mm 0,0 UV-I 25 W/m 4,5 C 12,0 C 1,6 km/h (1 Bft) 78,26 %
18.09.2019 17:27 12,1 C 10,6 C 60 % 1023,4 hPa 0,0 l/m 1,6 km/h (1 Bft) W 270 0,000 mm 0,0 UV-I 25 W/m 4,6 C 12,1 C 3,2 km/h (1 Bft) 69,57 %
18.09.2019 17:26 12,0 C 10,6 C 59 % 1023,4 hPa 0,0 l/m 0,0 km/h (0 Bft) S-SO 157 0,000 mm 0,0 UV-I 25 W/m 4,2 C 12,0 C 3,2 km/h (1 Bft) 91,30 %
18.09.2019 17:25 12,1 C 10,6 C 58 % 1023,4 hPa 0,0 l/m 0,0 km/h (0 Bft) N-NO 22 0,000 mm 0,0 UV-I 25 W/m 4,1 C 12,1 C 1,6 km/h (1 Bft) 73,91 %
18.09.2019 17:24 12,0 C 10,6 C 56 % 1023,5 hPa 0,0 l/m 1,6 km/h (1 Bft) NO 45 0,000 mm 0,0 UV-I 25 W/m 3,5 C 12,0 C 3,2 km/h (1 Bft) 82,61 %
18.09.2019 17:23 11,9 C 10,6 C 59 % 1023,4 hPa 0,0 l/m 4,8 km/h (1 Bft) N-NO 22 0,000 mm 0,0 UV-I 25 W/m 4,1 C 11,9 C 8,0 km/h (2 Bft) 86,96 %
18.09.2019 17:22 12,0 C 10,6 C 59 % 1023,4 hPa 0,0 l/m 0,0 km/h (0 Bft) W-SW 247 0,000 mm 0,0 UV-I 25 W/m 4,2 C 12,0 C 1,6 km/h (1 Bft) 78,26 %
18.09.2019 17:21 12,0 C 10,6 C 59 % 1023,5 hPa 0,0 l/m 0,0 km/h (0 Bft) W-SW 247 0,000 mm 0,0 UV-I 26 W/m 4,2 C 12,0 C 1,6 km/h (1 Bft) 82,61 %
18.09.2019 17:20 12,1 C 10,6 C 60 % 1023,5 hPa 0,0 l/m 0,0 km/h (0 Bft) W-SW 247 0,000 mm 0,0 UV-I 26 W/m 4,6 C 12,1 C 1,6 km/h (1 Bft) 60,87 %
18.09.2019 17:19 12,1 C 10,6 C 58 % 1023,5 hPa 0,0 l/m 0,0 km/h (0 Bft) W-SW 247 0,000 mm 0,0 UV-I 26 W/m 4,1 C 12,1 C 1,6 km/h (1 Bft) 65,22 %
18.09.2019 17:18 12,2 C 10,6 C 58 % 1023,5 hPa 0,0 l/m 0,0 km/h (0 Bft) N 0 0,000 mm 0,0 UV-I 26 W/m 4,2 C 12,2 C 0,0 km/h (0 Bft) 78,26 %
18.09.2019 17:17 12,3 C 11,1 C 58 % 1023,4 hPa 0,0 l/m 0,0 km/h (0 Bft) W-SW 247 0,000 mm 0,0 UV-I 26 W/m 4,3 C 12,3 C 1,6 km/h (1 Bft) 86,96 %
18.09.2019 17:16 12,4 C 11,1 C 56 % 1023,5 hPa 0,0 l/m 0,0 km/h (0 Bft) W-SW 247 0,000 mm 0,0 UV-I 28 W/m 3,9 C 12,4 C 1,6 km/h (1 Bft) 73,91 %
18.09.2019 17:15 12,4 C 11,1 C 54 % 1023,4 hPa 0,0 l/m 0,0 km/h (0 Bft) W-SW 247 0,000 mm 0,0 UV-I 28 W/m 3,4 C 12,4 C 1,6 km/h (1 Bft) 73,91 %
18.09.2019 17:14 12,3 C 11,1 C 55 % 1023,5 hPa 0,0 l/m 0,0 km/h (0 Bft) N 0 0,000 mm 0,0 UV-I 28 W/m 3,5 C 12,3 C 0,0 km/h (0 Bft) 91,30 %
18.09.2019 17:13 12,4 C 11,1 C 56 % 1023,5 hPa 0,0 l/m 0,0 km/h (0 Bft) N 0 0,000 mm 0,0 UV-I 28 W/m 3,9 C 12,4 C 0,0 km/h (0 Bft) 73,91 %
18.09.2019 17:12 12,4 C 11,1 C 56 % 1023,5 hPa 0,0 l/m 0,0 km/h (0 Bft) N 0 0,000 mm 0,0 UV-I 30 W/m 3,9 C 12,4 C 0,0 km/h (0 Bft) 82,61 %
18.09.2019 17:11 12,5 C 11,1 C 57 % 1023,5 hPa 0,0 l/m 0,0 km/h (0 Bft) N 0 0,000 mm 0,0 UV-I 30 W/m 4,2 C 12,5 C 0,0 km/h (0 Bft) 78,26 %
18.09.2019 17:10 12,5 C 11,1 C 56 % 1023,5 hPa 0,0 l/m 1,6 km/h (1 Bft) W-SW 247 0,000 mm 0,0 UV-I 30 W/m 4,0 C 12,5 C 3,2 km/h (1 Bft) 86,96 %
18.09.2019 17:09 12,5 C 11,1 C 59 % 1023,5 hPa 0,0 l/m 0,0 km/h (0 Bft) W-SW 247 0,000 mm 0,0 UV-I 30 W/m 4,7 C 12,5 C 1,6 km/h (1 Bft) 73,91 %
18.09.2019 17:08 12,5 C 11,1 C 59 % 1023,6 hPa 0,0 l/m 0,0 km/h (0 Bft) W-SW 247 0,000 mm 0,0 UV-I 32 W/m 4,7 C 12,5 C 1,6 km/h (1 Bft) 69,57 %
18.09.2019 17:07 12,6 C 11,1 C 58 % 1023,5 hPa 0,0 l/m 0,0 km/h (0 Bft) W-SW 247 0,000 mm 0,0 UV-I 32 W/m 4,6 C 12,6 C 1,6 km/h (1 Bft) 56,52 %
18.09.2019 17:06 12,7 C 11,1 C 56 % 1023,5 hPa 0,0 l/m 0,0 km/h (0 Bft) W-SW 247 0,000 mm 0,0 UV-I 32 W/m 4,2 C 12,7 C 1,6 km/h (1 Bft) 60,87 %
18.09.2019 17:05 12,7 C 11,1 C 53 % 1023,4 hPa 0,0 l/m 0,0 km/h (0 Bft) W-SW 247 0,000 mm 0,0 UV-I 32 W/m 3,4 C 12,7 C 1,6 km/h (1 Bft) 86,96 %
18.09.2019 17:04 12,6 C 11,7 C 52 % 1023,5 hPa 0,0 l/m 1,6 km/h (1 Bft) W-SW 247 0,000 mm 0,0 UV-I 35 W/m 3,0 C 12,6 C 3,2 km/h (1 Bft) 91,30 %
18.09.2019 17:03 12,5 C 11,7 C 54 % 1023,5 hPa 0,0 l/m 1,6 km/h (1 Bft) W-SW 247 0,000 mm 0,0 UV-I 35 W/m 3,5 C 12,5 C 1,6 km/h (1 Bft) 100,00 %
18.09.2019 17:02 12,5 C 11,7 C 56 % 1023,5 hPa 0,0 l/m 0,0 km/h (0 Bft) W-SW 247 0,000 mm 0,0 UV-I 37 W/m 4,0 C 12,5 C 1,6 km/h (1 Bft) 91,30 %
18.09.2019 17:01 12,5 C 11,7 C 55 % 1023,5 hPa 0,0 l/m 0,0 km/h (0 Bft) W-SW 247 0,000 mm 0,0 UV-I 37 W/m 3,7 C 12,5 C 1,6 km/h (1 Bft) 82,61 %
18.09.2019 17:00 12,6 C 11,7 C 55 % 1023,5 hPa 0,0 l/m 0,0 km/h (0 Bft) W-SW 247 0,051 mm 0,0 UV-I 39 W/m 3,8 C 12,6 C 1,6 km/h (1 Bft) 86,96 %
18.09.2019 16:59 12,7 C 11,7 C 53 % 1023,4 hPa 0,0 l/m 0,0 km/h (0 Bft) W-SW 247 0,000 mm 0,0 UV-I 40 W/m 3,4 C 12,7 C 1,6 km/h (1 Bft) 65,22 %
18.09.2019 16:58 12,7 C 11,7 C 55 % 1023,4 hPa 0,0 l/m 1,6 km/h (1 Bft) W-SW 247 0,000 mm 0,0 UV-I 40 W/m 3,9 C 12,7 C 4,8 km/h (1 Bft) 86,96 %
18.09.2019 16:57 12,8 C 11,7 C 58 % 1023,4 hPa 0,0 l/m 0,0 km/h (0 Bft) W-SW 247 0,000 mm 0,0 UV-I 40 W/m 4,7 C 12,8 C 1,6 km/h (1 Bft) 82,61 %
18.09.2019 16:56 12,9 C 11,7 C 55 % 1023,5 hPa 0,0 l/m 0,0 km/h (0 Bft) N 0 0,000 mm 0,0 UV-I 40 W/m 4,1 C 12,9 C 0,0 km/h (0 Bft) 82,61 %
18.09.2019 16:55 12,9 C 11,7 C 56 % 1023,5 hPa 0,0 l/m 1,6 km/h (1 Bft) W-SW 247 0,000 mm 0,0 UV-I 42 W/m 4,3 C 12,9 C 3,2 km/h (1 Bft) 73,91 %
18.09.2019 16:54 12,9 C 11,7 C 55 % 1023,5 hPa 0,0 l/m 3,2 km/h (1 Bft) W-SW 247 0,000 mm 0,0 UV-I 44 W/m 4,1 C 12,9 C 4,8 km/h (1 Bft) 65,22 %
18.09.2019 16:53 13,0 C 12,2 C 55 % 1023,4 hPa 0,0 l/m 3,2 km/h (1 Bft) W-SW 247 0,000 mm 0,0 UV-I 46 W/m 4,2 C 13,0 C 4,8 km/h (1 Bft) 95,65 %
18.09.2019 16:52 13,0 C 12,2 C 54 % 1023,5 hPa 0,0 l/m 3,2 km/h (1 Bft) W 270 0,000 mm 0,0 UV-I 47 W/m 3,9 C 13,0 C 4,8 km/h (1 Bft) 95,65 %
18.09.2019 16:51 13,0 C 12,2 C 54 % 1023,4 hPa 0,0 l/m 3,2 km/h (1 Bft) W 270 0,000 mm 0,0 UV-I 49 W/m 3,9 C 13,0 C 4,8 km/h (1 Bft) 95,65 %
18.09.2019 16:50 13,0 C 12,2 C 53 % 1023,4 hPa 0,0 l/m 1,6 km/h (1 Bft) W 270 0,000 mm 0,0 UV-I 49 W/m 3,6 C 13,0 C 4,8 km/h (1 Bft) 82,61 %
18.09.2019 16:49 13,0 C 12,2 C 53 % 1023,5 hPa 0,0 l/m 3,2 km/h (1 Bft) W-NW 292 0,000 mm 0,0 UV-I 53 W/m 3,6 C 13,0 C 4,8 km/h (1 Bft) 100,00 %
18.09.2019 16:48 13,0 C 12,2 C 53 % 1023,4 hPa 0,0 l/m 0,0 km/h (0 Bft) W-NW 292 0,000 mm 0,0 UV-I 54 W/m 3,6 C 13,0 C 3,2 km/h (1 Bft) 100,00 %
18.09.2019 16:47 13,0 C 12,2 C 53 % 1023,5 hPa 0,0 l/m 1,6 km/h (1 Bft) W-NW 292 0,000 mm 0,0 UV-I 54 W/m 3,6 C 13,0 C 3,2 km/h (1 Bft) 95,65 %
18.09.2019 16:46 13,0 C 12,2 C 54 % 1023,5 hPa 0,0 l/m 0,0 km/h (0 Bft) W-NW 292 0,000 mm 0,6 UV-I 56 W/m 3,9 C 13,0 C 1,6 km/h (1 Bft) 86,96 %
18.09.2019 16:45 13,0 C 12,2 C 52 % 1023,5 hPa 0,0 l/m 1,6 km/h (1 Bft) W-NW 292 0,000 mm 0,6 UV-I 56 W/m 3,4 C 13,0 C 3,2 km/h (1 Bft) 82,61 %
18.09.2019 16:44 13,0 C 12,2 C 52 % 1023,5 hPa 0,0 l/m 1,6 km/h (1 Bft) W-NW 292 0,000 mm 0,6 UV-I 58 W/m 3,4 C 13,0 C 3,2 km/h (1 Bft) 95,65 %
18.09.2019 16:43 12,9 C 12,2 C 52 % 1023,5 hPa 0,0 l/m 1,6 km/h (1 Bft) W-NW 292 0,000 mm 0,6 UV-I 60 W/m 3,3 C 12,9 C 3,2 km/h (1 Bft) 95,65 %
18.09.2019 16:42 13,0 C 12,2 C 54 % 1023,5 hPa 0,0 l/m 1,6 km/h (1 Bft) W-NW 292 0,000 mm 0,6 UV-I 60 W/m 3,9 C 13,0 C 3,2 km/h (1 Bft) 47,83 %
18.09.2019 16:41 13,0 C 12,2 C 50 % 1023,5 hPa 0,0 l/m 1,6 km/h (1 Bft) W-NW 292 0,000 mm 0,6 UV-I 60 W/m 2,8 C 13,0 C 3,2 km/h (1 Bft) 100,00 %
18.09.2019 16:40 13,0 C 12,2 C 51 % 1023,5 hPa 0,0 l/m 1,6 km/h (1 Bft) N 360 0,000 mm 0,6 UV-I 60 W/m 3,1 C 13,0 C 3,2 km/h (1 Bft) 73,91 %
18.09.2019 16:39 13,0 C 12,2 C 49 % 1023,5 hPa 0,0 l/m 1,6 km/h (1 Bft) N 360 0,000 mm 0,6 UV-I 60 W/m 2,5 C 13,0 C 3,2 km/h (1 Bft) 78,26 %
18.09.2019 16:38 12,9 C 12,2 C 51 % 1023,5 hPa 0,0 l/m 0,0 km/h (0 Bft) W-NW 292 0,000 mm 0,6 UV-I 60 W/m 3,0 C 12,9 C 1,6 km/h (1 Bft) 91,30 %
18.09.2019 16:37 12,9 C 12,2 C 50 % 1023,5 hPa 0,0 l/m 3,2 km/h (1 Bft) W-NW 292 0,000 mm 0,6 UV-I 60 W/m 2,7 C 12,9 C 4,8 km/h (1 Bft) 95,65 %
18.09.2019 16:36 12,9 C 12,2 C 50 % 1023,5 hPa 0,0 l/m 1,6 km/h (1 Bft) NW 315 0,000 mm 0,6 UV-I 58 W/m 2,7 C 12,9 C 3,2 km/h (1 Bft) 95,65 %
18.09.2019 16:35 12,9 C 12,2 C 51 % 1023,5 hPa 0,0 l/m 0,0 km/h (0 Bft) NW 315 0,000 mm 0,7 UV-I 56 W/m 3,0 C 12,9 C 1,6 km/h (1 Bft) 82,61 %
18.09.2019 16:34 13,0 C 12,2 C 51 % 1023,5 hPa 0,0 l/m 0,0 km/h (0 Bft) NW 315 0,000 mm 0,7 UV-I 56 W/m 3,1 C 13,0 C 1,6 km/h (1 Bft) 91,30 %
18.09.2019 16:33 13,1 C 12,2 C 48 % 1023,5 hPa 0,0 l/m 1,6 km/h (1 Bft) NW 315 0,000 mm 0,0 UV-I 54 W/m 2,3 C 13,1 C 6,4 km/h (2 Bft) 95,65 %
18.09.2019 16:32 13,1 C 12,2 C 47 % 1023,5 hPa 0,0 l/m 1,6 km/h (1 Bft) W 270 0,000 mm 0,0 UV-I 54 W/m 2,0 C 13,1 C 4,8 km/h (1 Bft) 95,65 %
18.09.2019 16:31 13,0 C 12,2 C 48 % 1023,6 hPa 0,0 l/m 1,6 km/h (1 Bft) W 270 0,000 mm 0,0 UV-I 53 W/m 2,3 C 13,0 C 3,2 km/h (1 Bft) 91,30 %
18.09.2019 16:30 13,1 C 12,2 C 49 % 1023,5 hPa 0,0 l/m 0,0 km/h (0 Bft) N 0 0,000 mm 0,0 UV-I 53 W/m 2,6 C 13,1 C 0,0 km/h (0 Bft) 69,57 %
18.09.2019 16:29 13,2 C 12,2 C 52 % 1023,5 hPa 0,0 l/m 0,0 km/h (0 Bft) N 0 0,000 mm 0,0 UV-I 51 W/m 3,6 C 13,2 C 0,0 km/h (0 Bft) 86,96 %
18.09.2019 16:28 13,2 C 12,2 C 54 % 1023,5 hPa 0,0 l/m 1,6 km/h (1 Bft) W 270 0,000 mm 0,0 UV-I 51 W/m 4,1 C 13,2 C 3,2 km/h (1 Bft) 65,22 %
18.09.2019 16:27 13,3 C 12,2 C 49 % 1023,6 hPa 0,0 l/m 1,6 km/h (1 Bft) W 270 0,000 mm 0,0 UV-I 49 W/m 2,8 C 13,3 C 3,2 km/h (1 Bft) 82,61 %
18.09.2019 16:26 13,4 C 12,2 C 49 % 1023,6 hPa 0,0 l/m 1,6 km/h (1 Bft) W 270 0,000 mm 0,0 UV-I 49 W/m 2,9 C 13,4 C 4,8 km/h (1 Bft) 91,30 %
18.09.2019 16:25 13,4 C 12,2 C 50 % 1023,6 hPa 0,0 l/m 0,0 km/h (0 Bft) W 270 0,000 mm 0,0 UV-I 47 W/m 3,2 C 13,4 C 3,2 km/h (1 Bft) 91,30 %
18.09.2019 16:24 13,3 C 12,8 C 48 % 1023,6 hPa 0,0 l/m 0,0 km/h (0 Bft) W 270 0,000 mm 0,0 UV-I 47 W/m 2,5 C 13,3 C 1,6 km/h (1 Bft) 69,57 %
18.09.2019 16:23 13,2 C 12,8 C 48 % 1023,6 hPa 0,0 l/m 1,6 km/h (1 Bft) W 270 0,000 mm 0,0 UV-I 47 W/m 2,4 C 13,2 C 4,8 km/h (1 Bft) 91,30 %
18.09.2019 16:22 13,1 C 12,8 C 51 % 1023,6 hPa 0,0 l/m 1,6 km/h (1 Bft) W 270 0,000 mm 0,0 UV-I 46 W/m 3,2 C 13,1 C 4,8 km/h (1 Bft) 86,96 %
18.09.2019 16:21 13,1 C 12,8 C 52 % 1023,6 hPa 0,0 l/m 0,0 km/h (0 Bft) W 270 0,000 mm 0,0 UV-I 46 W/m 3,5 C 13,1 C 1,6 km/h (1 Bft) 73,91 %
18.09.2019 16:20 13,1 C 12,8 C 55 % 1023,6 hPa 0,0 l/m 0,0 km/h (0 Bft) W 270 0,000 mm 0,0 UV-I 46 W/m 4,3 C 13,1 C 1,6 km/h (1 Bft) 69,57 %
18.09.2019 16:19 13,1 C 12,8 C 57 % 1023,6 hPa 0,0 l/m 0,0 km/h (0 Bft) N 0 0,000 mm 0,0 UV-I 46 W/m 4,8 C 13,1 C 0,0 km/h (0 Bft) 86,96 %
18.09.2019 16:18 13,2 C 12,8 C 57 % 1023,5 hPa 0,0 l/m 0,0 km/h (0 Bft) W 270 0,000 mm 0,0 UV-I 46 W/m 4,9 C 13,2 C 1,6 km/h (1 Bft) 82,61 %
18.09.2019 16:17 13,2 C 12,8 C 52 % 1023,6 hPa 0,0 l/m 0,0 km/h (0 Bft) W 270 0,000 mm 0,0 UV-I 47 W/m 3,6 C 13,2 C 1,6 km/h (1 Bft) 73,91 %
18.09.2019 16:16 13,3 C 12,8 C 51 % 1023,5 hPa 0,0 l/m 0,0 km/h (0 Bft) N 0 0,000 mm 0,0 UV-I 47 W/m 3,4 C 13,3 C 0,0 km/h (0 Bft) 95,65 %
18.09.2019 16:15 13,4 C 12,8 C 51 % 1023,6 hPa 0,0 l/m 1,6 km/h (1 Bft) W 270 0,000 mm 0,0 UV-I 47 W/m 3,5 C 13,4 C 4,8 km/h (1 Bft) 78,26 %
18.09.2019 16:14 13,4 C 12,8 C 49 % 1023,5 hPa 0,0 l/m 0,0 km/h (0 Bft) W 270 0,000 mm 0,0 UV-I 47 W/m 2,9 C 13,4 C 1,6 km/h (1 Bft) 78,26 %
18.09.2019 16:13 13,4 C 13,3 C 48 % 1023,6 hPa 0,0 l/m 0,0 km/h (0 Bft) W 270 0,000 mm 0,0 UV-I 47 W/m 2,6 C 13,4 C 1,6 km/h (1 Bft) 91,30 %
18.09.2019 16:12 13,4 C 13,3 C 51 % 1023,6 hPa 0,0 l/m 0,0 km/h (0 Bft) W 270 0,000 mm 0,0 UV-I 47 W/m 3,5 C 13,4 C 1,6 km/h (1 Bft) 78,26 %
18.09.2019 16:11 13,6 C 13,3 C 49 % 1023,6 hPa 0,0 l/m 1,6 km/h (1 Bft) W 270 0,000 mm 0,0 UV-I 47 W/m 3,1 C 13,6 C 1,6 km/h (1 Bft) 69,57 %
18.09.2019 16:10 13,6 C 13,3 C 48 % 1023,6 hPa 0,0 l/m 0,0 km/h (0 Bft) W 270 0,000 mm 0,0 UV-I 49 W/m 2,8 C 13,6 C 1,6 km/h (1 Bft) 39,13 %
18.09.2019 16:09 13,7 C 13,3 C 48 % 1023,6 hPa 0,0 l/m 1,6 km/h (1 Bft) W 270 0,000 mm 0,0 UV-I 49 W/m 2,9 C 13,7 C 4,8 km/h (1 Bft) 82,61 %
18.09.2019 16:08 13,7 C 13,3 C 49 % 1023,6 hPa 0,0 l/m 3,2 km/h (1 Bft) W 270 0,000 mm 0,0 UV-I 49 W/m 3,2 C 13,7 C 4,8 km/h (1 Bft) 60,87 %
18.09.2019 16:07 13,8 C 13,3 C 49 % 1023,6 hPa 0,0 l/m 4,8 km/h (1 Bft) W-NW 292 0,000 mm 0,0 UV-I 492 W/m 3,3 C 13,8 C 4,8 km/h (1 Bft) 95,65 %
18.09.2019 16:06 13,8 C 13,3 C 49 % 1023,6 hPa 0,0 l/m 3,2 km/h (1 Bft) NW 315 0,000 mm 1,2 UV-I 492 W/m 3,3 C 13,8 C 8,0 km/h (2 Bft) 95,65 %
18.09.2019 16:05 13,8 C 13,3 C 50 % 1023,6 hPa 0,0 l/m 3,2 km/h (1 Bft) W-SW 247 0,000 mm 1,5 UV-I 492 W/m 3,6 C 13,8 C 4,8 km/h (1 Bft) 95,65 %
18.09.2019 16:04 13,8 C 13,9 C 47 % 1023,5 hPa 0,0 l/m 1,6 km/h (1 Bft) W-SW 247 0,000 mm 1,6 UV-I 492 W/m 2,7 C 13,8 C 3,2 km/h (1 Bft) 95,65 %
18.09.2019 16:03 13,8 C 13,9 C 47 % 1023,6 hPa 0,0 l/m 1,6 km/h (1 Bft) W-SW 247 0,000 mm 1,6 UV-I 494 W/m 2,7 C 13,8 C 4,8 km/h (1 Bft) 91,30 %
18.09.2019 16:02 13,8 C 13,9 C 45 % 1023,6 hPa 0,0 l/m 1,6 km/h (1 Bft) N 360 0,000 mm 1,6 UV-I 497 W/m 2,1 C 13,8 C 4,8 km/h (1 Bft) 86,96 %
18.09.2019 16:01 13,9 C 13,9 C 48 % 1023,6 hPa 0,0 l/m 1,6 km/h (1 Bft) N 360 0,000 mm 1,6 UV-I 499 W/m 3,1 C 13,9 C 3,2 km/h (1 Bft) 73,91 %
18.09.2019 16:00 13,9 C 13,9 C 50 % 1023,5 hPa 0,0 l/m 1,6 km/h (1 Bft) N 360 0,305 mm 1,6 UV-I 499 W/m 3,7 C 13,9 C 3,2 km/h (1 Bft) 56,52 %
18.09.2019 15:59 13,8 C 14,4 C 50 % 1023,5 hPa 0,0 l/m 4,8 km/h (1 Bft) N 360 0,000 mm 1,6 UV-I 501 W/m 3,6 C 13,8 C 9,7 km/h (2 Bft) 82,61 %
18.09.2019 15:58 13,9 C 14,4 C 51 % 1023,5 hPa 0,0 l/m 6,4 km/h (2 Bft) N 360 0,000 mm 1,7 UV-I 501 W/m 3,9 C 13,9 C 9,7 km/h (2 Bft) 78,26 %
18.09.2019 15:57 13,9 C 14,4 C 51 % 1023,6 hPa 0,0 l/m 1,6 km/h (1 Bft) N 360 0,000 mm 1,7 UV-I 504 W/m 3,9 C 13,9 C 6,4 km/h (2 Bft) 82,61 %
18.09.2019 15:56 13,9 C 14,4 C 47 % 1023,5 hPa 0,0 l/m 1,6 km/h (1 Bft) N 360 0,000 mm 1,7 UV-I 508 W/m 2,8 C 13,9 C 3,2 km/h (1 Bft) 78,26 %
18.09.2019 15:55 13,9 C 15,0 C 52 % 1023,5 hPa 0,0 l/m 3,2 km/h (1 Bft) N 360 0,000 mm 1,7 UV-I 508 W/m 4,2 C 13,9 C 6,4 km/h (2 Bft) 86,96 %
18.09.2019 15:54 13,9 C 15,0 C 52 % 1023,6 hPa 0,0 l/m 6,4 km/h (2 Bft) N 360 0,000 mm 1,7 UV-I 510 W/m 4,2 C 13,9 C 8,0 km/h (2 Bft) 91,30 %
18.09.2019 15:53 14,0 C 15,0 C 49 % 1023,5 hPa 0,0 l/m 1,6 km/h (1 Bft) N 360 0,000 mm 1,7 UV-I 512 W/m 3,5 C 14,0 C 3,2 km/h (1 Bft) 69,57 %
18.09.2019 15:52 14,0 C 15,6 C 50 % 1023,5 hPa 0,0 l/m 0,0 km/h (0 Bft) N 360 0,000 mm 1,8 UV-I 515 W/m 3,7 C 14,0 C 1,6 km/h (1 Bft) 82,61 %
18.09.2019 15:51 14,0 C 15,6 C 49 % 1023,6 hPa 0,0 l/m 0,0 km/h (0 Bft) N 360 0,000 mm 1,8 UV-I 519 W/m 3,5 C 14,0 C 1,6 km/h (1 Bft) 78,26 %
18.09.2019 15:50 14,0 C 15,6 C 52 % 1023,5 hPa 0,0 l/m 1,6 km/h (1 Bft) N 360 0,000 mm 1,8 UV-I 522 W/m 4,3 C 14,0 C 3,2 km/h (1 Bft) 86,96 %
18.09.2019 15:49 14,0 C 15,6 C 53 % 1023,6 hPa 0,0 l/m 3,2 km/h (1 Bft) N 360 0,000 mm 1,8 UV-I 503 W/m 4,6 C 14,0 C 4,8 km/h (1 Bft) 86,96 %
18.09.2019 15:48 14,1 C 15,6 C 48 % 1023,6 hPa 0,0 l/m 6,4 km/h (2 Bft) N 360 0,000 mm 1,8 UV-I 527 W/m 3,3 C 14,1 C 11,3 km/h (2 Bft) 86,96 %
18.09.2019 15:47 14,2 C 15,6 C 46 % 1023,6 hPa 0,0 l/m 3,2 km/h (1 Bft) N-NO 22 0,000 mm 1,8 UV-I 527 W/m 2,8 C 14,2 C 4,8 km/h (1 Bft) 78,26 %
18.09.2019 15:46 14,3 C 15,6 C 49 % 1023,5 hPa 0,0 l/m 4,8 km/h (1 Bft) NO 45 0,000 mm 1,9 UV-I 533 W/m 3,7 C 14,3 C 8,0 km/h (2 Bft) 95,65 %
18.09.2019 15:45 14,3 C 15,6 C 50 % 1023,5 hPa 0,0 l/m 1,6 km/h (1 Bft) N-NW 337 0,000 mm 1,9 UV-I 534 W/m 4,0 C 14,3 C 6,4 km/h (2 Bft) 86,96 %
18.09.2019 15:44 14,3 C 15,6 C 48 % 1023,5 hPa 0,0 l/m 1,6 km/h (1 Bft) N-NW 337 0,000 mm 1,9 UV-I 541 W/m 3,4 C 14,3 C 3,2 km/h (1 Bft) 100,00 %
18.09.2019 15:43 14,4 C 15,6 C 48 % 1023,5 hPa 0,0 l/m 1,6 km/h (1 Bft) N 360 0,000 mm 1,9 UV-I 543 W/m 3,5 C 14,4 C 4,8 km/h (1 Bft) 86,96 %
18.09.2019 15:42 14,6 C 15,6 C 52 % 1023,5 hPa 0,0 l/m 1,6 km/h (1 Bft) W 270 0,000 mm 1,9 UV-I 543 W/m 4,9 C 14,6 C 3,2 km/h (1 Bft) 91,30 %
18.09.2019 15:41 14,7 C 15,6 C 48 % 1023,5 hPa 0,0 l/m 0,0 km/h (0 Bft) W 270 0,000 mm 2,0 UV-I 547 W/m 3,8 C 14,7 C 1,6 km/h (1 Bft) 78,26 %
18.09.2019 15:40 14,8 C 15,6 C 52 % 1023,5 hPa 0,0 l/m 1,6 km/h (1 Bft) W 270 0,000 mm 2,0 UV-I 547 W/m 5,0 C 14,8 C 3,2 km/h (1 Bft) 86,96 %
18.09.2019 15:39 14,8 C 15,6 C 46 % 1023,5 hPa 0,0 l/m 1,6 km/h (1 Bft) W 270 0,000 mm 2,0 UV-I 548 W/m 3,3 C 14,8 C 3,2 km/h (1 Bft) 100,00 %
18.09.2019 15:38 14,7 C 15,6 C 49 % 1023,5 hPa 0,0 l/m 0,0 km/h (0 Bft) W 270 0,000 mm 2,0 UV-I 554 W/m 4,1 C 14,7 C 1,6 km/h (1 Bft) 91,30 %
18.09.2019 15:37 14,6 C 15,6 C 47 % 1023,5 hPa 0,0 l/m 0,0 km/h (0 Bft) W 270 0,000 mm 2,0 UV-I 557 W/m 3,4 C 14,6 C 1,6 km/h (1 Bft) 95,65 %
18.09.2019 15:36 14,6 C 15,6 C 51 % 1023,6 hPa 0,0 l/m 1,6 km/h (1 Bft) W 270 0,000 mm 2,0 UV-I 559 W/m 4,6 C 14,6 C 3,2 km/h (1 Bft) 95,65 %
18.09.2019 15:35 14,6 C 15,6 C 49 % 1023,6 hPa 0,0 l/m 1,6 km/h (1 Bft) W 270 0,000 mm 2,1 UV-I 557 W/m 4,0 C 14,6 C 4,8 km/h (1 Bft) 78,26 %
18.09.2019 15:34 14,6 C 15,6 C 47 % 1023,5 hPa 0,0 l/m 0,0 km/h (0 Bft) N 0 0,000 mm 2,1 UV-I 563 W/m 3,4 C 14,6 C 0,0 km/h (0 Bft) 69,57 %
18.09.2019 15:33 14,7 C 15,6 C 46 % 1023,6 hPa 0,0 l/m 1,6 km/h (1 Bft) W-SW 247 0,000 mm 2,1 UV-I 564 W/m 3,2 C 14,7 C 3,2 km/h (1 Bft) 86,96 %
18.09.2019 15:32 14,8 C 15,6 C 48 % 1023,6 hPa 0,0 l/m 1,6 km/h (1 Bft) W-SW 247 0,000 mm 2,1 UV-I 568 W/m 3,9 C 14,8 C 3,2 km/h (1 Bft) 91,30 %
18.09.2019 15:31 14,8 C 15,6 C 48 % 1023,6 hPa 0,0 l/m 3,2 km/h (1 Bft) W-SW 247 0,000 mm 2,1 UV-I 570 W/m 3,9 C 14,8 C 4,8 km/h (1 Bft) 100,00 %
18.09.2019 15:30 14,8 C 16,1 C 46 % 1023,6 hPa 0,0 l/m 1,6 km/h (1 Bft) W 270 0,000 mm 2,1 UV-I 571 W/m 3,3 C 14,8 C 3,2 km/h (1 Bft) 78,26 %
18.09.2019 15:29 14,8 C 16,1 C 51 % 1023,6 hPa 0,0 l/m 1,6 km/h (1 Bft) W 270 0,000 mm 2,2 UV-I 575 W/m 4,8 C 14,8 C 3,2 km/h (1 Bft) 100,00 %
18.09.2019 15:28 14,7 C 16,1 C 51 % 1023,6 hPa 0,0 l/m 1,6 km/h (1 Bft) W 270 0,000 mm 2,2 UV-I 577 W/m 4,7 C 14,7 C 3,2 km/h (1 Bft) 86,96 %
18.09.2019 15:27 14,8 C 16,1 C 51 % 1023,5 hPa 0,0 l/m 3,2 km/h (1 Bft) W 270 0,000 mm 2,2 UV-I 578 W/m 4,8 C 14,8 C 6,4 km/h (2 Bft) 86,96 %
18.09.2019 15:26 14,8 C 16,1 C 48 % 1023,6 hPa 0,0 l/m 1,6 km/h (1 Bft) W 270 0,000 mm 2,2 UV-I 578 W/m 3,9 C 14,8 C 1,6 km/h (1 Bft) 78,26 %
18.09.2019 15:25 14,9 C 16,1 C 52 % 1023,6 hPa 0,0 l/m 1,6 km/h (1 Bft) W 270 0,000 mm 2,2 UV-I 582 W/m 5,1 C 14,9 C 4,8 km/h (1 Bft) 91,30 %
18.09.2019 15:24 14,9 C 16,1 C 42 % 1023,6 hPa 0,0 l/m 3,2 km/h (1 Bft) W 270 0,000 mm 2,2 UV-I 584 W/m 2,1 C 14,9 C 4,8 km/h (1 Bft) 86,96 %
18.09.2019 15:23 15,0 C 16,1 C 46 % 1023,7 hPa 0,0 l/m 1,6 km/h (1 Bft) W 270 0,000 mm 2,2 UV-I 584 W/m 3,5 C 15,0 C 4,8 km/h (1 Bft) 100,00 %
18.09.2019 15:22 15,1 C 16,1 C 51 % 1023,7 hPa 0,0 l/m 1,6 km/h (1 Bft) W 270 0,000 mm 2,3 UV-I 585 W/m 5,0 C 15,1 C 3,2 km/h (1 Bft) 82,61 %
18.09.2019 15:21 15,2 C 16,1 C 48 % 1023,7 hPa 0,0 l/m 3,2 km/h (1 Bft) W 270 0,000 mm 2,3 UV-I 589 W/m 4,3 C 15,2 C 4,8 km/h (1 Bft) 91,30 %
18.09.2019 15:20 15,3 C 16,1 C 48 % 1023,6 hPa 0,0 l/m 1,6 km/h (1 Bft) W 270 0,000 mm 2,3 UV-I 592 W/m 4,4 C 15,3 C 3,2 km/h (1 Bft) 65,22 %
18.09.2019 15:19 15,3 C 16,1 C 55 % 1023,6 hPa 0,0 l/m 1,6 km/h (1 Bft) W 270 0,000 mm 2,3 UV-I 592 W/m 6,3 C 15,3 C 4,8 km/h (1 Bft) 73,91 %
18.09.2019 15:18 15,2 C 16,1 C 51 % 1023,7 hPa 0,0 l/m 1,6 km/h (1 Bft) W 270 0,000 mm 2,3 UV-I 596 W/m 5,1 C 15,2 C 3,2 km/h (1 Bft) 78,26 %
18.09.2019 15:17 15,2 C 16,1 C 55 % 1023,7 hPa 0,0 l/m 1,6 km/h (1 Bft) W 270 0,000 mm 2,3 UV-I 596 W/m 6,2 C 15,2 C 3,2 km/h (1 Bft) 91,30 %
18.09.2019 15:16 15,0 C 16,1 C 52 % 1023,7 hPa 0,0 l/m 3,2 km/h (1 Bft) W 270 0,000 mm 2,4 UV-I 599 W/m 5,2 C 15,0 C 4,8 km/h (1 Bft) 100,00 %
18.09.2019 15:15 14,8 C 16,7 C 50 % 1023,6 hPa 0,0 l/m 1,6 km/h (1 Bft) SW 225 0,000 mm 2,4 UV-I 605 W/m 4,5 C 14,8 C 4,8 km/h (1 Bft) 95,65 %
18.09.2019 15:14 14,9 C 16,7 C 47 % 1023,6 hPa 0,0 l/m 3,2 km/h (1 Bft) SW 225 0,000 mm 2,4 UV-I 605 W/m 3,7 C 14,9 C 3,2 km/h (1 Bft) 86,96 %
18.09.2019 15:13 15,1 C 16,1 C 47 % 1023,6 hPa 0,0 l/m 1,6 km/h (1 Bft) SW 225 0,000 mm 2,4 UV-I 606 W/m 3,9 C 15,1 C 3,2 km/h (1 Bft) 91,30 %
18.09.2019 15:12 15,2 C 16,1 C 49 % 1023,6 hPa 0,0 l/m 0,0 km/h (0 Bft) SW 225 0,000 mm 2,4 UV-I 610 W/m 4,6 C 15,2 C 1,6 km/h (1 Bft) 86,96 %
18.09.2019 15:11 15,3 C 16,1 C 49 % 1023,7 hPa 0,0 l/m 1,6 km/h (1 Bft) SW 225 0,000 mm 2,4 UV-I 612 W/m 4,7 C 15,3 C 3,2 km/h (1 Bft) 91,30 %
18.09.2019 15:10 15,3 C 16,1 C 55 % 1023,7 hPa 0,0 l/m 1,6 km/h (1 Bft) SW 225 0,000 mm 2,5 UV-I 612 W/m 6,3 C 15,3 C 3,2 km/h (1 Bft) 78,26 %
18.09.2019 15:09 15,3 C 16,7 C 57 % 1023,7 hPa 0,0 l/m 3,2 km/h (1 Bft) W-SW 247 0,000 mm 2,5 UV-I 612 W/m 6,8 C 15,3 C 4,8 km/h (1 Bft) 95,65 %
18.09.2019 15:08 15,2 C 16,7 C 50 % 1023,6 hPa 0,0 l/m 4,8 km/h (1 Bft) W-SW 247 0,000 mm 2,5 UV-I 617 W/m 4,8 C 15,2 C 6,4 km/h (2 Bft) 86,96 %
18.09.2019 15:07 15,2 C 16,7 C 58 % 1023,6 hPa 0,0 l/m 1,6 km/h (1 Bft) S-SW 202 0,000 mm 2,5 UV-I 615 W/m 7,0 C 15,2 C 6,4 km/h (2 Bft) 95,65 %
18.09.2019 15:06 15,2 C 16,7 C 48 % 1023,6 hPa 0,0 l/m 1,6 km/h (1 Bft) S-SW 202 0,000 mm 2,5 UV-I 619 W/m 4,3 C 15,2 C 4,8 km/h (1 Bft) 95,65 %
18.09.2019 15:05 15,4 C 16,7 C 51 % 1023,6 hPa 0,0 l/m 1,6 km/h (1 Bft) S-SW 202 0,000 mm 2,5 UV-I 619 W/m 5,3 C 15,4 C 3,2 km/h (1 Bft) 91,30 %
18.09.2019 15:04 15,4 C 16,7 C 53 % 1023,6 hPa 0,0 l/m 1,6 km/h (1 Bft) S-SW 202 0,000 mm 2,6 UV-I 622 W/m 5,9 C 15,4 C 3,2 km/h (1 Bft) 91,30 %
18.09.2019 15:03 15,4 C 16,7 C 56 % 1023,6 hPa 0,0 l/m 1,6 km/h (1 Bft) S-SW 202 0,000 mm 2,6 UV-I 624 W/m 6,7 C 15,4 C 1,6 km/h (1 Bft) 100,00 %
18.09.2019 15:02 15,4 C 16,7 C 56 % 1023,6 hPa 0,0 l/m 1,6 km/h (1 Bft) W-NW 292 0,000 mm 2,6 UV-I 622 W/m 6,7 C 15,4 C 3,2 km/h (1 Bft) 86,96 %
18.09.2019 15:01 15,3 C 16,7 C 57 % 1023,8 hPa 0,0 l/m 0,0 km/h (0 Bft) W-SW 247 0,000 mm 2,6 UV-I 626 W/m 6,8 C 15,3 C 1,6 km/h (1 Bft) 86,96 %
18.09.2019 15:00 15,3 C 16,7 C 56 % 1023,8 hPa 0,0 l/m 1,6 km/h (1 Bft) W-SW 247 0,356 mm 2,6 UV-I 629 W/m 6,6 C 15,3 C 3,2 km/h (1 Bft) 100,00 %
18.09.2019 14:59 15,2 C 16,7 C 52 % 1023,8 hPa 0,0 l/m 1,6 km/h (1 Bft) S-SW 202 0,000 mm 2,6 UV-I 631 W/m 5,4 C 15,2 C 4,8 km/h (1 Bft) 95,65 %
18.09.2019 14:58 15,4 C 16,7 C 53 % 1023,7 hPa 0,0 l/m 1,6 km/h (1 Bft) NO 45 0,000 mm 2,6 UV-I 629 W/m 5,9 C 15,4 C 3,2 km/h (1 Bft) 86,96 %
18.09.2019 14:57 15,4 C 16,7 C 57 % 1023,8 hPa 0,0 l/m 0,0 km/h (0 Bft) NO 45 0,000 mm 2,7 UV-I 633 W/m 6,9 C 15,4 C 1,6 km/h (1 Bft) 73,91 %
18.09.2019 14:56 15,3 C 16,7 C 56 % 1023,8 hPa 0,0 l/m 1,6 km/h (1 Bft) NO 45 0,000 mm 2,7 UV-I 640 W/m 6,6 C 15,3 C 4,8 km/h (1 Bft) 95,65 %
18.09.2019 14:55 15,2 C 16,7 C 55 % 1023,8 hPa 0,0 l/m 1,6 km/h (1 Bft) NW 315 0,000 mm 2,7 UV-I 642 W/m 6,2 C 15,2 C 3,2 km/h (1 Bft) 86,96 %
18.09.2019 14:54 15,3 C 16,7 C 57 % 1023,8 hPa 0,0 l/m 1,6 km/h (1 Bft) N-NW 337 0,000 mm 2,7 UV-I 642 W/m 6,8 C 15,3 C 4,8 km/h (1 Bft) 91,30 %
18.09.2019 14:53 15,2 C 16,7 C 52 % 1023,8 hPa 0,0 l/m 3,2 km/h (1 Bft) W-SW 247 0,000 mm 2,7 UV-I 642 W/m 5,4 C 15,2 C 4,8 km/h (1 Bft) 100,00 %
18.09.2019 14:52 15,3 C 16,7 C 54 % 1023,8 hPa 0,0 l/m 4,8 km/h (1 Bft) W-SW 247 0,000 mm 2,8 UV-I 642 W/m 6,0 C 15,3 C 4,8 km/h (1 Bft) 82,61 %
18.09.2019 14:51 15,4 C 16,7 C 55 % 1023,8 hPa 0,0 l/m 4,8 km/h (1 Bft) W-SW 247 0,000 mm 2,8 UV-I 645 W/m 6,4 C 15,4 C 4,8 km/h (1 Bft) 52,17 %
18.09.2019 14:50 15,4 C 16,7 C 52 % 1023,8 hPa 0,0 l/m 4,8 km/h (1 Bft) W 270 0,000 mm 2,8 UV-I 647 W/m 5,6 C 15,4 C 6,4 km/h (2 Bft) 82,61 %
18.09.2019 14:49 15,5 C 16,7 C 54 % 1023,8 hPa 0,0 l/m 1,6 km/h (1 Bft) W 270 0,000 mm 2,8 UV-I 649 W/m 6,2 C 15,5 C 4,8 km/h (1 Bft) 82,61 %
18.09.2019 14:48 15,5 C 16,7 C 54 % 1023,7 hPa 0,0 l/m 0,0 km/h (0 Bft) N 0 0,000 mm 2,8 UV-I 650 W/m 6,2 C 15,5 C 0,0 km/h (0 Bft) 95,65 %
18.09.2019 14:47 15,4 C 16,7 C 57 % 1023,7 hPa 0,0 l/m 1,6 km/h (1 Bft) W 270 0,000 mm 2,8 UV-I 652 W/m 6,9 C 15,4 C 3,2 km/h (1 Bft) 100,00 %
18.09.2019 14:46 15,2 C 16,7 C 61 % 1023,7 hPa 0,0 l/m 0,0 km/h (0 Bft) W 270 0,000 mm 2,9 UV-I 657 W/m 7,7 C 15,2 C 1,6 km/h (1 Bft) 82,61 %
18.09.2019 14:45 15,0 C 16,7 C 57 % 1023,7 hPa 0,0 l/m 0,0 km/h (0 Bft) W 270 0,000 mm 2,9 UV-I 657 W/m 6,6 C 15,0 C 1,6 km/h (1 Bft) 73,91 %
18.09.2019 14:44 15,1 C 16,7 C 55 % 1023,7 hPa 0,0 l/m 1,6 km/h (1 Bft) W 270 0,000 mm 2,9 UV-I 659 W/m 6,1 C 15,1 C 4,8 km/h (1 Bft) 69,57 %
18.09.2019 14:43 15,1 C 16,7 C 57 % 1023,7 hPa 0,0 l/m 3,2 km/h (1 Bft) W 270 0,000 mm 2,9 UV-I 661 W/m 6,6 C 15,1 C 6,4 km/h (2 Bft) 82,61 %
18.09.2019 14:42 15,1 C 16,7 C 53 % 1023,7 hPa 0,0 l/m 1,6 km/h (1 Bft) W 270 0,000 mm 2,9 UV-I 661 W/m 5,6 C 15,1 C 3,2 km/h (1 Bft) 100,00 %
18.09.2019 14:41 15,1 C 16,7 C 57 % 1023,8 hPa 0,0 l/m 3,2 km/h (1 Bft) W 270 0,000 mm 2,9 UV-I 663 W/m 6,6 C 15,1 C 4,8 km/h (1 Bft) 100,00 %
18.09.2019 14:40 15,1 C 16,7 C 57 % 1023,7 hPa 0,0 l/m 1,6 km/h (1 Bft) W 270 0,000 mm 3,0 UV-I 664 W/m 6,6 C 15,1 C 4,8 km/h (1 Bft) 82,61 %
18.09.2019 14:39 15,1 C 16,7 C 58 % 1023,7 hPa 0,0 l/m 0,0 km/h (0 Bft) W 270 0,000 mm 3,0 UV-I 666 W/m 6,9 C 15,1 C 3,2 km/h (1 Bft) 86,96 %
18.09.2019 14:38 15,1 C 16,7 C 57 % 1023,7 hPa 0,0 l/m 1,6 km/h (1 Bft) W 270 0,000 mm 3,0 UV-I 671 W/m 6,6 C 15,1 C 1,6 km/h (1 Bft) 86,96 %
18.09.2019 14:37 15,1 C 16,7 C 55 % 1023,7 hPa 0,0 l/m 1,6 km/h (1 Bft) W 270 0,000 mm 3,0 UV-I 673 W/m 6,1 C 15,1 C 3,2 km/h (1 Bft) 91,30 %
18.09.2019 14:36 15,1 C 16,7 C 55 % 1023,7 hPa 0,0 l/m 1,6 km/h (1 Bft) W 270 0,000 mm 3,0 UV-I 675 W/m 6,1 C 15,1 C 4,8 km/h (1 Bft) 91,30 %
18.09.2019 14:35 15,1 C 16,7 C 55 % 1023,7 hPa 0,0 l/m 1,6 km/h (1 Bft) W 270 0,000 mm 3,0 UV-I 677 W/m 6,1 C 15,1 C 4,8 km/h (1 Bft) 86,96 %
18.09.2019 14:34 15,1 C 16,7 C 54 % 1023,8 hPa 0,0 l/m 3,2 km/h (1 Bft) W 270 0,000 mm 3,1 UV-I 682 W/m 5,9 C 15,1 C 3,2 km/h (1 Bft) 95,65 %
18.09.2019 14:33 15,1 C 16,7 C 53 % 1023,9 hPa 0,0 l/m 0,0 km/h (0 Bft) W 270 0,000 mm 3,1 UV-I 682 W/m 5,6 C 15,1 C 1,6 km/h (1 Bft) 95,65 %
18.09.2019 14:32 15,2 C 16,7 C 58 % 1023,8 hPa 0,0 l/m 1,6 km/h (1 Bft) W 270 0,000 mm 3,1 UV-I 682 W/m 7,0 C 15,2 C 3,2 km/h (1 Bft) 91,30 %
18.09.2019 14:31 15,3 C 16,7 C 57 % 1023,9 hPa 0,0 l/m 1,6 km/h (1 Bft) W 270 0,000 mm 3,1 UV-I 682 W/m 6,8 C 15,3 C 3,2 km/h (1 Bft) 73,91 %
18.09.2019 14:30 15,4 C 16,7 C 58 % 1023,8 hPa 0,0 l/m 1,6 km/h (1 Bft) W 270 0,000 mm 3,1 UV-I 682 W/m 7,2 C 15,4 C 3,2 km/h (1 Bft) 82,61 %
18.09.2019 14:29 15,4 C 16,7 C 57 % 1023,7 hPa 0,0 l/m 3,2 km/h (1 Bft) W 270 0,000 mm 3,1 UV-I 682 W/m 6,9 C 15,4 C 6,4 km/h (2 Bft) 91,30 %
18.09.2019 14:28 15,3 C 16,7 C 57 % 1023,8 hPa 0,0 l/m 4,8 km/h (1 Bft) W-SW 247 0,000 mm 3,1 UV-I 689 W/m 6,8 C 15,3 C 9,7 km/h (2 Bft) 91,30 %
18.09.2019 14:27 15,2 C 16,7 C 55 % 1023,8 hPa 0,0 l/m 3,2 km/h (1 Bft) W 270 0,000 mm 3,1 UV-I 691 W/m 6,2 C 15,2 C 6,4 km/h (2 Bft) 100,00 %
18.09.2019 14:26 15,3 C 16,7 C 55 % 1023,7 hPa 0,0 l/m 3,2 km/h (1 Bft) W 270 0,000 mm 3,1 UV-I 693 W/m 6,3 C 15,3 C 6,4 km/h (2 Bft) 95,65 %
18.09.2019 14:25 15,2 C 16,7 C 56 % 1023,8 hPa 0,0 l/m 1,6 km/h (1 Bft) W 270 0,000 mm 3,2 UV-I 694 W/m 6,5 C 15,2 C 3,2 km/h (1 Bft) 100,00 %
18.09.2019 14:24 15,0 C 16,7 C 60 % 1023,8 hPa 0,0 l/m 4,8 km/h (1 Bft) W 270 0,000 mm 3,2 UV-I 698 W/m 7,3 C 15,0 C 6,4 km/h (2 Bft) 91,30 %
18.09.2019 14:23 14,9 C 16,7 C 57 % 1023,9 hPa 0,0 l/m 3,2 km/h (1 Bft) W-NW 292 0,000 mm 3,2 UV-I 700 W/m 6,5 C 14,9 C 6,4 km/h (2 Bft) 91,30 %
18.09.2019 14:22 14,9 C 16,7 C 53 % 1023,9 hPa 0,0 l/m 1,6 km/h (1 Bft) W-NW 292 0,000 mm 3,2 UV-I 700 W/m 5,4 C 14,9 C 1,6 km/h (1 Bft) 78,26 %
18.09.2019 14:21 15,0 C 16,7 C 57 % 1023,9 hPa 0,0 l/m 3,2 km/h (1 Bft) W-NW 292 0,000 mm 3,2 UV-I 701 W/m 6,6 C 15,0 C 4,8 km/h (1 Bft) 100,00 %
18.09.2019 14:20 14,8 C 16,7 C 60 % 1023,9 hPa 0,0 l/m 3,2 km/h (1 Bft) W 270 0,000 mm 3,2 UV-I 701 W/m 7,1 C 14,8 C 6,4 km/h (2 Bft) 95,65 %
18.09.2019 14:19 14,8 C 16,7 C 55 % 1023,9 hPa 0,0 l/m 1,6 km/h (1 Bft) W 270 0,000 mm 3,2 UV-I 700 W/m 5,8 C 14,8 C 4,8 km/h (1 Bft) 95,65 %
18.09.2019 14:18 14,8 C 16,7 C 54 % 1024,0 hPa 0,0 l/m 3,2 km/h (1 Bft) W-NW 292 0,000 mm 3,2 UV-I 700 W/m 5,6 C 14,8 C 4,8 km/h (1 Bft) 100,00 %
18.09.2019 14:17 14,8 C 16,7 C 54 % 1024,0 hPa 0,0 l/m 1,6 km/h (1 Bft) W 270 0,000 mm 3,2 UV-I 701 W/m 5,6 C 14,8 C 4,8 km/h (1 Bft) 100,00 %
18.09.2019 14:16 14,8 C 16,7 C 56 % 1023,9 hPa 0,0 l/m 6,4 km/h (2 Bft) W 270 0,000 mm 3,2 UV-I 701 W/m 6,1 C 14,8 C 9,7 km/h (2 Bft) 95,65 %
18.09.2019 14:15 14,8 C 16,7 C 55 % 1024,0 hPa 0,0 l/m 1,6 km/h (1 Bft) W-SW 247 0,000 mm 3,2 UV-I 698 W/m 5,8 C 14,8 C 4,8 km/h (1 Bft) 95,65 %
18.09.2019 14:14 14,8 C 16,7 C 55 % 1024,0 hPa 0,0 l/m 1,6 km/h (1 Bft) W 270 0,000 mm 3,3 UV-I 701 W/m 5,8 C 14,8 C 4,8 km/h (1 Bft) 100,00 %
18.09.2019 14:13 14,8 C 16,7 C 56 % 1024,0 hPa 0,0 l/m 1,6 km/h (1 Bft) W 270 0,000 mm 3,3 UV-I 707 W/m 6,1 C 14,8 C 3,2 km/h (1 Bft) 95,65 %
18.09.2019 14:12 14,8 C 16,7 C 61 % 1024,0 hPa 0,0 l/m 3,2 km/h (1 Bft) W-NW 292 0,000 mm 3,3 UV-I 701 W/m 7,4 C 14,8 C 6,4 km/h (2 Bft) 100,00 %
18.09.2019 14:11 14,8 C 16,7 C 59 % 1024,0 hPa 0,0 l/m 4,8 km/h (1 Bft) W-SW 247 0,000 mm 3,3 UV-I 701 W/m 6,9 C 14,8 C 6,4 km/h (2 Bft) 78,26 %
18.09.2019 14:10 14,8 C 16,7 C 60 % 1024,0 hPa 0,0 l/m 1,6 km/h (1 Bft) W-SW 247 0,000 mm 3,3 UV-I 708 W/m 7,1 C 14,8 C 3,2 km/h (1 Bft) 60,87 %
18.09.2019 14:09 14,8 C 16,7 C 59 % 1024,1 hPa 0,0 l/m 0,0 km/h (0 Bft) N-NO 22 0,000 mm 3,3 UV-I 707 W/m 6,9 C 14,8 C 1,6 km/h (1 Bft) 82,61 %
18.09.2019 14:08 14,7 C 16,7 C 57 % 1024,0 hPa 0,0 l/m 1,6 km/h (1 Bft) N-NO 22 0,000 mm 3,3 UV-I 708 W/m 6,3 C 14,7 C 3,2 km/h (1 Bft) 91,30 %
18.09.2019 14:07 14,8 C 16,7 C 55 % 1024,0 hPa 0,0 l/m 1,6 km/h (1 Bft) SW 225 0,000 mm 3,4 UV-I 708 W/m 5,8 C 14,8 C 3,2 km/h (1 Bft) 95,65 %
18.09.2019 14:06 14,8 C 16,7 C 60 % 1024,0 hPa 0,0 l/m 1,6 km/h (1 Bft) SW 225 0,000 mm 3,4 UV-I 714 W/m 7,1 C 14,8 C 3,2 km/h (1 Bft) 91,30 %
18.09.2019 14:05 14,8 C 16,7 C 59 % 1024,0 hPa 0,0 l/m 1,6 km/h (1 Bft) SW 225 0,000 mm 3,4 UV-I 717 W/m 6,9 C 14,8 C 3,2 km/h (1 Bft) 100,00 %
18.09.2019 14:04 14,9 C 16,7 C 60 % 1024,0 hPa 0,0 l/m 1,6 km/h (1 Bft) SW 225 0,000 mm 3,4 UV-I 717 W/m 7,2 C 14,9 C 1,6 km/h (1 Bft) 91,30 %
18.09.2019 14:03 15,0 C 16,7 C 57 % 1024,1 hPa 0,0 l/m 1,6 km/h (1 Bft) SW 225 0,000 mm 3,4 UV-I 714 W/m 6,6 C 15,0 C 3,2 km/h (1 Bft) 82,61 %
18.09.2019 14:02 15,1 C 16,7 C 59 % 1024,0 hPa 0,0 l/m 0,0 km/h (0 Bft) SW 225 0,000 mm 3,4 UV-I 719 W/m 7,1 C 15,1 C 1,6 km/h (1 Bft) 82,61 %
18.09.2019 14:01 15,2 C 16,7 C 57 % 1024,0 hPa 0,0 l/m 1,6 km/h (1 Bft) SW 225 0,000 mm 3,4 UV-I 714 W/m 6,7 C 15,2 C 1,6 km/h (1 Bft) 95,65 %
18.09.2019 14:00 15,3 C 16,7 C 58 % 1024,0 hPa 0,0 l/m 1,6 km/h (1 Bft) W-NW 292 0,406 mm 3,4 UV-I 717 W/m 7,1 C 15,3 C 4,8 km/h (1 Bft) 100,00 %
18.09.2019 13:59 15,5 C 16,7 C 57 % 1024,1 hPa 0,0 l/m 3,2 km/h (1 Bft) W-SW 247 0,000 mm 3,4 UV-I 717 W/m 7,0 C 15,5 C 6,4 km/h (2 Bft) 95,65 %
18.09.2019 13:58 15,5 C 17,2 C 57 % 1024,1 hPa 0,0 l/m 1,6 km/h (1 Bft) W 270 0,000 mm 3,4 UV-I 715 W/m 7,0 C 15,5 C 4,8 km/h (1 Bft) 100,00 %
18.09.2019 13:57 15,5 C 17,2 C 59 % 1024,1 hPa 0,0 l/m 1,6 km/h (1 Bft) W 270 0,000 mm 3,4 UV-I 715 W/m 7,5 C 15,5 C 3,2 km/h (1 Bft) 78,26 %
18.09.2019 13:56 15,6 C 17,2 C 58 % 1024,1 hPa 0,0 l/m 0,0 km/h (0 Bft) W 270 0,000 mm 3,4 UV-I 717 W/m 7,4 C 15,6 C 1,6 km/h (1 Bft) 91,30 %
18.09.2019 13:55 15,4 C 17,2 C 60 % 1024,1 hPa 0,0 l/m 1,6 km/h (1 Bft) W 270 0,000 mm 3,4 UV-I 721 W/m 7,7 C 15,4 C 6,4 km/h (2 Bft) 91,30 %
18.09.2019 13:54 15,4 C 17,2 C 61 % 1024,1 hPa 0,0 l/m 3,2 km/h (1 Bft) W-NW 292 0,000 mm 3,5 UV-I 722 W/m 7,9 C 15,4 C 6,4 km/h (2 Bft) 91,30 %
18.09.2019 13:53 15,2 C 17,2 C 58 % 1024,1 hPa 0,0 l/m 0,0 km/h (0 Bft) W-NW 292 0,000 mm 3,5 UV-I 724 W/m 7,0 C 15,2 C 1,6 km/h (1 Bft) 95,65 %
18.09.2019 13:52 15,1 C 17,2 C 61 % 1024,1 hPa 0,0 l/m 3,2 km/h (1 Bft) W-NW 292 0,000 mm 3,5 UV-I 721 W/m 7,6 C 15,1 C 4,8 km/h (1 Bft) 91,30 %
18.09.2019 13:51 15,1 C 17,2 C 63 % 1024,0 hPa 0,0 l/m 0,0 km/h (0 Bft) W-NW 292 0,000 mm 3,5 UV-I 724 W/m 8,1 C 15,1 C 1,6 km/h (1 Bft) 95,65 %
18.09.2019 13:50 14,9 C 17,2 C 57 % 1024,1 hPa 0,0 l/m 1,6 km/h (1 Bft) W-NW 292 0,000 mm 3,5 UV-I 728 W/m 6,5 C 14,9 C 3,2 km/h (1 Bft) 91,30 %
18.09.2019 13:49 14,9 C 17,2 C 58 % 1024,1 hPa 0,0 l/m 1,6 km/h (1 Bft) W-NW 292 0,000 mm 3,5 UV-I 729 W/m 6,7 C 14,9 C 3,2 km/h (1 Bft) 91,30 %
18.09.2019 13:48 15,0 C 17,2 C 59 % 1024,1 hPa 0,0 l/m 1,6 km/h (1 Bft) W-NW 292 0,000 mm 3,5 UV-I 729 W/m 7,1 C 15,0 C 3,2 km/h (1 Bft) 91,30 %
18.09.2019 13:47 15,1 C 17,2 C 61 % 1024,1 hPa 0,0 l/m 1,6 km/h (1 Bft) W-NW 292 0,000 mm 3,5 UV-I 729 W/m 7,6 C 15,1 C 3,2 km/h (1 Bft) 95,65 %
18.09.2019 13:46 15,1 C 17,2 C 61 % 1024,1 hPa 0,0 l/m 3,2 km/h (1 Bft) W-NW 292 0,000 mm 3,5 UV-I 731 W/m 7,6 C 15,1 C 4,8 km/h (1 Bft) 91,30 %
18.09.2019 13:45 15,1 C 17,2 C 59 % 1024,1 hPa 0,0 l/m 3,2 km/h (1 Bft) W 270 0,000 mm 3,5 UV-I 729 W/m 7,1 C 15,1 C 4,8 km/h (1 Bft) 91,30 %
18.09.2019 13:44 15,3 C 17,2 C 59 % 1024,1 hPa 0,0 l/m 1,6 km/h (1 Bft) SW 225 0,000 mm 3,5 UV-I 731 W/m 7,3 C 15,3 C 1,6 km/h (1 Bft) 95,65 %
18.09.2019 13:43 15,3 C 17,2 C 59 % 1024,1 hPa 0,0 l/m 1,6 km/h (1 Bft) S 180 0,000 mm 3,6 UV-I 728 W/m 7,3 C 15,3 C 3,2 km/h (1 Bft) 86,96 %
18.09.2019 13:42 15,2 C 17,2 C 62 % 1024,1 hPa 0,0 l/m 3,2 km/h (1 Bft) W 270 0,000 mm 3,6 UV-I 733 W/m 8,0 C 15,2 C 4,8 km/h (1 Bft) 86,96 %
18.09.2019 13:41 15,1 C 17,2 C 63 % 1024,2 hPa 0,0 l/m 1,6 km/h (1 Bft) W 270 0,000 mm 3,6 UV-I 737 W/m 8,1 C 15,1 C 4,8 km/h (1 Bft) 91,30 %
18.09.2019 13:40 14,9 C 17,2 C 61 % 1024,1 hPa 0,0 l/m 3,2 km/h (1 Bft) W 270 0,000 mm 3,6 UV-I 737 W/m 7,4 C 14,9 C 4,8 km/h (1 Bft) 82,61 %
18.09.2019 13:39 14,9 C 17,8 C 58 % 1024,2 hPa 0,0 l/m 1,6 km/h (1 Bft) W-SW 247 0,000 mm 3,6 UV-I 738 W/m 6,7 C 14,9 C 4,8 km/h (1 Bft) 69,57 %
18.09.2019 13:38 15,1 C 17,8 C 55 % 1024,1 hPa 0,0 l/m 1,6 km/h (1 Bft) W-SW 247 0,000 mm 3,6 UV-I 737 W/m 6,1 C 15,1 C 3,2 km/h (1 Bft) 91,30 %
18.09.2019 13:37 15,4 C 17,8 C 56 % 1024,2 hPa 0,0 l/m 0,0 km/h (0 Bft) W-SW 247 0,000 mm 3,6 UV-I 737 W/m 6,7 C 15,4 C 3,2 km/h (1 Bft) 91,30 %
18.09.2019 13:36 15,6 C 17,8 C 59 % 1024,2 hPa 0,0 l/m 1,6 km/h (1 Bft) W-SW 247 0,000 mm 3,6 UV-I 738 W/m 7,6 C 15,6 C 4,8 km/h (1 Bft) 95,65 %
18.09.2019 13:35 15,6 C 17,8 C 61 % 1024,1 hPa 0,0 l/m 1,6 km/h (1 Bft) W-SW 247 0,000 mm 3,6 UV-I 738 W/m 8,1 C 15,6 C 3,2 km/h (1 Bft) 78,26 %
18.09.2019 13:34 15,6 C 17,8 C 58 % 1024,2 hPa 0,0 l/m 3,2 km/h (1 Bft) W-SW 247 0,000 mm 3,6 UV-I 740 W/m 7,4 C 15,6 C 4,8 km/h (1 Bft) 91,30 %
18.09.2019 13:33 15,6 C 17,8 C 58 % 1024,2 hPa 0,0 l/m 1,6 km/h (1 Bft) W 270 0,000 mm 3,6 UV-I 740 W/m 7,4 C 15,6 C 4,8 km/h (1 Bft) 91,30 %
18.09.2019 13:32 15,6 C 17,8 C 59 % 1024,2 hPa 0,0 l/m 1,6 km/h (1 Bft) W 270 0,000 mm 3,6 UV-I 740 W/m 7,6 C 15,6 C 3,2 km/h (1 Bft) 95,65 %
18.09.2019 13:31 15,4 C 17,8 C 60 % 1024,2 hPa 0,0 l/m 1,6 km/h (1 Bft) W 270 0,000 mm 3,6 UV-I 744 W/m 7,7 C 15,4 C 3,2 km/h (1 Bft) 82,61 %
18.09.2019 13:30 15,2 C 17,8 C 60 % 1024,2 hPa 0,0 l/m 4,8 km/h (1 Bft) W 270 0,000 mm 3,6 UV-I 742 W/m 7,5 C 15,2 C 6,4 km/h (2 Bft) 95,65 %
18.09.2019 13:29 15,1 C 17,8 C 58 % 1024,2 hPa 0,0 l/m 6,4 km/h (2 Bft) W 270 0,000 mm 3,6 UV-I 740 W/m 6,9 C 15,1 C 9,7 km/h (2 Bft) 86,96 %
18.09.2019 13:28 14,9 C 17,2 C 57 % 1024,2 hPa 0,0 l/m 3,2 km/h (1 Bft) W 270 0,000 mm 3,6 UV-I 744 W/m 6,5 C 14,9 C 6,4 km/h (2 Bft) 86,96 %
18.09.2019 13:27 15,0 C 17,2 C 58 % 1024,3 hPa 0,0 l/m 1,6 km/h (1 Bft) W 270 0,000 mm 3,6 UV-I 745 W/m 6,8 C 15,0 C 3,2 km/h (1 Bft) 95,65 %
18.09.2019 13:26 15,1 C 17,8 C 58 % 1024,2 hPa 0,0 l/m 3,2 km/h (1 Bft) W 270 0,000 mm 3,7 UV-I 744 W/m 6,9 C 15,1 C 4,8 km/h (1 Bft) 86,96 %
18.09.2019 13:25 15,1 C 17,8 C 58 % 1024,3 hPa 0,0 l/m 1,6 km/h (1 Bft) W 270 0,000 mm 3,7 UV-I 742 W/m 6,9 C 15,1 C 3,2 km/h (1 Bft) 78,26 %
18.09.2019 13:24 15,2 C 17,8 C 59 % 1024,4 hPa 0,0 l/m 1,6 km/h (1 Bft) W 270 0,000 mm 3,7 UV-I 744 W/m 7,2 C 15,2 C 3,2 km/h (1 Bft) 95,65 %
18.09.2019 13:23 15,2 C 17,8 C 59 % 1024,3 hPa 0,0 l/m 1,6 km/h (1 Bft) W 270 0,000 mm 3,6 UV-I 735 W/m 7,2 C 15,2 C 3,2 km/h (1 Bft) 95,65 %
18.09.2019 13:22 15,1 C 17,8 C 61 % 1024,3 hPa 0,0 l/m 3,2 km/h (1 Bft) W 270 0,000 mm 3,6 UV-I 731 W/m 7,6 C 15,1 C 4,8 km/h (1 Bft) 100,00 %
18.09.2019 13:21 14,9 C 17,8 C 57 % 1024,3 hPa 0,0 l/m 1,6 km/h (1 Bft) W 270 0,000 mm 3,6 UV-I 737 W/m 6,5 C 14,9 C 4,8 km/h (1 Bft) 91,30 %
18.09.2019 13:20 14,9 C 17,8 C 60 % 1024,3 hPa 0,0 l/m 1,6 km/h (1 Bft) W 270 0,000 mm 3,7 UV-I 742 W/m 7,2 C 14,9 C 3,2 km/h (1 Bft) 100,00 %
18.09.2019 13:19 14,7 C 17,8 C 59 % 1024,3 hPa 0,0 l/m 3,2 km/h (1 Bft) W 270 0,000 mm 3,7 UV-I 747 W/m 6,8 C 14,7 C 4,8 km/h (1 Bft) 91,30 %
18.09.2019 13:18 14,7 C 17,8 C 59 % 1024,3 hPa 0,0 l/m 1,6 km/h (1 Bft) W-SW 247 0,000 mm 3,7 UV-I 747 W/m 6,8 C 14,7 C 3,2 km/h (1 Bft) 86,96 %
18.09.2019 13:17 14,7 C 17,8 C 58 % 1024,3 hPa 0,0 l/m 1,6 km/h (1 Bft) W-SW 247 0,000 mm 3,7 UV-I 751 W/m 6,5 C 14,7 C 1,6 km/h (1 Bft) 95,65 %
18.09.2019 13:16 14,7 C 18,3 C 61 % 1024,3 hPa 0,0 l/m 1,6 km/h (1 Bft) W-SW 247 0,000 mm 3,7 UV-I 759 W/m 7,3 C 14,7 C 3,2 km/h (1 Bft) 91,30 %
18.09.2019 13:15 14,4 C 18,3 C 59 % 1024,3 hPa 0,0 l/m 1,6 km/h (1 Bft) W-SW 247 0,000 mm 3,7 UV-I 752 W/m 6,5 C 14,4 C 4,8 km/h (1 Bft) 86,96 %
18.09.2019 13:14 14,5 C 18,3 C 57 % 1024,4 hPa 0,0 l/m 1,6 km/h (1 Bft) W-SW 247 0,000 mm 3,7 UV-I 751 W/m 6,1 C 14,5 C 4,8 km/h (1 Bft) 86,96 %
18.09.2019 13:13 14,7 C 18,3 C 55 % 1024,5 hPa 0,0 l/m 4,8 km/h (1 Bft) W 270 0,000 mm 3,7 UV-I 747 W/m 5,8 C 14,7 C 6,4 km/h (2 Bft) 100,00 %
18.09.2019 13:12 15,0 C 17,8 C 58 % 1024,5 hPa 0,0 l/m 4,8 km/h (1 Bft) W 270 0,000 mm 3,7 UV-I 758 W/m 6,8 C 15,0 C 6,4 km/h (2 Bft) 86,96 %
18.09.2019 13:11 15,1 C 17,8 C 58 % 1024,5 hPa 0,0 l/m 4,8 km/h (1 Bft) W 270 0,000 mm 3,8 UV-I 766 W/m 6,9 C 15,1 C 6,4 km/h (2 Bft) 100,00 %
18.09.2019 13:10 15,1 C 17,8 C 58 % 1024,5 hPa 0,0 l/m 3,2 km/h (1 Bft) N-NW 337 0,000 mm 3,7 UV-I 751 W/m 6,9 C 15,1 C 9,7 km/h (2 Bft) 91,30 %
18.09.2019 13:09 15,2 C 17,8 C 58 % 1024,5 hPa 0,0 l/m 1,6 km/h (1 Bft) N-NO 22 0,000 mm 3,7 UV-I 751 W/m 7,0 C 15,2 C 4,8 km/h (1 Bft) 95,65 %
18.09.2019 13:08 15,3 C 17,8 C 56 % 1024,5 hPa 0,0 l/m 1,6 km/h (1 Bft) N-NO 22 0,000 mm 3,8 UV-I 752 W/m 6,6 C 15,3 C 3,2 km/h (1 Bft) 91,30 %
18.09.2019 13:07 15,5 C 17,8 C 59 % 1024,5 hPa 0,0 l/m 0,0 km/h (0 Bft) N-NO 22 0,000 mm 3,8 UV-I 758 W/m 7,5 C 15,5 C 3,2 km/h (1 Bft) 91,30 %
18.09.2019 13:06 15,5 C 17,8 C 58 % 1024,6 hPa 0,0 l/m 1,6 km/h (1 Bft) N-NO 22 0,000 mm 3,8 UV-I 758 W/m 7,3 C 15,5 C 3,2 km/h (1 Bft) 78,26 %
18.09.2019 13:05 15,6 C 17,8 C 63 % 1024,5 hPa 0,0 l/m 0,0 km/h (0 Bft) SW 225 0,000 mm 3,8 UV-I 754 W/m 8,6 C 15,6 C 3,2 km/h (1 Bft) 78,26 %
18.09.2019 13:04 15,3 C 17,8 C 58 % 1024,5 hPa 0,0 l/m 1,6 km/h (1 Bft) SW 225 0,000 mm 3,7 UV-I 758 W/m 7,1 C 15,3 C 3,2 km/h (1 Bft) 91,30 %
18.09.2019 13:03 15,2 C 17,8 C 60 % 1024,5 hPa 0,0 l/m 1,6 km/h (1 Bft) SW 225 0,000 mm 3,8 UV-I 749 W/m 7,5 C 15,2 C 3,2 km/h (1 Bft) 86,96 %
18.09.2019 13:02 15,1 C 17,8 C 60 % 1024,6 hPa 0,0 l/m 1,6 km/h (1 Bft) W-NW 292 0,000 mm 3,7 UV-I 761 W/m 7,4 C 15,1 C 4,8 km/h (1 Bft) 82,61 %
18.09.2019 13:01 15,1 C 17,8 C 61 % 1024,5 hPa 0,0 l/m 1,6 km/h (1 Bft) W-SW 247 0,000 mm 3,8 UV-I 766 W/m 7,6 C 15,1 C 3,2 km/h (1 Bft) 91,30 %
18.09.2019 13:00 15,0 C 17,8 C 57 % 1024,6 hPa 0,0 l/m 3,2 km/h (1 Bft) SW 225 0,381 mm 3,6 UV-I 766 W/m 6,6 C 15,0 C 4,8 km/h (1 Bft) 86,96 %
18.09.2019 12:59 15,1 C 17,8 C 58 % 1024,6 hPa 0,0 l/m 1,6 km/h (1 Bft) S-SW 202 0,000 mm 3,6 UV-I 694 W/m 6,9 C 15,1 C 3,2 km/h (1 Bft) 86,96 %
18.09.2019 12:58 15,2 C 17,2 C 60 % 1024,6 hPa 0,0 l/m 0,0 km/h (0 Bft) S-SW 202 0,000 mm 3,8 UV-I 765 W/m 7,5 C 15,2 C 1,6 km/h (1 Bft) 100,00 %
18.09.2019 12:57 15,2 C 17,2 C 58 % 1024,6 hPa 0,0 l/m 1,6 km/h (1 Bft) W-SW 247 0,000 mm 3,7 UV-I 759 W/m 7,0 C 15,2 C 3,2 km/h (1 Bft) 86,96 %
18.09.2019 12:56 15,3 C 17,2 C 61 % 1024,6 hPa 0,0 l/m 1,6 km/h (1 Bft) W-SW 247 0,000 mm 3,7 UV-I 737 W/m 7,8 C 15,3 C 4,8 km/h (1 Bft) 100,00 %
18.09.2019 12:55 15,2 C 17,2 C 60 % 1024,6 hPa 0,0 l/m 3,2 km/h (1 Bft) W 270 0,000 mm 3,7 UV-I 742 W/m 7,5 C 15,2 C 4,8 km/h (1 Bft) 95,65 %
18.09.2019 12:54 15,1 C 17,2 C 58 % 1024,6 hPa 0,0 l/m 3,2 km/h (1 Bft) NW 315 0,000 mm 3,7 UV-I 740 W/m 6,9 C 15,1 C 6,4 km/h (2 Bft) 95,65 %
18.09.2019 12:53 14,9 C 17,2 C 59 % 1024,6 hPa 0,0 l/m 4,8 km/h (1 Bft) W 270 0,000 mm 3,8 UV-I 770 W/m 7,0 C 14,9 C 6,4 km/h (2 Bft) 100,00 %
18.09.2019 12:52 14,9 C 16,7 C 56 % 1024,6 hPa 0,0 l/m 3,2 km/h (1 Bft) W-SW 247 0,000 mm 3,9 UV-I 770 W/m 6,2 C 14,9 C 9,7 km/h (2 Bft) 91,30 %
18.09.2019 12:51 14,8 C 16,7 C 57 % 1024,7 hPa 0,0 l/m 3,2 km/h (1 Bft) W 270 0,000 mm 3,8 UV-I 772 W/m 6,4 C 14,8 C 4,8 km/h (1 Bft) 100,00 %
18.09.2019 12:50 14,6 C 16,7 C 59 % 1024,6 hPa 0,0 l/m 3,2 km/h (1 Bft) W 270 0,000 mm 3,8 UV-I 773 W/m 6,7 C 14,6 C 6,4 km/h (2 Bft) 91,30 %
18.09.2019 12:49 14,3 C 16,7 C 57 % 1024,6 hPa 0,0 l/m 3,2 km/h (1 Bft) W 270 0,000 mm 3,8 UV-I 772 W/m 5,9 C 14,3 C 6,4 km/h (2 Bft) 100,00 %
18.09.2019 12:48 14,2 C 16,7 C 55 % 1024,7 hPa 0,0 l/m 3,2 km/h (1 Bft) W 270 0,000 mm 3,8 UV-I 788 W/m 5,3 C 14,2 C 4,8 km/h (1 Bft) 100,00 %
18.09.2019 12:47 14,2 C 16,7 C 57 % 1024,6 hPa 0,0 l/m 1,6 km/h (1 Bft) W-NW 292 0,000 mm 3,8 UV-I 759 W/m 5,8 C 14,2 C 4,8 km/h (1 Bft) 95,65 %
18.09.2019 12:46 14,1 C 16,7 C 58 % 1024,6 hPa 0,0 l/m 1,6 km/h (1 Bft) W-NW 292 0,000 mm 3,9 UV-I 766 W/m 6,0 C 14,1 C 1,6 km/h (1 Bft) 95,65 %
18.09.2019 12:45 14,1 C 16,7 C 56 % 1024,6 hPa 0,0 l/m 0,0 km/h (0 Bft) W-NW 292 0,000 mm 2,5 UV-I 766 W/m 5,5 C 14,1 C 1,6 km/h (1 Bft) 95,65 %
18.09.2019 12:44 14,2 C 16,7 C 53 % 1024,6 hPa 0,0 l/m 1,6 km/h (1 Bft) W-NW 292 0,000 mm 3,8 UV-I 766 W/m 4,8 C 14,2 C 3,2 km/h (1 Bft) 100,00 %
18.09.2019 12:43 14,3 C 16,7 C 55 % 1024,7 hPa 0,0 l/m 0,0 km/h (0 Bft) W-NW 292 0,000 mm 3,8 UV-I 756 W/m 5,4 C 14,3 C 1,6 km/h (1 Bft) 95,65 %
18.09.2019 12:42 14,3 C 16,7 C 54 % 1024,6 hPa 0,0 l/m 1,6 km/h (1 Bft) W-NW 292 0,000 mm 3,8 UV-I 756 W/m 5,1 C 14,3 C 3,2 km/h (1 Bft) 95,65 %
18.09.2019 12:41 14,4 C 16,7 C 54 % 1024,7 hPa 0,0 l/m 3,2 km/h (1 Bft) W-NW 292 0,000 mm 3,7 UV-I 747 W/m 5,2 C 14,4 C 4,8 km/h (1 Bft) 91,30 %
18.09.2019 12:40 14,3 C 16,7 C 61 % 1024,7 hPa 0,0 l/m 0,0 km/h (0 Bft) W 270 0,000 mm 3,7 UV-I 745 W/m 6,9 C 14,3 C 3,2 km/h (1 Bft) 100,00 %
18.09.2019 12:39 14,3 C 16,7 C 58 % 1024,7 hPa 0,0 l/m 1,6 km/h (1 Bft) W 270 0,000 mm 3,7 UV-I 744 W/m 6,2 C 14,3 C 4,8 km/h (1 Bft) 95,65 %
18.09.2019 12:38 14,4 C 17,2 C 56 % 1024,7 hPa 0,0 l/m 3,2 km/h (1 Bft) SW 225 0,000 mm 3,7 UV-I 747 W/m 5,7 C 14,4 C 6,4 km/h (2 Bft) 100,00 %
18.09.2019 12:37 14,5 C 17,2 C 55 % 1024,6 hPa 0,0 l/m 1,6 km/h (1 Bft) S 180 0,000 mm 3,7 UV-I 740 W/m 5,6 C 14,5 C 3,2 km/h (1 Bft) 86,96 %
18.09.2019 12:36 14,6 C 17,2 C 58 % 1024,6 hPa 0,0 l/m 1,6 km/h (1 Bft) SW 225 0,000 mm 3,7 UV-I 738 W/m 6,4 C 14,6 C 3,2 km/h (1 Bft) 95,65 %
18.09.2019 12:35 14,5 C 17,2 C 54 % 1024,7 hPa 0,0 l/m 1,6 km/h (1 Bft) W-SW 247 0,000 mm 3,7 UV-I 744 W/m 5,3 C 14,5 C 3,2 km/h (1 Bft) 95,65 %
18.09.2019 12:34 14,5 C 17,2 C 57 % 1024,7 hPa 0,0 l/m 1,6 km/h (1 Bft) W-SW 247 0,000 mm 3,7 UV-I 742 W/m 6,1 C 14,5 C 3,2 km/h (1 Bft) 86,96 %
18.09.2019 12:33 14,7 C 17,2 C 60 % 1024,7 hPa 0,0 l/m 0,0 km/h (0 Bft) W 270 0,000 mm 3,7 UV-I 742 W/m 7,0 C 14,7 C 3,2 km/h (1 Bft) 91,30 %
18.09.2019 12:32 14,7 C 17,2 C 57 % 1024,6 hPa 0,0 l/m 1,6 km/h (1 Bft) W 270 0,000 mm 3,7 UV-I 733 W/m 6,3 C 14,7 C 4,8 km/h (1 Bft) 100,00 %
18.09.2019 12:31 14,6 C 17,2 C 59 % 1024,7 hPa 0,0 l/m 3,2 km/h (1 Bft) W 270 0,000 mm 3,6 UV-I 733 W/m 6,7 C 14,6 C 4,8 km/h (1 Bft) 65,22 %
18.09.2019 12:30 14,6 C 17,2 C 58 % 1024,7 hPa 0,0 l/m 1,6 km/h (1 Bft) W 270 0,000 mm 3,6 UV-I 726 W/m 6,4 C 14,6 C 4,8 km/h (1 Bft) 86,96 %
18.09.2019 12:29 14,7 C 17,2 C 56 % 1024,7 hPa 0,0 l/m 0,0 km/h (0 Bft) W 270 0,000 mm 3,6 UV-I 729 W/m 6,0 C 14,7 C 1,6 km/h (1 Bft) 86,96 %
18.09.2019 12:28 14,7 C 17,8 C 57 % 1024,7 hPa 0,0 l/m 1,6 km/h (1 Bft) W 270 0,000 mm 3,6 UV-I 728 W/m 6,3 C 14,7 C 3,2 km/h (1 Bft) 100,00 %
18.09.2019 12:27 14,8 C 17,8 C 61 % 1024,7 hPa 0,0 l/m 1,6 km/h (1 Bft) W 270 0,000 mm 3,6 UV-I 737 W/m 7,4 C 14,8 C 4,8 km/h (1 Bft) 95,65 %
18.09.2019 12:26 14,7 C 17,8 C 60 % 1024,7 hPa 0,0 l/m 3,2 km/h (1 Bft) NW 315 0,000 mm 3,7 UV-I 738 W/m 7,0 C 14,7 C 4,8 km/h (1 Bft) 95,65 %
18.09.2019 12:25 14,5 C 17,8 C 57 % 1024,7 hPa 0,0 l/m 3,2 km/h (1 Bft) W-NW 292 0,000 mm 3,7 UV-I 749 W/m 6,1 C 14,5 C 4,8 km/h (1 Bft) 82,61 %
18.09.2019 12:24 14,3 C 17,8 C 59 % 1024,7 hPa 0,0 l/m 1,6 km/h (1 Bft) W-NW 292 0,000 mm 3,7 UV-I 749 W/m 6,4 C 14,3 C 3,2 km/h (1 Bft) 95,65 %
18.09.2019 12:23 14,3 C 17,8 C 57 % 1024,7 hPa 0,0 l/m 1,6 km/h (1 Bft) W-NW 292 0,000 mm 3,7 UV-I 745 W/m 5,9 C 14,3 C 3,2 km/h (1 Bft) 100,00 %
18.09.2019 12:22 14,4 C 17,8 C 56 % 1024,7 hPa 0,0 l/m 1,6 km/h (1 Bft) W-NW 292 0,000 mm 3,6 UV-I 738 W/m 5,7 C 14,4 C 3,2 km/h (1 Bft) 95,65 %
18.09.2019 12:21 14,5 C 18,3 C 58 % 1024,7 hPa 0,0 l/m 1,6 km/h (1 Bft) W-NW 292 0,000 mm 3,6 UV-I 745 W/m 6,3 C 14,5 C 3,2 km/h (1 Bft) 100,00 %
18.09.2019 12:20 14,5 C 18,3 C 59 % 1024,7 hPa 0,0 l/m 1,6 km/h (1 Bft) W-NW 292 0,000 mm 3,7 UV-I 744 W/m 6,6 C 14,5 C 3,2 km/h (1 Bft) 95,65 %
18.09.2019 12:19 14,4 C 18,3 C 58 % 1024,7 hPa 0,0 l/m 3,2 km/h (1 Bft) W-NW 292 0,000 mm 3,6 UV-I 744 W/m 6,2 C 14,4 C 6,4 km/h (2 Bft) 100,00 %
18.09.2019 12:18 14,4 C 18,3 C 57 % 1024,7 hPa 0,0 l/m 1,6 km/h (1 Bft) W 270 0,000 mm 3,6 UV-I 740 W/m 6,0 C 14,4 C 4,8 km/h (1 Bft) 100,00 %
18.09.2019 12:17 14,4 C 18,3 C 55 % 1024,8 hPa 0,0 l/m 0,0 km/h (0 Bft) W-NW 292 0,000 mm 3,6 UV-I 738 W/m 5,5 C 14,4 C 1,6 km/h (1 Bft) 100,00 %
18.09.2019 12:16 14,4 C 18,3 C 60 % 1024,8 hPa 0,0 l/m 1,6 km/h (1 Bft) W-NW 292 0,000 mm 3,6 UV-I 740 W/m 6,7 C 14,4 C 3,2 km/h (1 Bft) 100,00 %
18.09.2019 12:15 14,2 C 17,8 C 56 % 1024,8 hPa 0,0 l/m 0,0 km/h (0 Bft) W-NW 292 0,000 mm 3,6 UV-I 745 W/m 5,6 C 14,2 C 1,6 km/h (1 Bft) 91,30 %
18.09.2019 12:14 14,3 C 17,8 C 61 % 1024,7 hPa 0,0 l/m 3,2 km/h (1 Bft) W 270 0,000 mm 3,6 UV-I 742 W/m 6,9 C 14,3 C 6,4 km/h (2 Bft) 100,00 %
18.09.2019 12:13 14,4 C 17,8 C 57 % 1024,8 hPa 0,0 l/m 0,0 km/h (0 Bft) W 270 0,000 mm 3,6 UV-I 740 W/m 6,0 C 14,4 C 1,6 km/h (1 Bft) 100,00 %
18.09.2019 12:12 14,5 C 18,3 C 59 % 1024,8 hPa 0,0 l/m 1,6 km/h (1 Bft) W 270 0,000 mm 3,6 UV-I 745 W/m 6,6 C 14,5 C 3,2 km/h (1 Bft) 100,00 %
18.09.2019 12:11 14,6 C 18,3 C 59 % 1024,8 hPa 0,0 l/m 1,6 km/h (1 Bft) W 270 0,000 mm 3,6 UV-I 738 W/m 6,7 C 14,6 C 3,2 km/h (1 Bft) 100,00 %
18.09.2019 12:10 14,6 C 18,3 C 59 % 1024,8 hPa 0,0 l/m 0,0 km/h (0 Bft) W 270 0,000 mm 3,5 UV-I 731 W/m 6,7 C 14,6 C 1,6 km/h (1 Bft) 100,00 %
18.09.2019 12:09 14,8 C 18,3 C 63 % 1024,8 hPa 0,0 l/m 3,2 km/h (1 Bft) W 270 0,000 mm 3,5 UV-I 733 W/m 7,8 C 14,8 C 4,8 km/h (1 Bft) 95,65 %
18.09.2019 12:08 14,7 C 18,3 C 62 % 1024,8 hPa 0,0 l/m 1,6 km/h (1 Bft) W 270 0,000 mm 3,5 UV-I 728 W/m 7,5 C 14,7 C 3,2 km/h (1 Bft) 95,65 %
18.09.2019 12:07 14,5 C 18,3 C 60 % 1024,8 hPa 0,0 l/m 1,6 km/h (1 Bft) W 270 0,000 mm 3,5 UV-I 719 W/m 6,8 C 14,5 C 3,2 km/h (1 Bft) 100,00 %
18.09.2019 12:06 14,4 C 18,3 C 63 % 1024,8 hPa 0,0 l/m 1,6 km/h (1 Bft) W 270 0,000 mm 3,5 UV-I 715 W/m 7,4 C 14,4 C 3,2 km/h (1 Bft) 100,00 %
18.09.2019 12:05 14,2 C 18,3 C 65 % 1024,8 hPa 0,0 l/m 0,0 km/h (0 Bft) W 270 0,000 mm 3,5 UV-I 733 W/m 7,7 C 14,2 C 1,6 km/h (1 Bft) 100,00 %
18.09.2019 12:04 13,8 C 18,3 C 66 % 1024,8 hPa 0,0 l/m 1,6 km/h (1 Bft) W 270 0,000 mm 3,5 UV-I 745 W/m 7,6 C 13,8 C 3,2 km/h (1 Bft) 100,00 %
18.09.2019 12:03 13,8 C 18,3 C 65 % 1024,9 hPa 0,0 l/m 0,0 km/h (0 Bft) W 270 0,000 mm 3,5 UV-I 747 W/m 7,3 C 13,8 C 1,6 km/h (1 Bft) 95,65 %
18.09.2019 12:02 13,7 C 18,3 C 61 % 1024,9 hPa 0,0 l/m 0,0 km/h (0 Bft) W 270 0,000 mm 3,5 UV-I 756 W/m 6,3 C 13,7 C 1,6 km/h (1 Bft) 100,00 %
18.09.2019 12:01 13,8 C 18,9 C 62 % 1024,8 hPa 0,0 l/m 0,0 km/h (0 Bft) W 270 0,000 mm 3,5 UV-I 663 W/m 6,6 C 13,8 C 1,6 km/h (1 Bft) 95,65 %
18.09.2019 12:00 13,8 C 18,9 C 62 % 1024,8 hPa 0,0 l/m 1,6 km/h (1 Bft) W 270 0,356 mm 3,0 UV-I 596 W/m 6,6 C 13,8 C 3,2 km/h (1 Bft) 100,00 %
18.09.2019 11:59 13,9 C 19,4 C 62 % 1024,9 hPa 0,0 l/m 1,6 km/h (1 Bft) W 270 0,000 mm 3,1 UV-I 663 W/m 6,7 C 13,9 C 3,2 km/h (1 Bft) 100,00 %
18.09.2019 11:58 14,0 C 19,4 C 64 % 1024,8 hPa 0,0 l/m 0,0 km/h (0 Bft) W 270 0,000 mm 3,3 UV-I 663 W/m 7,3 C 14,0 C 1,6 km/h (1 Bft) 95,65 %
18.09.2019 11:57 14,1 C 19,4 C 61 % 1024,8 hPa 0,0 l/m 1,6 km/h (1 Bft) W 270 0,000 mm 3,4 UV-I 682 W/m 6,7 C 14,1 C 4,8 km/h (1 Bft) 95,65 %
18.09.2019 11:56 14,1 C 19,4 C 57 % 1024,8 hPa 0,0 l/m 3,2 km/h (1 Bft) W 270 0,000 mm 3,4 UV-I 765 W/m 5,7 C 14,1 C 4,8 km/h (1 Bft) 100,00 %
18.09.2019 11:55 14,4 C 20,0 C 59 % 1024,9 hPa 0,0 l/m 0,0 km/h (0 Bft) W 270 0,000 mm 3,4 UV-I 749 W/m 6,5 C 14,4 C 1,6 km/h (1 Bft) 100,00 %
18.09.2019 11:54 14,8 C 20,0 C 63 % 1024,9 hPa 0,0 l/m 1,6 km/h (1 Bft) W 270 0,000 mm 3,4 UV-I 754 W/m 7,8 C 14,8 C 3,2 km/h (1 Bft) 95,65 %
18.09.2019 11:53 15,0 C 20,0 C 63 % 1025,3 hPa 0,0 l/m 1,6 km/h (1 Bft) W 270 0,000 mm 3,4 UV-I 744 W/m 8,0 C 15,0 C 3,2 km/h (1 Bft) 100,00 %
18.09.2019 11:52 14,9 C 20,0 C 63 % 1024,9 hPa 0,0 l/m 1,6 km/h (1 Bft) W 270 0,000 mm 3,4 UV-I 731 W/m 7,9 C 14,9 C 3,2 km/h (1 Bft) 91,30 %
18.09.2019 11:51 14,9 C 19,4 C 65 % 1024,9 hPa 0,0 l/m 1,6 km/h (1 Bft) W 270 0,000 mm 3,4 UV-I 731 W/m 8,4 C 14,9 C 3,2 km/h (1 Bft) 95,65 %
18.09.2019 11:50 14,7 C 19,4 C 69 % 1024,9 hPa 0,0 l/m 3,2 km/h (1 Bft) W 270 0,000 mm 3,3 UV-I 724 W/m 9,1 C 14,7 C 6,4 km/h (2 Bft) 95,65 %
18.09.2019 11:49 14,3 C 19,4 C 65 % 1024,9 hPa 0,0 l/m 1,6 km/h (1 Bft) W-NW 292 0,000 mm 3,3 UV-I 722 W/m 7,8 C 14,3 C 6,4 km/h (2 Bft) 100,00 %
18.09.2019 11:48 14,2 C 19,4 C 64 % 1024,8 hPa 0,0 l/m 1,6 km/h (1 Bft) W-NW 292 0,000 mm 3,3 UV-I 722 W/m 7,5 C 14,2 C 3,2 km/h (1 Bft) 82,61 %
18.09.2019 11:47 14,2 C 19,4 C 62 % 1024,9 hPa 0,0 l/m 0,0 km/h (0 Bft) W-NW 292 0,000 mm 3,3 UV-I 717 W/m 7,0 C 14,2 C 3,2 km/h (1 Bft) 78,26 %
18.09.2019 11:46 14,2 C 19,4 C 65 % 1024,9 hPa 0,0 l/m 1,6 km/h (1 Bft) W-NW 292 0,000 mm 3,3 UV-I 708 W/m 7,7 C 14,2 C 3,2 km/h (1 Bft) 91,30 %
18.09.2019 11:45 14,2 C 19,4 C 68 % 1024,9 hPa 0,0 l/m 0,0 km/h (0 Bft) W-NW 292 0,000 mm 3,2 UV-I 708 W/m 8,4 C 14,2 C 1,6 km/h (1 Bft) 91,30 %
18.09.2019 11:44 14,0 C 19,4 C 64 % 1024,9 hPa 0,0 l/m 1,6 km/h (1 Bft) W-NW 292 0,000 mm 3,2 UV-I 701 W/m 7,3 C 14,0 C 3,2 km/h (1 Bft) 100,00 %
18.09.2019 11:43 14,1 C 19,4 C 61 % 1024,9 hPa 0,0 l/m 1,6 km/h (1 Bft) W-NW 292 0,000 mm 3,2 UV-I 694 W/m 6,7 C 14,1 C 4,8 km/h (1 Bft) 100,00 %
18.09.2019 11:42 14,2 C 18,9 C 66 % 1024,9 hPa 0,0 l/m 3,2 km/h (1 Bft) W-NW 292 0,000 mm 3,1 UV-I 696 W/m 7,9 C 14,2 C 4,8 km/h (1 Bft) 95,65 %
18.09.2019 11:41 13,9 C 18,9 C 67 % 1025,0 hPa 0,0 l/m 3,2 km/h (1 Bft) W-NW 292 0,000 mm 3,2 UV-I 696 W/m 7,9 C 13,9 C 4,8 km/h (1 Bft) 95,65 %
18.09.2019 11:40 13,8 C 18,9 C 66 % 1024,9 hPa 0,0 l/m 3,2 km/h (1 Bft) W-NW 292 0,000 mm 3,2 UV-I 696 W/m 7,6 C 13,8 C 6,4 km/h (2 Bft) 82,61 %
18.09.2019 11:39 13,7 C 18,9 C 63 % 1024,9 hPa 0,0 l/m 0,0 km/h (0 Bft) W-NW 292 0,000 mm 3,1 UV-I 696 W/m 6,8 C 13,7 C 1,6 km/h (1 Bft) 91,30 %
18.09.2019 11:38 13,8 C 19,4 C 59 % 1024,9 hPa 0,0 l/m 1,6 km/h (1 Bft) W-NW 292 0,000 mm 3,1 UV-I 694 W/m 5,9 C 13,8 C 3,2 km/h (1 Bft) 100,00 %
18.09.2019 11:37 13,9 C 19,4 C 64 % 1024,9 hPa 0,0 l/m 1,6 km/h (1 Bft) W-NW 292 0,000 mm 3,1 UV-I 687 W/m 7,2 C 13,9 C 3,2 km/h (1 Bft) 95,65 %
18.09.2019 11:36 13,9 C 18,9 C 65 % 1024,9 hPa 0,0 l/m 0,0 km/h (0 Bft) W-NW 292 0,000 mm 3,1 UV-I 691 W/m 7,4 C 13,9 C 1,6 km/h (1 Bft) 86,96 %
18.09.2019 11:35 13,6 C 18,9 C 65 % 1024,9 hPa 0,0 l/m 1,6 km/h (1 Bft) W-NW 292 0,000 mm 3,1 UV-I 696 W/m 7,1 C 13,6 C 3,2 km/h (1 Bft) 82,61 %
18.09.2019 11:34 13,4 C 18,9 C 63 % 1024,9 hPa 0,0 l/m 3,2 km/h (1 Bft) W-NW 292 0,000 mm 3,1 UV-I 691 W/m 6,5 C 13,4 C 4,8 km/h (1 Bft) 95,65 %
18.09.2019 11:33 13,4 C 18,9 C 65 % 1024,9 hPa 0,0 l/m 3,2 km/h (1 Bft) W-NW 292 0,000 mm 3,1 UV-I 691 W/m 7,0 C 13,4 C 4,8 km/h (1 Bft) 82,61 %
18.09.2019 11:32 13,3 C 18,9 C 65 % 1024,9 hPa 0,0 l/m 0,0 km/h (0 Bft) W-NW 292 0,000 mm 3,1 UV-I 696 W/m 6,9 C 13,3 C 3,2 km/h (1 Bft) 91,30 %
18.09.2019 11:31 13,1 C 18,9 C 66 % 1024,9 hPa 0,0 l/m 3,2 km/h (1 Bft) W 270 0,000 mm 3,1 UV-I 694 W/m 6,9 C 13,1 C 6,4 km/h (2 Bft) 95,65 %
18.09.2019 11:30 12,9 C 18,9 C 64 % 1024,9 hPa 0,0 l/m 3,2 km/h (1 Bft) W-SW 247 0,000 mm 3,1 UV-I 696 W/m 6,3 C 12,9 C 4,8 km/h (1 Bft) 95,65 %
18.09.2019 11:29 12,9 C 18,9 C 64 % 1024,9 hPa 0,0 l/m 1,6 km/h (1 Bft) W-SW 247 0,000 mm 3,1 UV-I 693 W/m 6,3 C 12,9 C 3,2 km/h (1 Bft) 91,30 %
18.09.2019 11:28 13,1 C 18,9 C 63 % 1024,9 hPa 0,0 l/m 1,6 km/h (1 Bft) W-SW 247 0,000 mm 3,1 UV-I 693 W/m 6,2 C 13,1 C 3,2 km/h (1 Bft) 100,00 %
18.09.2019 11:27 13,3 C 18,9 C 63 % 1024,9 hPa 0,0 l/m 3,2 km/h (1 Bft) W 270 0,000 mm 3,0 UV-I 693 W/m 6,4 C 13,3 C 4,8 km/h (1 Bft) 91,30 %
18.09.2019 11:26 13,4 C 18,3 C 63 % 1024,9 hPa 0,0 l/m 4,8 km/h (1 Bft) W 270 0,000 mm 3,0 UV-I 682 W/m 6,5 C 13,4 C 4,8 km/h (1 Bft) 91,30 %
18.09.2019 11:25 13,5 C 18,3 C 63 % 1024,8 hPa 0,0 l/m 4,8 km/h (1 Bft) W 270 0,000 mm 3,0 UV-I 680 W/m 6,6 C 13,5 C 6,4 km/h (2 Bft) 100,00 %
18.09.2019 11:24 13,7 C 18,3 C 64 % 1024,9 hPa 0,0 l/m 3,2 km/h (1 Bft) W-SW 247 0,000 mm 3,0 UV-I 680 W/m 7,0 C 13,7 C 6,4 km/h (2 Bft) 86,96 %
18.09.2019 11:23 13,9 C 18,3 C 65 % 1024,9 hPa 0,0 l/m 3,2 km/h (1 Bft) W 270 0,000 mm 3,0 UV-I 680 W/m 7,4 C 13,9 C 6,4 km/h (2 Bft) 91,30 %
18.09.2019 11:22 13,9 C 17,8 C 70 % 1024,9 hPa 0,0 l/m 3,2 km/h (1 Bft) W 270 0,000 mm 3,0 UV-I 682 W/m 8,5 C 13,9 C 4,8 km/h (1 Bft) 91,30 %
18.09.2019 11:21 13,7 C 18,3 C 67 % 1024,9 hPa 0,0 l/m 3,2 km/h (1 Bft) W-NW 292 0,000 mm 2,9 UV-I 677 W/m 7,7 C 13,7 C 4,8 km/h (1 Bft) 95,65 %
18.09.2019 11:20 13,7 C 18,3 C 69 % 1024,8 hPa 0,0 l/m 4,8 km/h (1 Bft) W-NW 292 0,000 mm 2,9 UV-I 675 W/m 8,1 C 13,7 C 6,4 km/h (2 Bft) 91,30 %
18.09.2019 11:19 13,6 C 18,3 C 64 % 1024,9 hPa 0,0 l/m 4,8 km/h (1 Bft) W-SW 247 0,000 mm 2,9 UV-I 670 W/m 6,9 C 13,6 C 8,0 km/h (2 Bft) 95,65 %
18.09.2019 11:18 13,7 C 18,3 C 65 % 1024,9 hPa 0,0 l/m 1,6 km/h (1 Bft) W-SW 247 0,000 mm 2,9 UV-I 666 W/m 7,2 C 13,7 C 4,8 km/h (1 Bft) 95,65 %
18.09.2019 11:17 13,7 C 17,8 C 67 % 1024,9 hPa 0,0 l/m 3,2 km/h (1 Bft) W-SW 247 0,000 mm 2,9 UV-I 668 W/m 7,7 C 13,7 C 4,8 km/h (1 Bft) 95,65 %
18.09.2019 11:16 13,6 C 18,3 C 67 % 1024,9 hPa 0,0 l/m 3,2 km/h (1 Bft) W-NW 292 0,000 mm 2,9 UV-I 671 W/m 7,6 C 13,6 C 4,8 km/h (1 Bft) 91,30 %
18.09.2019 11:15 13,5 C 18,3 C 67 % 1024,9 hPa 0,0 l/m 3,2 km/h (1 Bft) W-NW 292 0,000 mm 2,9 UV-I 671 W/m 7,5 C 13,5 C 4,8 km/h (1 Bft) 95,65 %
18.09.2019 11:14 13,4 C 17,8 C 64 % 1024,9 hPa 0,0 l/m 4,8 km/h (1 Bft) W-SW 247 0,000 mm 2,8 UV-I 671 W/m 6,7 C 13,4 C 6,4 km/h (2 Bft) 95,65 %
18.09.2019 11:13 13,3 C 17,8 C 67 % 1025,0 hPa 0,0 l/m 4,8 km/h (1 Bft) W-NW 292 0,000 mm 2,8 UV-I 673 W/m 7,3 C 13,3 C 6,4 km/h (2 Bft) 95,65 %
18.09.2019 11:12 13,2 C 17,8 C 65 % 1024,9 hPa 0,0 l/m 3,2 km/h (1 Bft) W 270 0,000 mm 2,8 UV-I 670 W/m 6,8 C 13,2 C 4,8 km/h (1 Bft) 95,65 %
18.09.2019 11:11 13,3 C 17,8 C 64 % 1024,9 hPa 0,0 l/m 3,2 km/h (1 Bft) W 270 0,000 mm 2,8 UV-I 670 W/m 6,6 C 13,3 C 4,8 km/h (1 Bft) 95,65 %
18.09.2019 11:10 13,3 C 17,8 C 67 % 1024,9 hPa 0,0 l/m 3,2 km/h (1 Bft) W 270 0,000 mm 2,8 UV-I 663 W/m 7,3 C 13,3 C 4,8 km/h (1 Bft) 95,65 %
18.09.2019 11:09 13,2 C 17,2 C 65 % 1024,9 hPa 0,0 l/m 3,2 km/h (1 Bft) W 270 0,000 mm 2,8 UV-I 668 W/m 6,8 C 13,2 C 4,8 km/h (1 Bft) 95,65 %
18.09.2019 11:08 13,2 C 17,2 C 67 % 1024,9 hPa 0,0 l/m 4,8 km/h (1 Bft) W-SW 247 0,000 mm 2,8 UV-I 663 W/m 7,2 C 13,2 C 6,4 km/h (2 Bft) 95,65 %
18.09.2019 11:07 13,1 C 17,2 C 67 % 1024,9 hPa 0,0 l/m 4,8 km/h (1 Bft) W-NW 292 0,000 mm 2,8 UV-I 661 W/m 7,1 C 13,1 C 6,4 km/h (2 Bft) 95,65 %
18.09.2019 11:06 13,1 C 17,2 C 69 % 1024,9 hPa 0,0 l/m 4,8 km/h (1 Bft) W-NW 292 0,000 mm 2,7 UV-I 654 W/m 7,5 C 13,1 C 8,0 km/h (2 Bft) 100,00 %
18.09.2019 11:05 12,9 C 17,2 C 69 % 1025,0 hPa 0,0 l/m 3,2 km/h (1 Bft) W 270 0,000 mm 2,7 UV-I 654 W/m 7,4 C 12,9 C 4,8 km/h (1 Bft) 73,91 %
18.09.2019 11:04 12,8 C 17,2 C 68 % 1025,0 hPa 0,0 l/m 1,6 km/h (1 Bft) W 270 0,000 mm 2,7 UV-I 647 W/m 7,0 C 12,8 C 4,8 km/h (1 Bft) 69,57 %
18.09.2019 11:03 12,8 C 17,2 C 69 % 1024,9 hPa 0,0 l/m 0,0 km/h (0 Bft) W 270 0,000 mm 2,7 UV-I 645 W/m 7,3 C 12,8 C 1,6 km/h (1 Bft) 78,26 %
18.09.2019 11:02 12,8 C 17,2 C 64 % 1024,9 hPa 0,0 l/m 0,0 km/h (0 Bft) N 0 0,000 mm 2,6 UV-I 640 W/m 6,2 C 12,8 C 0,0 km/h (0 Bft) 95,65 %
18.09.2019 11:01 12,9 C 17,2 C 65 % 1024,9 hPa 0,0 l/m 1,6 km/h (1 Bft) W 270 0,000 mm 2,6 UV-I 638 W/m 6,5 C 12,9 C 3,2 km/h (1 Bft) 86,96 %
18.09.2019 11:00 13,0 C 17,2 C 66 % 1024,9 hPa 0,0 l/m 4,8 km/h (1 Bft) W 270 0,305 mm 2,6 UV-I 638 W/m 6,8 C 13,0 C 6,4 km/h (2 Bft) 95,65 %
18.09.2019 10:59 12,9 C 17,2 C 65 % 1025,0 hPa 0,0 l/m 3,2 km/h (1 Bft) W 270 0,000 mm 2,6 UV-I 636 W/m 6,5 C 12,9 C 4,8 km/h (1 Bft) 95,65 %
18.09.2019 10:58 13,1 C 17,2 C 63 % 1024,9 hPa 0,0 l/m 3,2 km/h (1 Bft) W 270 0,000 mm 2,6 UV-I 636 W/m 6,2 C 13,1 C 4,8 km/h (1 Bft) 91,30 %
18.09.2019 10:57 13,3 C 16,7 C 63 % 1025,0 hPa 0,0 l/m 3,2 km/h (1 Bft) W 270 0,000 mm 2,6 UV-I 635 W/m 6,4 C 13,3 C 4,8 km/h (1 Bft) 95,65 %
18.09.2019 10:56 13,4 C 16,7 C 68 % 1025,0 hPa 0,0 l/m 3,2 km/h (1 Bft) W 270 0,000 mm 2,6 UV-I 633 W/m 7,6 C 13,4 C 4,8 km/h (1 Bft) 91,30 %
18.09.2019 10:55 13,2 C 16,7 C 70 % 1024,9 hPa 0,0 l/m 4,8 km/h (1 Bft) W-SW 247 0,000 mm 2,5 UV-I 631 W/m 7,9 C 13,2 C 6,4 km/h (2 Bft) 100,00 %
18.09.2019 10:54 13,1 C 17,2 C 69 % 1024,9 hPa 0,0 l/m 4,8 km/h (1 Bft) W-SW 247 0,000 mm 2,5 UV-I 631 W/m 7,5 C 13,1 C 6,4 km/h (2 Bft) 95,65 %
18.09.2019 10:53 13,0 C 17,2 C 70 % 1024,9 hPa 0,0 l/m 0,0 km/h (0 Bft) W-NW 292 0,000 mm 2,5 UV-I 628 W/m 7,7 C 13,0 C 1,6 km/h (1 Bft) 95,65 %
18.09.2019 10:52 12,8 C 17,2 C 68 % 1025,0 hPa 0,0 l/m 0,0 km/h (0 Bft) W-NW 292 0,000 mm 2,5 UV-I 629 W/m 7,0 C 12,8 C 1,6 km/h (1 Bft) 95,65 %
18.09.2019 10:51 12,7 C 17,8 C 70 % 1024,9 hPa 0,0 l/m 3,2 km/h (1 Bft) W-NW 292 0,000 mm 2,5 UV-I 629 W/m 7,4 C 12,7 C 4,8 km/h (1 Bft) 91,30 %
18.09.2019 10:50 12,4 C 17,8 C 68 % 1024,8 hPa 0,0 l/m 3,2 km/h (1 Bft) W 270 0,000 mm 2,4 UV-I 626 W/m 6,7 C 12,4 C 4,8 km/h (1 Bft) 91,30 %
18.09.2019 10:49 12,4 C 17,2 C 70 % 1024,8 hPa 0,0 l/m 4,8 km/h (1 Bft) W-SW 247 0,000 mm 2,4 UV-I 628 W/m 7,1 C 12,4 C 4,8 km/h (1 Bft) 86,96 %
18.09.2019 10:48 12,3 C 17,2 C 67 % 1024,8 hPa 0,0 l/m 4,8 km/h (1 Bft) W-SW 247 0,000 mm 2,4 UV-I 622 W/m 6,4 C 12,3 C 6,4 km/h (2 Bft) 73,91 %
18.09.2019 10:47 12,3 C 17,2 C 66 % 1024,8 hPa 0,0 l/m 3,2 km/h (1 Bft) W-SW 247 0,000 mm 2,4 UV-I 621 W/m 6,1 C 12,3 C 4,8 km/h (1 Bft) 65,22 %
18.09.2019 10:46 12,4 C 17,2 C 69 % 1024,8 hPa 0,0 l/m 1,6 km/h (1 Bft) W-SW 247 0,000 mm 2,4 UV-I 621 W/m 6,9 C 12,4 C 3,2 km/h (1 Bft) 78,26 %
18.09.2019 10:45 12,4 C 16,7 C 68 % 1024,8 hPa 0,0 l/m 0,0 km/h (0 Bft) W-SW 247 0,000 mm 2,3 UV-I 613 W/m 6,7 C 12,4 C 1,6 km/h (1 Bft) 95,65 %
18.09.2019 10:44 12,3 C 16,7 C 68 % 1024,8 hPa 0,0 l/m 1,6 km/h (1 Bft) W-SW 247 0,000 mm 2,3 UV-I 612 W/m 6,6 C 12,3 C 4,8 km/h (1 Bft) 95,65 %
18.09.2019 10:43 12,3 C 16,7 C 65 % 1024,8 hPa 0,0 l/m 1,6 km/h (1 Bft) W-SW 247 0,000 mm 2,3 UV-I 610 W/m 5,9 C 12,3 C 3,2 km/h (1 Bft) 91,30 %
18.09.2019 10:42 12,4 C 17,2 C 69 % 1024,8 hPa 0,0 l/m 1,6 km/h (1 Bft) W-SW 247 0,000 mm 2,3 UV-I 610 W/m 6,9 C 12,4 C 3,2 km/h (1 Bft) 91,30 %
18.09.2019 10:41 12,3 C 17,2 C 69 % 1024,8 hPa 0,0 l/m 3,2 km/h (1 Bft) W-SW 247 0,000 mm 2,3 UV-I 610 W/m 6,8 C 12,3 C 4,8 km/h (1 Bft) 86,96 %
18.09.2019 10:40 12,2 C 17,2 C 68 % 1024,9 hPa 0,0 l/m 3,2 km/h (1 Bft) W-SW 247 0,000 mm 2,3 UV-I 610 W/m 6,5 C 12,2 C 4,8 km/h (1 Bft) 86,96 %
18.09.2019 10:39 12,3 C 16,7 C 66 % 1024,8 hPa 0,0 l/m 3,2 km/h (1 Bft) W-SW 247 0,000 mm 2,3 UV-I 608 W/m 6,1 C 12,3 C 4,8 km/h (1 Bft) 100,00 %
18.09.2019 10:38 12,6 C 16,7 C 66 % 1024,9 hPa 0,0 l/m 3,2 km/h (1 Bft) W-SW 247 0,000 mm 2,3 UV-I 606 W/m 6,4 C 12,6 C 4,8 km/h (1 Bft) 86,96 %
18.09.2019 10:37 12,7 C 16,7 C 67 % 1024,9 hPa 0,0 l/m 3,2 km/h (1 Bft) W-SW 247 0,000 mm 2,3 UV-I 605 W/m 6,7 C 12,7 C 3,2 km/h (1 Bft) 91,30 %
18.09.2019 10:36 12,8 C 16,7 C 68 % 1024,9 hPa 0,0 l/m 1,6 km/h (1 Bft) W-SW 247 0,000 mm 2,3 UV-I 605 W/m 7,0 C 12,8 C 3,2 km/h (1 Bft) 86,96 %
18.09.2019 10:35 12,8 C 16,1 C 68 % 1024,8 hPa 0,0 l/m 1,6 km/h (1 Bft) W-SW 247 0,000 mm 2,3 UV-I 603 W/m 7,0 C 12,8 C 3,2 km/h (1 Bft) 91,30 %
18.09.2019 10:34 12,8 C 16,1 C 72 % 1024,9 hPa 0,0 l/m 3,2 km/h (1 Bft) W-SW 247 0,000 mm 2,2 UV-I 598 W/m 7,9 C 12,8 C 4,8 km/h (1 Bft) 82,61 %
18.09.2019 10:33 12,5 C 16,1 C 69 % 1024,9 hPa 0,0 l/m 3,2 km/h (1 Bft) W-SW 247 0,000 mm 2,2 UV-I 591 W/m 7,0 C 12,5 C 4,8 km/h (1 Bft) 78,26 %
18.09.2019 10:32 12,3 C 16,1 C 73 % 1024,9 hPa 0,0 l/m 0,0 km/h (0 Bft) W-SW 247 0,000 mm 2,2 UV-I 591 W/m 7,6 C 12,3 C 1,6 km/h (1 Bft) 91,30 %
18.09.2019 10:31 12,2 C 16,1 C 70 % 1024,9 hPa 0,0 l/m 1,6 km/h (1 Bft) W-SW 247 0,000 mm 2,2 UV-I 589 W/m 6,9 C 12,2 C 1,6 km/h (1 Bft) 82,61 %
18.09.2019 10:30 12,3 C 16,1 C 70 % 1024,9 hPa 0,0 l/m 0,0 km/h (0 Bft) W-SW 247 0,000 mm 2,2 UV-I 589 W/m 7,0 C 12,3 C 1,6 km/h (1 Bft) 82,61 %
18.09.2019 10:29 12,3 C 16,1 C 70 % 1024,8 hPa 0,0 l/m 1,6 km/h (1 Bft) W-SW 247 0,000 mm 2,1 UV-I 584 W/m 7,0 C 12,3 C 3,2 km/h (1 Bft) 82,61 %
18.09.2019 10:28 12,4 C 16,1 C 69 % 1024,8 hPa 0,0 l/m 3,2 km/h (1 Bft) W-SW 247 0,000 mm 2,1 UV-I 584 W/m 6,9 C 12,4 C 4,8 km/h (1 Bft) 86,96 %
18.09.2019 10:27 12,6 C 16,1 C 67 % 1024,8 hPa 0,0 l/m 0,0 km/h (0 Bft) W-SW 247 0,000 mm 2,1 UV-I 580 W/m 6,6 C 12,6 C 4,8 km/h (1 Bft) 86,96 %
18.09.2019 10:26 12,7 C 16,1 C 71 % 1024,8 hPa 0,0 l/m 0,0 km/h (0 Bft) W-SW 247 0,000 mm 2,1 UV-I 578 W/m 7,6 C 12,7 C 1,6 km/h (1 Bft) 86,96 %
18.09.2019 10:25 12,4 C 16,1 C 73 % 1024,8 hPa 0,0 l/m 0,0 km/h (0 Bft) W-SW 247 0,000 mm 2,1 UV-I 575 W/m 7,7 C 12,4 C 3,2 km/h (1 Bft) 73,91 %
18.09.2019 10:24 12,2 C 16,1 C 71 % 1024,7 hPa 0,0 l/m 1,6 km/h (1 Bft) W-SW 247 0,000 mm 2,0 UV-I 571 W/m 7,1 C 12,2 C 3,2 km/h (1 Bft) 82,61 %
18.09.2019 10:23 12,2 C 16,1 C 72 % 1024,7 hPa 0,0 l/m 1,6 km/h (1 Bft) W-SW 247 0,000 mm 2,0 UV-I 570 W/m 7,3 C 12,2 C 3,2 km/h (1 Bft) 86,96 %
18.09.2019 10:22 12,1 C 16,1 C 72 % 1024,7 hPa 0,0 l/m 1,6 km/h (1 Bft) W-SW 247 0,000 mm 2,0 UV-I 568 W/m 7,2 C 12,1 C 3,2 km/h (1 Bft) 65,22 %
18.09.2019 10:21 12,0 C 16,1 C 71 % 1024,7 hPa 0,0 l/m 0,0 km/h (0 Bft) W 270 0,000 mm 1,9 UV-I 563 W/m 6,9 C 12,0 C 3,2 km/h (1 Bft) 91,30 %
18.09.2019 10:20 12,0 C 16,1 C 71 % 1024,8 hPa 0,0 l/m 0,0 km/h (0 Bft) W-SW 247 0,000 mm 1,9 UV-I 563 W/m 6,9 C 12,0 C 1,6 km/h (1 Bft) 56,52 %
18.09.2019 10:19 11,9 C 16,7 C 68 % 1024,8 hPa 0,0 l/m 1,6 km/h (1 Bft) W-SW 247 0,000 mm 1,9 UV-I 561 W/m 6,2 C 11,9 C 3,2 km/h (1 Bft) 73,91 %
18.09.2019 10:18 11,9 C 16,7 C 71 % 1024,8 hPa 0,0 l/m 1,6 km/h (1 Bft) W-SW 247 0,000 mm 1,9 UV-I 552 W/m 6,8 C 11,9 C 3,2 km/h (1 Bft) 95,65 %
18.09.2019 10:17 12,1 C 16,7 C 71 % 1024,8 hPa 0,0 l/m 1,6 km/h (1 Bft) W-SW 247 0,000 mm 1,9 UV-I 552 W/m 7,0 C 12,1 C 3,2 km/h (1 Bft) 100,00 %
18.09.2019 10:16 12,0 C 17,2 C 71 % 1024,8 hPa 0,0 l/m 3,2 km/h (1 Bft) W-SW 247 0,000 mm 1,8 UV-I 552 W/m 6,9 C 12,0 C 4,8 km/h (1 Bft) 78,26 %
18.09.2019 10:15 11,9 C 16,7 C 70 % 1024,8 hPa 0,0 l/m 3,2 km/h (1 Bft) W-SW 247 0,000 mm 1,8 UV-I 548 W/m 6,6 C 11,9 C 4,8 km/h (1 Bft) 82,61 %
18.09.2019 10:14 11,9 C 16,7 C 70 % 1024,8 hPa 0,0 l/m 3,2 km/h (1 Bft) W-SW 247 0,000 mm 1,8 UV-I 543 W/m 6,6 C 11,9 C 4,8 km/h (1 Bft) 82,61 %
18.09.2019 10:13 11,9 C 16,7 C 70 % 1024,8 hPa 0,0 l/m 3,2 km/h (1 Bft) W-SW 247 0,000 mm 1,8 UV-I 543 W/m 6,6 C 11,9 C 4,8 km/h (1 Bft) 91,30 %
18.09.2019 10:12 11,9 C 16,7 C 70 % 1024,7 hPa 0,0 l/m 4,8 km/h (1 Bft) W 270 0,000 mm 1,8 UV-I 540 W/m 6,6 C 11,9 C 6,4 km/h (2 Bft) 100,00 %
18.09.2019 10:11 11,9 C 16,7 C 68 % 1024,8 hPa 0,0 l/m 3,2 km/h (1 Bft) W 270 0,000 mm 1,7 UV-I 540 W/m 6,2 C 11,9 C 4,8 km/h (1 Bft) 100,00 %
18.09.2019 10:10 12,0 C 16,7 C 71 % 1024,8 hPa 0,0 l/m 4,8 km/h (1 Bft) W 270 0,000 mm 1,7 UV-I 538 W/m 6,9 C 12,0 C 4,8 km/h (1 Bft) 100,00 %
18.09.2019 10:09 12,0 C 16,7 C 69 % 1024,8 hPa 0,0 l/m 3,2 km/h (1 Bft) W 270 0,000 mm 1,7 UV-I 534 W/m 6,5 C 12,0 C 4,8 km/h (1 Bft) 95,65 %
18.09.2019 10:08 12,0 C 16,7 C 70 % 1024,8 hPa 0,0 l/m 3,2 km/h (1 Bft) W 270 0,000 mm 1,7 UV-I 533 W/m 6,7 C 12,0 C 3,2 km/h (1 Bft) 95,65 %
18.09.2019 10:07 11,9 C 16,7 C 72 % 1024,8 hPa 0,0 l/m 3,2 km/h (1 Bft) W 270 0,000 mm 1,7 UV-I 531 W/m 7,0 C 11,9 C 4,8 km/h (1 Bft) 100,00 %
18.09.2019 10:06 11,7 C 16,7 C 70 % 1024,8 hPa 0,0 l/m 4,8 km/h (1 Bft) W-NW 292 0,000 mm 1,7 UV-I 527 W/m 6,4 C 11,7 C 6,4 km/h (2 Bft) 100,00 %
18.09.2019 10:05 11,7 C 16,1 C 69 % 1024,8 hPa 0,0 l/m 3,2 km/h (1 Bft) W-SW 247 0,000 mm 1,7 UV-I 526 W/m 6,2 C 11,7 C 4,8 km/h (1 Bft) 95,65 %
18.09.2019 10:04 11,8 C 16,1 C 67 % 1024,7 hPa 0,0 l/m 4,8 km/h (1 Bft) W-SW 247 0,000 mm 1,6 UV-I 524 W/m 5,9 C 11,8 C 6,4 km/h (2 Bft) 100,00 %
18.09.2019 10:03 12,0 C 16,1 C 69 % 1024,8 hPa 0,0 l/m 3,2 km/h (1 Bft) W-SW 247 0,000 mm 1,6 UV-I 522 W/m 6,5 C 12,0 C 6,4 km/h (2 Bft) 86,96 %
18.09.2019 10:02 11,9 C 15,6 C 70 % 1024,8 hPa 0,0 l/m 3,2 km/h (1 Bft) W-SW 247 0,000 mm 1,6 UV-I 520 W/m 6,6 C 11,9 C 4,8 km/h (1 Bft) 100,00 %
18.09.2019 10:01 11,7 C 15,6 C 72 % 1024,7 hPa 0,0 l/m 4,8 km/h (1 Bft) W-SW 247 0,000 mm 1,6 UV-I 517 W/m 6,8 C 11,7 C 4,8 km/h (1 Bft) 95,65 %
18.09.2019 10:00 11,4 C 15,6 C 71 % 1024,8 hPa 0,0 l/m 4,8 km/h (1 Bft) W-SW 247 0,203 mm 1,6 UV-I 515 W/m 6,3 C 11,4 C 4,8 km/h (1 Bft) 95,65 %
18.09.2019 09:59 11,3 C 15,6 C 68 % 1024,8 hPa 0,0 l/m 3,2 km/h (1 Bft) W-SW 247 0,000 mm 1,6 UV-I 512 W/m 5,6 C 11,3 C 4,8 km/h (1 Bft) 82,61 %
18.09.2019 09:58 11,4 C 15,6 C 69 % 1024,8 hPa 0,0 l/m 3,2 km/h (1 Bft) W-SW 247 0,000 mm 1,6 UV-I 506 W/m 5,9 C 11,4 C 4,8 km/h (1 Bft) 100,00 %
18.09.2019 09:57 11,3 C 15,6 C 70 % 1024,8 hPa 0,0 l/m 4,8 km/h (1 Bft) W-SW 247 0,000 mm 1,5 UV-I 504 W/m 6,0 C 11,3 C 6,4 km/h (2 Bft) 95,65 %
18.09.2019 09:56 11,3 C 15,6 C 71 % 1024,7 hPa 0,0 l/m 3,2 km/h (1 Bft) W-SW 247 0,000 mm 1,5 UV-I 503 W/m 6,2 C 11,3 C 4,8 km/h (1 Bft) 100,00 %
18.09.2019 09:55 11,3 C 15,6 C 67 % 1024,7 hPa 0,0 l/m 3,2 km/h (1 Bft) W-SW 247 0,000 mm 1,5 UV-I 503 W/m 5,4 C 11,3 C 4,8 km/h (1 Bft) 100,00 %
18.09.2019 09:54 11,3 C 15,0 C 68 % 1024,8 hPa 0,0 l/m 3,2 km/h (1 Bft) W-SW 247 0,000 mm 1,5 UV-I 501 W/m 5,6 C 11,3 C 4,8 km/h (1 Bft) 95,65 %
18.09.2019 09:53 11,4 C 15,0 C 67 % 1024,8 hPa 0,0 l/m 3,2 km/h (1 Bft) W-SW 247 0,000 mm 1,5 UV-I 496 W/m 5,5 C 11,4 C 4,8 km/h (1 Bft) 91,30 %
18.09.2019 09:52 11,5 C 15,0 C 68 % 1024,7 hPa 0,0 l/m 1,6 km/h (1 Bft) W-SW 247 0,000 mm 1,5 UV-I 490 W/m 5,8 C 11,5 C 3,2 km/h (1 Bft) 100,00 %
18.09.2019 09:51 11,3 C 14,4 C 71 % 1024,8 hPa 0,0 l/m 1,6 km/h (1 Bft) W-SW 247 0,000 mm 1,4 UV-I 489 W/m 6,2 C 11,3 C 3,2 km/h (1 Bft) 78,26 %
18.09.2019 09:50 11,1 C 14,4 C 68 % 1024,8 hPa 0,0 l/m 1,6 km/h (1 Bft) W-SW 247 0,000 mm 1,4 UV-I 487 W/m 5,4 C 11,1 C 4,8 km/h (1 Bft) 82,61 %
18.09.2019 09:49 11,0 C 14,4 C 68 % 1024,7 hPa 0,0 l/m 1,6 km/h (1 Bft) W-SW 247 0,000 mm 1,4 UV-I 485 W/m 5,3 C 11,0 C 3,2 km/h (1 Bft) 95,65 %
18.09.2019 09:48 11,1 C 13,9 C 67 % 1024,8 hPa 0,0 l/m 1,6 km/h (1 Bft) W-SW 247 0,000 mm 1,4 UV-I 485 W/m 5,2 C 11,1 C 3,2 km/h (1 Bft) 91,30 %
18.09.2019 09:47 11,1 C 14,4 C 66 % 1024,7 hPa 0,0 l/m 3,2 km/h (1 Bft) W-SW 247 0,000 mm 1,4 UV-I 482 W/m 5,0 C 11,1 C 4,8 km/h (1 Bft) 95,65 %
18.09.2019 09:46 11,2 C 13,9 C 69 % 1024,7 hPa 0,0 l/m 1,6 km/h (1 Bft) W-SW 247 0,000 mm 1,4 UV-I 473 W/m 5,7 C 11,2 C 1,6 km/h (1 Bft) 82,61 %
18.09.2019 09:45 11,0 C 13,9 C 73 % 1024,7 hPa 0,0 l/m 0,0 km/h (0 Bft) W-SW 247 0,000 mm 1,4 UV-I 471 W/m 6,4 C 11,0 C 1,6 km/h (1 Bft) 69,57 %
18.09.2019 09:44 10,8 C 13,9 C 71 % 1024,7 hPa 0,0 l/m 1,6 km/h (1 Bft) W-SW 247 0,000 mm 1,4 UV-I 471 W/m 5,8 C 10,8 C 1,6 km/h (1 Bft) 60,87 %
18.09.2019 09:43 10,7 C 13,9 C 68 % 1024,7 hPa 0,0 l/m 0,0 km/h (0 Bft) W-SW 247 0,000 mm 1,3 UV-I 469 W/m 5,0 C 10,7 C 1,6 km/h (1 Bft) 73,91 %
18.09.2019 09:42 10,7 C 13,9 C 70 % 1024,7 hPa 0,0 l/m 0,0 km/h (0 Bft) W-SW 247 0,000 mm 1,3 UV-I 471 W/m 5,5 C 10,7 C 1,6 km/h (1 Bft) 69,57 %
18.09.2019 09:41 10,7 C 13,9 C 69 % 1024,7 hPa 0,0 l/m 0,0 km/h (0 Bft) W-SW 247 0,000 mm 1,3 UV-I 464 W/m 5,2 C 10,7 C 1,6 km/h (1 Bft) 82,61 %
18.09.2019 09:40 10,7 C 14,4 C 69 % 1024,7 hPa 0,0 l/m 0,0 km/h (0 Bft) W-SW 247 0,000 mm 1,3 UV-I 461 W/m 5,2 C 10,7 C 1,6 km/h (1 Bft) 82,61 %
18.09.2019 09:39 10,8 C 14,4 C 70 % 1024,7 hPa 0,0 l/m 0,0 km/h (0 Bft) N 0 0,000 mm 1,3 UV-I 462 W/m 5,6 C 10,8 C 0,0 km/h (0 Bft) 91,30 %
18.09.2019 09:38 10,8 C 13,9 C 69 % 1024,6 hPa 0,0 l/m 0,0 km/h (0 Bft) W-SW 247 0,000 mm 1,3 UV-I 461 W/m 5,3 C 10,8 C 1,6 km/h (1 Bft) 91,30 %
18.09.2019 09:37 10,7 C 13,9 C 68 % 1024,6 hPa 0,0 l/m 1,6 km/h (1 Bft) W-SW 247 0,000 mm 1,3 UV-I 459 W/m 5,0 C 10,7 C 3,2 km/h (1 Bft) 95,65 %
18.09.2019 09:36 10,7 C 13,9 C 69 % 1024,6 hPa 0,0 l/m 1,6 km/h (1 Bft) W-SW 247 0,000 mm 1,3 UV-I 457 W/m 5,2 C 10,7 C 1,6 km/h (1 Bft) 91,30 %
18.09.2019 09:35 10,6 C 13,9 C 70 % 1024,6 hPa 0,0 l/m 0,0 km/h (0 Bft) W-SW 247 0,000 mm 1,2 UV-I 454 W/m 5,4 C 10,6 C 1,6 km/h (1 Bft) 95,65 %
18.09.2019 09:34 10,5 C 13,9 C 71 % 1024,6 hPa 0,0 l/m 0,0 km/h (0 Bft) W-SW 247 0,000 mm 1,2 UV-I 446 W/m 5,5 C 10,5 C 1,6 km/h (1 Bft) 73,91 %
18.09.2019 09:33 10,4 C 13,9 C 66 % 1024,7 hPa 0,0 l/m 0,0 km/h (0 Bft) N 0 0,000 mm 1,2 UV-I 446 W/m 4,3 C 10,4 C 0,0 km/h (0 Bft) 91,30 %
18.09.2019 09:32 10,3 C 13,9 C 65 % 1024,6 hPa 0,0 l/m 0,0 km/h (0 Bft) W-SW 247 0,000 mm 1,2 UV-I 443 W/m 4,0 C 10,3 C 1,6 km/h (1 Bft) 100,00 %
18.09.2019 09:31 10,5 C 13,3 C 67 % 1024,7 hPa 0,0 l/m 0,0 km/h (0 Bft) W-SW 247 0,000 mm 1,2 UV-I 439 W/m 4,6 C 10,5 C 1,6 km/h (1 Bft) 95,65 %
18.09.2019 09:30 10,7 C 13,9 C 67 % 1024,7 hPa 0,0 l/m 0,0 km/h (0 Bft) W-SW 247 0,000 mm 1,2 UV-I 436 W/m 4,8 C 10,7 C 1,6 km/h (1 Bft) 91,30 %
18.09.2019 09:29 10,7 C 13,9 C 68 % 1024,7 hPa 0,0 l/m 0,0 km/h (0 Bft) W-SW 247 0,000 mm 1,1 UV-I 432 W/m 5,0 C 10,7 C 1,6 km/h (1 Bft) 82,61 %
18.09.2019 09:28 10,8 C 13,9 C 68 % 1024,8 hPa 0,0 l/m 1,6 km/h (1 Bft) W-SW 247 0,000 mm 1,1 UV-I 431 W/m 5,1 C 10,8 C 3,2 km/h (1 Bft) 69,57 %
18.09.2019 09:27 10,8 C 13,9 C 73 % 1024,8 hPa 0,0 l/m 0,0 km/h (0 Bft) W-SW 247 0,000 mm 1,1 UV-I 427 W/m 6,2 C 10,8 C 1,6 km/h (1 Bft) 91,30 %
18.09.2019 09:26 10,6 C 13,9 C 69 % 1024,7 hPa 0,0 l/m 1,6 km/h (1 Bft) W-SW 247 0,000 mm 1,1 UV-I 425 W/m 5,2 C 10,6 C 3,2 km/h (1 Bft) 95,65 %
18.09.2019 09:25 10,5 C 13,9 C 68 % 1024,7 hPa 0,0 l/m 1,6 km/h (1 Bft) W-SW 247 0,000 mm 1,1 UV-I 424 W/m 4,8 C 10,5 C 4,8 km/h (1 Bft) 100,00 %
18.09.2019 09:24 10,5 C 13,9 C 68 % 1024,7 hPa 0,0 l/m 3,2 km/h (1 Bft) SW 225 0,000 mm 1,1 UV-I 418 W/m 4,8 C 10,5 C 6,4 km/h (2 Bft) 100,00 %
18.09.2019 09:23 10,6 C 13,9 C 69 % 1024,7 hPa 0,0 l/m 3,2 km/h (1 Bft) W 270 0,000 mm 1,1 UV-I 415 W/m 5,2 C 10,6 C 6,4 km/h (2 Bft) 100,00 %
18.09.2019 09:22 10,6 C 13,9 C 68 % 1024,7 hPa 0,0 l/m 1,6 km/h (1 Bft) W 270 0,000 mm 1,0 UV-I 411 W/m 4,9 C 10,6 C 1,6 km/h (1 Bft) 86,96 %
18.09.2019 09:21 10,6 C 13,3 C 70 % 1024,7 hPa 0,0 l/m 3,2 km/h (1 Bft) W 270 0,000 mm 1,0 UV-I 408 W/m 5,4 C 10,6 C 3,2 km/h (1 Bft) 100,00 %
18.09.2019 09:20 10,6 C 13,9 C 71 % 1024,7 hPa 0,0 l/m 0,0 km/h (0 Bft) W 270 0,000 mm 1,0 UV-I 406 W/m 5,6 C 10,6 C 3,2 km/h (1 Bft) 91,30 %
18.09.2019 09:19 10,5 C 13,9 C 71 % 1024,6 hPa 0,0 l/m 3,2 km/h (1 Bft) W 270 0,000 mm 1,0 UV-I 406 W/m 5,5 C 10,5 C 4,8 km/h (1 Bft) 91,30 %
18.09.2019 09:18 10,4 C 13,9 C 71 % 1024,6 hPa 0,0 l/m 3,2 km/h (1 Bft) W 270 0,000 mm 1,0 UV-I 403 W/m 5,4 C 10,4 C 4,8 km/h (1 Bft) 95,65 %
18.09.2019 09:17 10,3 C 13,9 C 68 % 1024,7 hPa 0,0 l/m 1,6 km/h (1 Bft) S-SW 202 0,000 mm 1,0 UV-I 399 W/m 4,7 C 10,3 C 3,2 km/h (1 Bft) 91,30 %
18.09.2019 09:16 10,3 C 13,9 C 69 % 1024,7 hPa 0,0 l/m 1,6 km/h (1 Bft) S-SW 202 0,000 mm 1,0 UV-I 394 W/m 4,9 C 10,3 C 3,2 km/h (1 Bft) 100,00 %
18.09.2019 09:15 10,3 C 13,3 C 70 % 1024,6 hPa 0,0 l/m 1,6 km/h (1 Bft) S-SW 202 0,000 mm 1,0 UV-I 392 W/m 5,1 C 10,3 C 3,2 km/h (1 Bft) 69,57 %
18.09.2019 09:14 10,2 C 13,3 C 68 % 1024,6 hPa 0,0 l/m 3,2 km/h (1 Bft) S-SW 202 0,000 mm 0,9 UV-I 390 W/m 4,6 C 10,2 C 4,8 km/h (1 Bft) 100,00 %
18.09.2019 09:13 10,2 C 13,3 C 69 % 1024,6 hPa 0,0 l/m 3,2 km/h (1 Bft) S-SW 202 0,000 mm 0,9 UV-I 390 W/m 4,8 C 10,2 C 4,8 km/h (1 Bft) 95,65 %
18.09.2019 09:12 10,2 C 13,3 C 69 % 1024,6 hPa 0,0 l/m 0,0 km/h (0 Bft) W-SW 247 0,000 mm 0,9 UV-I 390 W/m 4,8 C 10,2 C 1,6 km/h (1 Bft) 82,61 %
18.09.2019 09:11 10,2 C 13,3 C 71 % 1024,6 hPa 0,0 l/m 0,0 km/h (0 Bft) W-SW 247 0,000 mm 0,9 UV-I 385 W/m 5,2 C 10,2 C 1,6 km/h (1 Bft) 86,96 %
18.09.2019 09:10 10,1 C 13,3 C 70 % 1024,5 hPa 0,0 l/m 1,6 km/h (1 Bft) W-SW 247 0,000 mm 0,9 UV-I 383 W/m 4,9 C 10,1 C 1,6 km/h (1 Bft) 91,30 %
18.09.2019 09:09 10,1 C 13,3 C 68 % 1024,5 hPa 0,0 l/m 1,6 km/h (1 Bft) W-SW 247 0,000 mm 0,9 UV-I 378 W/m 4,5 C 10,1 C 3,2 km/h (1 Bft) 82,61 %
18.09.2019 09:08 10,1 C 13,3 C 67 % 1024,4 hPa 0,0 l/m 1,6 km/h (1 Bft) W-SW 247 0,000 mm 0,9 UV-I 376 W/m 4,3 C 10,1 C 3,2 km/h (1 Bft) 82,61 %
18.09.2019 09:07 10,3 C 12,8 C 69 % 1024,5 hPa 0,0 l/m 0,0 km/h (0 Bft) W-SW 247 0,000 mm 0,9 UV-I 371 W/m 4,9 C 10,3 C 3,2 km/h (1 Bft) 91,30 %
18.09.2019 09:06 10,4 C 12,8 C 75 % 1024,5 hPa 0,0 l/m 1,6 km/h (1 Bft) W-SW 247 0,000 mm 0,8 UV-I 367 W/m 6,2 C 10,4 C 3,2 km/h (1 Bft) 100,00 %
18.09.2019 09:05 10,2 C 12,8 C 72 % 1024,6 hPa 0,0 l/m 1,6 km/h (1 Bft) W-SW 247 0,000 mm 0,8 UV-I 360 W/m 5,4 C 10,2 C 3,2 km/h (1 Bft) 86,96 %
18.09.2019 09:04 10,2 C 12,8 C 70 % 1024,5 hPa 0,0 l/m 3,2 km/h (1 Bft) W-SW 247 0,000 mm 0,8 UV-I 357 W/m 5,0 C 10,2 C 4,8 km/h (1 Bft) 78,26 %
18.09.2019 09:03 10,2 C 12,8 C 72 % 1024,5 hPa 0,0 l/m 1,6 km/h (1 Bft) S-SW 202 0,000 mm 0,8 UV-I 345 W/m 5,4 C 10,2 C 4,8 km/h (1 Bft) 91,30 %
18.09.2019 09:02 10,1 C 12,8 C 71 % 1024,4 hPa 0,0 l/m 1,6 km/h (1 Bft) W-SW 247 0,000 mm 0,8 UV-I 339 W/m 5,1 C 10,1 C 3,2 km/h (1 Bft) 78,26 %
18.09.2019 09:01 10,1 C 12,8 C 71 % 1024,4 hPa 0,0 l/m 1,6 km/h (1 Bft) W-SW 247 0,000 mm 0,8 UV-I 338 W/m 5,1 C 10,1 C 3,2 km/h (1 Bft) 73,91 %
18.09.2019 09:00 10,1 C 12,2 C 70 % 1024,4 hPa 0,0 l/m 3,2 km/h (1 Bft) W-SW 247 0,076 mm 0,8 UV-I 350 W/m 4,9 C 10,1 C 4,8 km/h (1 Bft) 91,30 %
18.09.2019 08:59 10,2 C 12,2 C 72 % 1024,4 hPa 0,0 l/m 3,2 km/h (1 Bft) W-SW 247 0,000 mm 0,8 UV-I 346 W/m 5,4 C 10,2 C 6,4 km/h (2 Bft) 91,30 %
18.09.2019 08:58 10,2 C 12,2 C 73 % 1024,4 hPa 0,0 l/m 1,6 km/h (1 Bft) W 270 0,000 mm 0,7 UV-I 348 W/m 5,6 C 10,2 C 3,2 km/h (1 Bft) 82,61 %
18.09.2019 08:57 9,9 C 12,2 C 75 % 1024,4 hPa 0,0 l/m 0,0 km/h (0 Bft) N 0 0,000 mm 0,7 UV-I 343 W/m 5,7 C 9,9 C 0,0 km/h (0 Bft) 95,65 %
18.09.2019 08:56 9,8 C 12,2 C 73 % 1024,4 hPa 0,0 l/m 1,6 km/h (1 Bft) W 270 0,000 mm 0,7 UV-I 346 W/m 5,2 C 9,8 C 3,2 km/h (1 Bft) 91,30 %
18.09.2019 08:55 9,8 C 12,2 C 75 % 1024,3 hPa 0,0 l/m 0,0 km/h (0 Bft) N 0 0,000 mm 0,7 UV-I 341 W/m 5,6 C 9,8 C 0,0 km/h (0 Bft) 78,26 %
18.09.2019 08:54 9,7 C 12,2 C 78 % 1024,3 hPa 0,0 l/m 0,0 km/h (0 Bft) W 270 0,000 mm 0,7 UV-I 332 W/m 6,1 C 9,7 C 1,6 km/h (1 Bft) 100,00 %
18.09.2019 08:53 9,6 C 11,7 C 74 % 1024,3 hPa 0,0 l/m 0,0 km/h (0 Bft) W 270 0,000 mm 0,7 UV-I 330 W/m 5,2 C 9,6 C 1,6 km/h (1 Bft) 91,30 %
18.09.2019 08:52 9,6 C 11,7 C 74 % 1024,3 hPa 0,0 l/m 0,0 km/h (0 Bft) W 270 0,000 mm 0,7 UV-I 325 W/m 5,2 C 9,6 C 1,6 km/h (1 Bft) 69,57 %
18.09.2019 08:51 9,6 C 11,7 C 75 % 1024,3 hPa 0,0 l/m 1,6 km/h (1 Bft) W 270 0,000 mm 0,7 UV-I 322 W/m 5,4 C 9,6 C 3,2 km/h (1 Bft) 91,30 %
18.09.2019 08:50 9,6 C 11,7 C 77 % 1024,3 hPa 0,0 l/m 1,6 km/h (1 Bft) W 270 0,000 mm 0,7 UV-I 315 W/m 5,8 C 9,6 C 4,8 km/h (1 Bft) 100,00 %
18.09.2019 08:49 9,5 C 11,7 C 76 % 1024,3 hPa 0,0 l/m 1,6 km/h (1 Bft) W 270 0,000 mm 0,6 UV-I 308 W/m 5,5 C 9,5 C 4,8 km/h (1 Bft) 100,00 %
18.09.2019 08:48 9,4 C 11,7 C 76 % 1024,4 hPa 0,0 l/m 1,6 km/h (1 Bft) W 270 0,000 mm 0,6 UV-I 306 W/m 5,4 C 9,4 C 4,8 km/h (1 Bft) 100,00 %
18.09.2019 08:47 9,3 C 11,7 C 77 % 1024,3 hPa 0,0 l/m 0,0 km/h (0 Bft) W 270 0,000 mm 0,6 UV-I 292 W/m 5,5 C 9,3 C 3,2 km/h (1 Bft) 100,00 %
18.09.2019 08:46 9,3 C 11,7 C 76 % 1024,3 hPa 0,0 l/m 0,0 km/h (0 Bft) W 270 0,000 mm 0,6 UV-I 279 W/m 5,3 C 9,3 C 1,6 km/h (1 Bft) 91,30 %
18.09.2019 08:45 9,4 C 11,7 C 78 % 1024,2 hPa 0,0 l/m 1,6 km/h (1 Bft) W 270 0,000 mm 0,6 UV-I 281 W/m 5,8 C 9,4 C 3,2 km/h (1 Bft) 100,00 %
18.09.2019 08:44 9,4 C 11,7 C 80 % 1024,2 hPa 0,0 l/m 1,6 km/h (1 Bft) W 270 0,000 mm 0,6 UV-I 288 W/m 6,1 C 9,4 C 3,2 km/h (1 Bft) 91,30 %
18.09.2019 08:43 9,3 C 11,7 C 79 % 1024,2 hPa 0,0 l/m 0,0 km/h (0 Bft) W 270 0,000 mm 0,6 UV-I 281 W/m 5,8 C 9,3 C 3,2 km/h (1 Bft) 91,30 %
18.09.2019 08:42 9,3 C 11,1 C 78 % 1024,2 hPa 0,0 l/m 0,0 km/h (0 Bft) W 270 0,000 mm 0,6 UV-I 278 W/m 5,7 C 9,3 C 1,6 km/h (1 Bft) 95,65 %
18.09.2019 08:41 9,2 C 11,1 C 79 % 1024,2 hPa 0,0 l/m 1,6 km/h (1 Bft) W 270 0,000 mm 0,5 UV-I 278 W/m 5,8 C 9,2 C 3,2 km/h (1 Bft) 100,00 %
18.09.2019 08:40 9,2 C 11,1 C 78 % 1024,2 hPa 0,0 l/m 0,0 km/h (0 Bft) W 270 0,000 mm 0,5 UV-I 279 W/m 5,6 C 9,2 C 1,6 km/h (1 Bft) 91,30 %
18.09.2019 08:39 9,1 C 10,6 C 79 % 1024,2 hPa 0,0 l/m 0,0 km/h (0 Bft) W 270 0,000 mm 0,5 UV-I 276 W/m 5,7 C 9,1 C 1,6 km/h (1 Bft) 100,00 %
18.09.2019 08:38 9,1 C 10,6 C 81 % 1024,2 hPa 0,0 l/m 1,6 km/h (1 Bft) W 270 0,000 mm 0,5 UV-I 278 W/m 6,0 C 9,1 C 3,2 km/h (1 Bft) 95,65 %
18.09.2019 08:37 8,9 C 10,6 C 81 % 1024,1 hPa 0,0 l/m 1,6 km/h (1 Bft) W 270 0,000 mm 0,5 UV-I 272 W/m 5,8 C 8,9 C 3,2 km/h (1 Bft) 91,30 %
18.09.2019 08:36 8,7 C 10,6 C 79 % 1024,2 hPa 0,0 l/m 1,6 km/h (1 Bft) W 270 0,000 mm 0,5 UV-I 267 W/m 5,3 C 8,7 C 3,2 km/h (1 Bft) 95,65 %
18.09.2019 08:35 8,7 C 10,0 C 80 % 1024,2 hPa 0,0 l/m 0,0 km/h (0 Bft) W 270 0,000 mm 0,5 UV-I 262 W/m 5,4 C 8,7 C 1,6 km/h (1 Bft) 95,65 %
18.09.2019 08:34 8,6 C 10,0 C 80 % 1024,2 hPa 0,0 l/m 0,0 km/h (0 Bft) W 270 0,000 mm 0,5 UV-I 255 W/m 5,3 C 8,6 C 1,6 km/h (1 Bft) 95,65 %
18.09.2019 08:33 8,5 C 10,0 C 82 % 1024,2 hPa 0,0 l/m 1,6 km/h (1 Bft) W 270 0,000 mm 0,5 UV-I 248 W/m 5,6 C 8,5 C 4,8 km/h (1 Bft) 95,65 %
18.09.2019 08:32 8,3 C 10,0 C 82 % 1024,0 hPa 0,0 l/m 1,6 km/h (1 Bft) W 270 0,000 mm 0,5 UV-I 244 W/m 5,4 C 8,3 C 3,2 km/h (1 Bft) 95,65 %
18.09.2019 08:31 8,2 C 9,4 C 81 % 1024,1 hPa 0,0 l/m 0,0 km/h (0 Bft) W 270 0,000 mm 0,0 UV-I 236 W/m 5,1 C 8,2 C 1,6 km/h (1 Bft) 95,65 %
18.09.2019 08:30 8,1 C 9,4 C 82 % 1024,1 hPa 0,0 l/m 0,0 km/h (0 Bft) N 0 0,000 mm 0,0 UV-I 220 W/m 5,2 C 8,1 C 0,0 km/h (0 Bft) 91,30 %
18.09.2019 08:29 7,9 C 9,4 C 82 % 1024,2 hPa 0,0 l/m 1,6 km/h (1 Bft) W 270 0,000 mm 0,0 UV-I 211 W/m 5,0 C 7,9 C 3,2 km/h (1 Bft) 95,65 %
18.09.2019 08:28 7,9 C 8,9 C 82 % 1024,0 hPa 0,0 l/m 1,6 km/h (1 Bft) W 270 0,000 mm 0,0 UV-I 209 W/m 5,0 C 7,9 C 3,2 km/h (1 Bft) 95,65 %
18.09.2019 08:27 7,8 C 8,9 C 82 % 1024,0 hPa 0,0 l/m 0,0 km/h (0 Bft) W 270 0,000 mm 0,0 UV-I 134 W/m 4,9 C 7,8 C 1,6 km/h (1 Bft) 100,00 %
18.09.2019 08:26 7,8 C 8,9 C 82 % 1024,0 hPa 0,0 l/m 0,0 km/h (0 Bft) W 270 0,000 mm 0,0 UV-I 97 W/m 4,9 C 7,8 C 1,6 km/h (1 Bft) 100,00 %
18.09.2019 08:25 7,8 C 8,9 C 83 % 1024,0 hPa 0,0 l/m 3,2 km/h (1 Bft) W 270 0,000 mm 0,0 UV-I 84 W/m 5,1 C 7,8 C 4,8 km/h (1 Bft) 95,65 %
18.09.2019 08:24 7,7 C 8,9 C 83 % 1024,0 hPa 0,0 l/m 0,0 km/h (0 Bft) W 270 0,000 mm 0,0 UV-I 62 W/m 5,0 C 7,7 C 1,6 km/h (1 Bft) 95,65 %
18.09.2019 08:23 7,7 C 8,9 C 83 % 1024,0 hPa 0,0 l/m 1,6 km/h (1 Bft) W 270 0,000 mm 0,0 UV-I 58 W/m 5,0 C 7,7 C 3,2 km/h (1 Bft) 95,65 %
18.09.2019 08:22 7,7 C 8,9 C 83 % 1024,1 hPa 0,0 l/m 3,2 km/h (1 Bft) W 270 0,000 mm 0,0 UV-I 54 W/m 5,0 C 7,7 C 3,2 km/h (1 Bft) 95,65 %
18.09.2019 08:21 7,7 C 8,9 C 83 % 1024,1 hPa 0,0 l/m 1,6 km/h (1 Bft) W 270 0,000 mm 0,0 UV-I 51 W/m 5,0 C 7,7 C 3,2 km/h (1 Bft) 100,00 %
18.09.2019 08:20 7,7 C 8,9 C 83 % 1024,0 hPa 0,0 l/m 1,6 km/h (1 Bft) W 270 0,000 mm 0,0 UV-I 49 W/m 5,0 C 7,7 C 3,2 km/h (1 Bft) 95,65 %
18.09.2019 08:19 7,7 C 8,9 C 84 % 1024,1 hPa 0,0 l/m 0,0 km/h (0 Bft) W 270 0,000 mm 0,0 UV-I 47 W/m 5,2 C 7,7 C 1,6 km/h (1 Bft) 100,00 %
18.09.2019 08:18 7,7 C 8,9 C 84 % 1024,1 hPa 0,0 l/m 3,2 km/h (1 Bft) W 270 0,000 mm 0,0 UV-I 46 W/m 5,2 C 7,7 C 4,8 km/h (1 Bft) 95,65 %
18.09.2019 08:17 7,6 C 8,9 C 84 % 1024,0 hPa 0,0 l/m 0,0 km/h (0 Bft) W 270 0,000 mm 0,0 UV-I 46 W/m 5,1 C 7,6 C 3,2 km/h (1 Bft) 91,30 %
18.09.2019 08:16 7,6 C 8,9 C 83 % 1024,0 hPa 0,0 l/m 1,6 km/h (1 Bft) W 270 0,000 mm 0,0 UV-I 47 W/m 4,9 C 7,6 C 3,2 km/h (1 Bft) 95,65 %
18.09.2019 08:15 7,6 C 8,9 C 83 % 1024,0 hPa 0,0 l/m 3,2 km/h (1 Bft) W 270 0,000 mm 0,0 UV-I 46 W/m 4,9 C 7,6 C 4,8 km/h (1 Bft) 100,00 %
18.09.2019 08:14 7,6 C 8,9 C 83 % 1024,0 hPa 0,0 l/m 1,6 km/h (1 Bft) W 270 0,000 mm 0,0 UV-I 46 W/m 4,9 C 7,6 C 4,8 km/h (1 Bft) 95,65 %
18.09.2019 08:13 7,6 C 8,9 C 83 % 1024,0 hPa 0,0 l/m 1,6 km/h (1 Bft) W 270 0,000 mm 0,0 UV-I 47 W/m 4,9 C 7,6 C 4,8 km/h (1 Bft) 91,30 %
18.09.2019 08:12 7,6 C 8,9 C 83 % 1023,9 hPa 0,0 l/m 3,2 km/h (1 Bft) W 270 0,000 mm 0,0 UV-I 44 W/m 4,9 C 7,6 C 4,8 km/h (1 Bft) 100,00 %
18.09.2019 08:11 7,6 C 8,9 C 83 % 1023,9 hPa 0,0 l/m 4,8 km/h (1 Bft) W 270 0,000 mm 0,0 UV-I 42 W/m 4,9 C 7,6 C 6,4 km/h (2 Bft) 95,65 %
18.09.2019 08:10 7,6 C 8,9 C 83 % 1023,9 hPa 0,0 l/m 3,2 km/h (1 Bft) W 270 0,000 mm 0,0 UV-I 44 W/m 4,9 C 7,6 C 4,8 km/h (1 Bft) 100,00 %
18.09.2019 08:09 7,6 C 8,9 C 83 % 1023,9 hPa 0,0 l/m 3,2 km/h (1 Bft) W-NW 292 0,000 mm 0,0 UV-I 44 W/m 4,9 C 7,6 C 4,8 km/h (1 Bft) 91,30 %
18.09.2019 08:08 7,6 C 8,9 C 83 % 1023,9 hPa 0,0 l/m 1,6 km/h (1 Bft) W-NW 292 0,000 mm 0,0 UV-I 44 W/m 4,9 C 7,6 C 4,8 km/h (1 Bft) 95,65 %
18.09.2019 08:07 7,6 C 8,3 C 84 % 1023,9 hPa 0,0 l/m 0,0 km/h (0 Bft) N 0 0,000 mm 0,0 UV-I 44 W/m 5,1 C 7,6 C 0,0 km/h (0 Bft) 95,65 %
18.09.2019 08:06 7,6 C 8,3 C 83 % 1023,9 hPa 0,0 l/m 0,0 km/h (0 Bft) N 0 0,000 mm 0,0 UV-I 42 W/m 4,9 C 7,6 C 0,0 km/h (0 Bft) 100,00 %
18.09.2019 08:05 7,7 C 8,3 C 83 % 1023,9 hPa 0,0 l/m 0,0 km/h (0 Bft) N 0 0,000 mm 0,0 UV-I 42 W/m 5,0 C 7,7 C 0,0 km/h (0 Bft) 95,65 %
18.09.2019 08:04 7,7 C 8,3 C 83 % 1023,9 hPa 0,0 l/m 0,0 km/h (0 Bft) N 0 0,000 mm 0,0 UV-I 40 W/m 5,0 C 7,7 C 0,0 km/h (0 Bft) 95,65 %
18.09.2019 08:03 7,8 C 8,3 C 83 % 1023,9 hPa 0,0 l/m 0,0 km/h (0 Bft) N 0 0,000 mm 0,0 UV-I 40 W/m 5,1 C 7,8 C 0,0 km/h (0 Bft) 86,96 %
18.09.2019 08:02 7,8 C 8,3 C 82 % 1023,9 hPa 0,0 l/m 0,0 km/h (0 Bft) N 0 0,000 mm 0,0 UV-I 40 W/m 4,9 C 7,8 C 0,0 km/h (0 Bft) 91,30 %
18.09.2019 08:01 7,8 C 8,3 C 82 % 1023,9 hPa 0,0 l/m 0,0 km/h (0 Bft) N 0 0,000 mm 0,0 UV-I 40 W/m 4,9 C 7,8 C 0,0 km/h (0 Bft) 100,00 %
18.09.2019 08:00 7,8 C 8,3 C 82 % 1023,9 hPa 0,0 l/m 0,0 km/h (0 Bft) N 0 0,025 mm 0,0 UV-I 40 W/m 4,9 C 7,8 C 0,0 km/h (0 Bft) 95,65 %
18.09.2019 07:59 7,8 C 8,3 C 83 % 1023,8 hPa 0,0 l/m 0,0 km/h (0 Bft) N 0 0,000 mm 0,0 UV-I 39 W/m 5,1 C 7,8 C 0,0 km/h (0 Bft) 91,30 %
18.09.2019 07:58 7,8 C 8,3 C 83 % 1023,8 hPa 0,0 l/m 0,0 km/h (0 Bft) N 0 0,000 mm 0,0 UV-I 39 W/m 5,1 C 7,8 C 0,0 km/h (0 Bft) 91,30 %
18.09.2019 07:57 7,8 C 8,3 C 83 % 1023,8 hPa 0,0 l/m 0,0 km/h (0 Bft) N 0 0,000 mm 0,0 UV-I 39 W/m 5,1 C 7,8 C 0,0 km/h (0 Bft) 95,65 %
18.09.2019 07:56 7,7 C 8,3 C 83 % 1023,8 hPa 0,0 l/m 0,0 km/h (0 Bft) N 0 0,000 mm 0,0 UV-I 39 W/m 5,0 C 7,7 C 0,0 km/h (0 Bft) 91,30 %
18.09.2019 07:55 7,8 C 8,3 C 83 % 1023,8 hPa 0,0 l/m 0,0 km/h (0 Bft) N 0 0,000 mm 0,0 UV-I 37 W/m 5,1 C 7,8 C 0,0 km/h (0 Bft) 82,61 %
18.09.2019 07:54 7,7 C 8,3 C 83 % 1023,8 hPa 0,0 l/m 0,0 km/h (0 Bft) N 0 0,000 mm 0,0 UV-I 37 W/m 5,0 C 7,7 C 0,0 km/h (0 Bft) 100,00 %
18.09.2019 07:53 7,7 C 8,3 C 83 % 1023,8 hPa 0,0 l/m 0,0 km/h (0 Bft) N 0 0,000 mm 0,0 UV-I 37 W/m 5,0 C 7,7 C 0,0 km/h (0 Bft) 91,30 %
18.09.2019 07:52 7,7 C 8,3 C 83 % 1023,8 hPa 0,0 l/m 0,0 km/h (0 Bft) N 0 0,000 mm 0,0 UV-I 37 W/m 5,0 C 7,7 C 0,0 km/h (0 Bft) 95,65 %
18.09.2019 07:51 7,7 C 8,3 C 83 % 1023,8 hPa 0,0 l/m 0,0 km/h (0 Bft) N 0 0,000 mm 0,0 UV-I 35 W/m 5,0 C 7,7 C 0,0 km/h (0 Bft) 86,96 %
18.09.2019 07:50 7,6 C 8,3 C 83 % 1023,8 hPa 0,0 l/m 0,0 km/h (0 Bft) NW 315 0,000 mm 0,0 UV-I 33 W/m 4,9 C 7,6 C 1,6 km/h (1 Bft) 100,00 %
18.09.2019 07:49 7,7 C 8,3 C 83 % 1023,7 hPa 0,0 l/m 0,0 km/h (0 Bft) NW 315 0,000 mm 0,0 UV-I 33 W/m 5,0 C 7,7 C 1,6 km/h (1 Bft) 91,30 %
18.09.2019 07:48 7,7 C 8,3 C 83 % 1023,7 hPa 0,0 l/m 1,6 km/h (1 Bft) NW 315 0,000 mm 0,0 UV-I 33 W/m 5,0 C 7,7 C 4,8 km/h (1 Bft) 78,26 %
18.09.2019 07:47 7,8 C 8,3 C 83 % 1023,7 hPa 0,0 l/m 0,0 km/h (0 Bft) NW 315 0,000 mm 0,0 UV-I 32 W/m 5,1 C 7,8 C 3,2 km/h (1 Bft) 91,30 %
18.09.2019 07:46 7,7 C 8,3 C 82 % 1023,6 hPa 0,0 l/m 1,6 km/h (1 Bft) NW 315 0,000 mm 0,0 UV-I 32 W/m 4,8 C 7,7 C 3,2 km/h (1 Bft) 91,30 %
18.09.2019 07:45 7,7 C 7,8 C 83 % 1023,7 hPa 0,0 l/m 1,6 km/h (1 Bft) NW 315 0,000 mm 0,0 UV-I 30 W/m 5,0 C 7,7 C 3,2 km/h (1 Bft) 95,65 %
18.09.2019 07:44 7,7 C 7,8 C 83 % 1023,6 hPa 0,0 l/m 3,2 km/h (1 Bft) NW 315 0,000 mm 0,0 UV-I 32 W/m 5,0 C 7,7 C 4,8 km/h (1 Bft) 86,96 %
18.09.2019 07:43 7,7 C 7,8 C 83 % 1023,6 hPa 0,0 l/m 4,8 km/h (1 Bft) NW 315 0,000 mm 0,0 UV-I 32 W/m 5,0 C 7,7 C 6,4 km/h (2 Bft) 95,65 %
18.09.2019 07:42 7,8 C 7,8 C 83 % 1023,6 hPa 0,0 l/m 1,6 km/h (1 Bft) W-NW 292 0,000 mm 0,0 UV-I 30 W/m 5,1 C 7,8 C 3,2 km/h (1 Bft) 91,30 %
18.09.2019 07:41 7,7 C 7,8 C 83 % 1023,6 hPa 0,0 l/m 3,2 km/h (1 Bft) NW 315 0,000 mm 0,0 UV-I 30 W/m 5,0 C 7,7 C 6,4 km/h (2 Bft) 95,65 %
18.09.2019 07:40 7,7 C 7,8 C 83 % 1023,6 hPa 0,0 l/m 1,6 km/h (1 Bft) W 270 0,000 mm 0,0 UV-I 28 W/m 5,0 C 7,7 C 4,8 km/h (1 Bft) 86,96 %
18.09.2019 07:39 7,7 C 7,8 C 83 % 1023,6 hPa 0,0 l/m 3,2 km/h (1 Bft) W 270 0,000 mm 0,0 UV-I 28 W/m 5,0 C 7,7 C 6,4 km/h (2 Bft) 100,00 %
18.09.2019 07:38 7,7 C 7,8 C 83 % 1023,6 hPa 0,0 l/m 3,2 km/h (1 Bft) W 270 0,000 mm 0,0 UV-I 28 W/m 5,0 C 7,7 C 4,8 km/h (1 Bft) 91,30 %
18.09.2019 07:37 7,6 C 7,8 C 83 % 1023,5 hPa 0,0 l/m 3,2 km/h (1 Bft) W 270 0,000 mm 0,0 UV-I 28 W/m 4,9 C 7,6 C 6,4 km/h (2 Bft) 100,00 %
18.09.2019 07:36 7,6 C 7,8 C 83 % 1023,6 hPa 0,0 l/m 4,8 km/h (1 Bft) W 270 0,000 mm 0,0 UV-I 28 W/m 4,9 C 7,6 C 6,4 km/h (2 Bft) 95,65 %
18.09.2019 07:35 7,6 C 7,8 C 83 % 1023,6 hPa 0,0 l/m 3,2 km/h (1 Bft) W 270 0,000 mm 0,0 UV-I 28 W/m 4,9 C 7,6 C 4,8 km/h (1 Bft) 100,00 %
18.09.2019 07:34 7,5 C 7,8 C 83 % 1023,6 hPa 0,0 l/m 3,2 km/h (1 Bft) W 270 0,000 mm 0,0 UV-I 26 W/m 4,8 C 7,5 C 6,4 km/h (2 Bft) 91,30 %
18.09.2019 07:33 7,5 C 8,3 C 83 % 1023,6 hPa 0,0 l/m 3,2 km/h (1 Bft) W 270 0,000 mm 0,0 UV-I 26 W/m 4,8 C 7,5 C 4,8 km/h (1 Bft) 95,65 %
18.09.2019 07:32 7,5 C 8,3 C 83 % 1023,6 hPa 0,0 l/m 4,8 km/h (1 Bft) W 270 0,000 mm 0,0 UV-I 25 W/m 4,8 C 7,5 C 9,7 km/h (2 Bft) 95,65 %
18.09.2019 07:31 7,4 C 8,3 C 83 % 1023,7 hPa 0,0 l/m 4,8 km/h (1 Bft) W 270 0,000 mm 0,0 UV-I 25 W/m 4,7 C 7,4 C 6,4 km/h (2 Bft) 100,00 %
18.09.2019 07:30 7,4 C 8,3 C 83 % 1023,6 hPa 0,0 l/m 4,8 km/h (1 Bft) W 270 0,000 mm 0,0 UV-I 25 W/m 4,7 C 7,4 C 6,4 km/h (2 Bft) 91,30 %
18.09.2019 07:29 7,4 C 8,3 C 82 % 1023,6 hPa 0,0 l/m 6,4 km/h (2 Bft) W 270 0,000 mm 0,0 UV-I 23 W/m 4,5 C 7,4 C 9,7 km/h (2 Bft) 100,00 %
18.09.2019 07:28 7,4 C 8,3 C 83 % 1023,7 hPa 0,0 l/m 6,4 km/h (2 Bft) W 270 0,000 mm 0,0 UV-I 23 W/m 4,7 C 7,4 C 9,7 km/h (2 Bft) 86,96 %
18.09.2019 07:27 7,4 C 8,3 C 82 % 1023,5 hPa 0,0 l/m 4,8 km/h (1 Bft) W 270 0,000 mm 0,0 UV-I 23 W/m 4,5 C 7,4 C 6,4 km/h (2 Bft) 100,00 %
18.09.2019 07:26 7,4 C 8,3 C 83 % 1023,6 hPa 0,0 l/m 4,8 km/h (1 Bft) W-NW 292 0,000 mm 0,0 UV-I 25 W/m 4,7 C 7,4 C 6,4 km/h (2 Bft) 95,65 %
18.09.2019 07:25 7,4 C 8,3 C 82 % 1023,6 hPa 0,0 l/m 3,2 km/h (1 Bft) W-NW 292 0,000 mm 0,0 UV-I 25 W/m 4,5 C 7,4 C 4,8 km/h (1 Bft) 100,00 %
18.09.2019 07:24 7,4 C 8,3 C 82 % 1023,6 hPa 0,0 l/m 4,8 km/h (1 Bft) W-NW 292 0,000 mm 0,0 UV-I 25 W/m 4,5 C 7,4 C 6,4 km/h (2 Bft) 100,00 %
18.09.2019 07:23 7,5 C 8,3 C 83 % 1023,6 hPa 0,0 l/m 3,2 km/h (1 Bft) W-NW 292 0,000 mm 0,0 UV-I 25 W/m 4,8 C 7,5 C 6,4 km/h (2 Bft) 95,65 %
18.09.2019 07:22 7,4 C 8,3 C 83 % 1023,6 hPa 0,0 l/m 1,6 km/h (1 Bft) W-NW 292 0,000 mm 0,0 UV-I 26 W/m 4,7 C 7,4 C 6,4 km/h (2 Bft) 100,00 %
18.09.2019 07:21 7,4 C 8,3 C 83 % 1023,5 hPa 0,0 l/m 3,2 km/h (1 Bft) W-NW 292 0,000 mm 0,0 UV-I 28 W/m 4,7 C 7,4 C 4,8 km/h (1 Bft) 91,30 %
18.09.2019 07:20 7,4 C 8,3 C 83 % 1023,5 hPa 0,0 l/m 4,8 km/h (1 Bft) W-NW 292 0,000 mm 0,0 UV-I 26 W/m 4,7 C 7,4 C 6,4 km/h (2 Bft) 95,65 %
18.09.2019 07:19 7,5 C 8,3 C 83 % 1023,5 hPa 0,0 l/m 3,2 km/h (1 Bft) W-NW 292 0,000 mm 0,0 UV-I 26 W/m 4,8 C 7,5 C 4,8 km/h (1 Bft) 91,30 %
18.09.2019 07:18 7,6 C 8,3 C 84 % 1023,5 hPa 0,0 l/m 3,2 km/h (1 Bft) W-NW 292 0,000 mm 0,0 UV-I 25 W/m 5,1 C 7,6 C 4,8 km/h (1 Bft) 95,65 %
18.09.2019 07:17 7,5 C 7,8 C 83 % 1023,5 hPa 0,0 l/m 4,8 km/h (1 Bft) W-NW 292 0,000 mm 0,0 UV-I 25 W/m 4,8 C 7,5 C 4,8 km/h (1 Bft) 95,65 %
18.09.2019 07:16 7,5 C 8,3 C 83 % 1023,5 hPa 0,0 l/m 4,8 km/h (1 Bft) W-NW 292 0,000 mm 0,0 UV-I 23 W/m 4,8 C 7,5 C 6,4 km/h (2 Bft) 91,30 %
18.09.2019 07:15 7,5 C 7,8 C 83 % 1023,5 hPa 0,0 l/m 3,2 km/h (1 Bft) W-NW 292 0,000 mm 0,0 UV-I 23 W/m 4,8 C 7,5 C 4,8 km/h (1 Bft) 100,00 %
18.09.2019 07:14 7,4 C 7,8 C 83 % 1023,4 hPa 0,0 l/m 3,2 km/h (1 Bft) W-NW 292 0,000 mm 0,0 UV-I 23 W/m 4,7 C 7,4 C 4,8 km/h (1 Bft) 100,00 %
18.09.2019 07:13 7,4 C 7,8 C 83 % 1023,3 hPa 0,0 l/m 3,2 km/h (1 Bft) W-NW 292 0,000 mm 0,0 UV-I 21 W/m 4,7 C 7,4 C 4,8 km/h (1 Bft) 100,00 %
18.09.2019 07:12 7,4 C 7,8 C 83 % 1023,4 hPa 0,0 l/m 3,2 km/h (1 Bft) W-NW 292 0,000 mm 0,0 UV-I 21 W/m 4,7 C 7,4 C 4,8 km/h (1 Bft) 95,65 %
18.09.2019 07:11 7,4 C 7,8 C 83 % 1023,4 hPa 0,0 l/m 4,8 km/h (1 Bft) W-NW 292 0,000 mm 0,0 UV-I 19 W/m 4,7 C 7,4 C 4,8 km/h (1 Bft) 95,65 %
18.09.2019 07:10 7,3 C 7,8 C 83 % 1023,4 hPa 0,0 l/m 4,8 km/h (1 Bft) W-NW 292 0,000 mm 0,0 UV-I 18 W/m 4,6 C 7,3 C 6,4 km/h (2 Bft) 100,00 %
18.09.2019 07:09 7,3 C 7,8 C 83 % 1023,4 hPa 0,0 l/m 4,8 km/h (1 Bft) W-NW 292 0,000 mm 0,0 UV-I 16 W/m 4,6 C 7,3 C 6,4 km/h (2 Bft) 100,00 %
18.09.2019 07:08 7,3 C 7,8 C 83 % 1023,4 hPa 0,0 l/m 4,8 km/h (1 Bft) W-NW 292 0,000 mm 0,0 UV-I 16 W/m 4,6 C 7,3 C 6,4 km/h (2 Bft) 95,65 %
18.09.2019 07:07 7,4 C 7,8 C 83 % 1023,4 hPa 0,0 l/m 3,2 km/h (1 Bft) W-NW 292 0,000 mm 0,0 UV-I 16 W/m 4,7 C 7,4 C 4,8 km/h (1 Bft) 100,00 %
18.09.2019 07:06 7,4 C 7,8 C 83 % 1023,4 hPa 0,0 l/m 3,2 km/h (1 Bft) W-NW 292 0,000 mm 0,0 UV-I 12 W/m 4,7 C 7,4 C 4,8 km/h (1 Bft) 100,00 %
18.09.2019 07:05 7,4 C 7,8 C 83 % 1023,4 hPa 0,0 l/m 3,2 km/h (1 Bft) W-NW 292 0,000 mm 0,0 UV-I 11 W/m 4,7 C 7,4 C 8,0 km/h (2 Bft) 91,30 %
18.09.2019 07:04 7,3 C 7,8 C 83 % 1023,4 hPa 0,0 l/m 4,8 km/h (1 Bft) W-NW 292 0,000 mm 0,0 UV-I 11 W/m 4,6 C 7,3 C 6,4 km/h (2 Bft) 100,00 %
18.09.2019 07:03 7,3 C 7,8 C 83 % 1023,4 hPa 0,0 l/m 0,0 km/h (0 Bft) W-NW 292 0,000 mm 0,0 UV-I 11 W/m 4,6 C 7,3 C 3,2 km/h (1 Bft) 100,00 %
18.09.2019 07:02 7,3 C 7,8 C 83 % 1023,4 hPa 0,0 l/m 1,6 km/h (1 Bft) W-NW 292 0,000 mm 0,0 UV-I 11 W/m 4,6 C 7,3 C 3,2 km/h (1 Bft) 100,00 %
18.09.2019 07:01 7,3 C 7,8 C 83 % 1023,3 hPa 0,0 l/m 3,2 km/h (1 Bft) W 270 0,000 mm 0,0 UV-I 11 W/m 4,6 C 7,3 C 4,8 km/h (1 Bft) 100,00 %
18.09.2019 07:00 7,3 C 7,8 C 83 % 1023,4 hPa 0,0 l/m 4,8 km/h (1 Bft) W 270 0,000 mm 0,0 UV-I 11 W/m 4,6 C 7,3 C 6,4 km/h (2 Bft) 95,65 %
18.09.2019 06:59 7,3 C 7,8 C 83 % 1023,4 hPa 0,0 l/m 3,2 km/h (1 Bft) W-NW 292 0,000 mm 0,0 UV-I 9 W/m 4,6 C 7,3 C 6,4 km/h (2 Bft) 100,00 %
18.09.2019 06:58 7,3 C 7,8 C 83 % 1023,4 hPa 0,0 l/m 4,8 km/h (1 Bft) W-NW 292 0,000 mm 0,0 UV-I 9 W/m 4,6 C 7,3 C 6,4 km/h (2 Bft) 86,96 %
18.09.2019 06:57 7,2 C 7,8 C 83 % 1023,4 hPa 0,0 l/m 4,8 km/h (1 Bft) W 270 0,000 mm 0,0 UV-I 7 W/m 4,5 C 7,2 C 6,4 km/h (2 Bft) 95,65 %
18.09.2019 06:56 7,2 C 7,8 C 83 % 1023,4 hPa 0,0 l/m 3,2 km/h (1 Bft) W-NW 292 0,000 mm 0,0 UV-I 7 W/m 4,5 C 7,2 C 6,4 km/h (2 Bft) 95,65 %
18.09.2019 06:55 7,2 C 7,8 C 83 % 1023,4 hPa 0,0 l/m 4,8 km/h (1 Bft) W-NW 292 0,000 mm 0,0 UV-I 7 W/m 4,5 C 7,2 C 6,4 km/h (2 Bft) 95,65 %
18.09.2019 06:54 7,2 C 7,8 C 83 % 1023,3 hPa 0,0 l/m 3,2 km/h (1 Bft) W-NW 292 0,000 mm 0,0 UV-I 7 W/m 4,5 C 7,2 C 6,4 km/h (2 Bft) 95,65 %
18.09.2019 06:53 7,3 C 7,8 C 84 % 1023,4 hPa 0,0 l/m 3,2 km/h (1 Bft) W-NW 292 0,000 mm 0,0 UV-I 7 W/m 4,8 C 7,3 C 6,4 km/h (2 Bft) 95,65 %
18.09.2019 06:52 7,3 C 7,8 C 84 % 1023,4 hPa 0,0 l/m 3,2 km/h (1 Bft) W 270 0,000 mm 0,0 UV-I 5 W/m 4,8 C 7,3 C 6,4 km/h (2 Bft) 95,65 %
18.09.2019 06:51 7,3 C 7,8 C 84 % 1023,3 hPa 0,0 l/m 3,2 km/h (1 Bft) W 270 0,000 mm 0,0 UV-I 5 W/m 4,8 C 7,3 C 3,2 km/h (1 Bft) 91,30 %
18.09.2019 06:50 7,3 C 7,8 C 84 % 1023,3 hPa 0,0 l/m 1,6 km/h (1 Bft) W 270 0,000 mm 0,0 UV-I 5 W/m 4,8 C 7,3 C 3,2 km/h (1 Bft) 78,26 %
18.09.2019 06:49 7,2 C 7,8 C 84 % 1023,3 hPa 0,0 l/m 3,2 km/h (1 Bft) W 270 0,000 mm 0,0 UV-I 5 W/m 4,7 C 7,2 C 4,8 km/h (1 Bft) 86,96 %
18.09.2019 06:48 7,2 C 7,8 C 83 % 1023,3 hPa 0,0 l/m 4,8 km/h (1 Bft) W 270 0,000 mm 0,0 UV-I 0 W/m 4,5 C 7,2 C 6,4 km/h (2 Bft) 95,65 %
18.09.2019 06:47 7,2 C 7,8 C 84 % 1023,3 hPa 0,0 l/m 3,2 km/h (1 Bft) W-NW 292 0,000 mm 0,0 UV-I 0 W/m 4,7 C 7,2 C 4,8 km/h (1 Bft) 95,65 %
18.09.2019 06:46 7,2 C 7,8 C 84 % 1023,3 hPa 0,0 l/m 3,2 km/h (1 Bft) W-NW 292 0,000 mm 0,0 UV-I 0 W/m 4,7 C 7,2 C 4,8 km/h (1 Bft) 100,00 %
18.09.2019 06:45 7,2 C 7,8 C 84 % 1023,3 hPa 0,0 l/m 3,2 km/h (1 Bft) W-NW 292 0,000 mm 0,0 UV-I 0 W/m 4,7 C 7,2 C 6,4 km/h (2 Bft) 95,65 %
18.09.2019 06:44 7,3 C 7,8 C 84 % 1023,3 hPa 0,0 l/m 3,2 km/h (1 Bft) W-NW 292 0,000 mm 0,0 UV-I 0 W/m 4,8 C 7,3 C 4,8 km/h (1 Bft) 82,61 %
18.09.2019 06:43 7,2 C 7,8 C 84 % 1023,3 hPa 0,0 l/m 3,2 km/h (1 Bft) W-NW 292 0,000 mm 0,0 UV-I 0 W/m 4,7 C 7,2 C 4,8 km/h (1 Bft) 95,65 %
18.09.2019 06:42 7,2 C 7,8 C 83 % 1023,3 hPa 0,0 l/m 4,8 km/h (1 Bft) W-NW 292 0,000 mm 0,0 UV-I 0 W/m 4,5 C 7,2 C 6,4 km/h (2 Bft) 95,65 %
18.09.2019 06:41 7,2 C 7,8 C 84 % 1023,2 hPa 0,0 l/m 3,2 km/h (1 Bft) W-NW 292 0,000 mm 0,0 UV-I 0 W/m 4,7 C 7,2 C 6,4 km/h (2 Bft) 95,65 %
18.09.2019 06:40 7,2 C 7,8 C 84 % 1023,2 hPa 0,0 l/m 4,8 km/h (1 Bft) W-NW 292 0,000 mm 0,0 UV-I 0 W/m 4,7 C 7,2 C 6,4 km/h (2 Bft) 100,00 %
18.09.2019 06:39 7,2 C 7,8 C 84 % 1023,2 hPa 0,0 l/m 3,2 km/h (1 Bft) W 270 0,000 mm 0,0 UV-I 0 W/m 4,7 C 7,2 C 6,4 km/h (2 Bft) 91,30 %
18.09.2019 06:38 7,2 C 7,8 C 84 % 1023,2 hPa 0,0 l/m 1,6 km/h (1 Bft) W 270 0,000 mm 0,0 UV-I 0 W/m 4,7 C 7,2 C 4,8 km/h (1 Bft) 100,00 %
18.09.2019 06:37 7,2 C 7,8 C 84 % 1023,2 hPa 0,0 l/m 3,2 km/h (1 Bft) W 270 0,000 mm 0,0 UV-I 0 W/m 4,7 C 7,2 C 4,8 km/h (1 Bft) 91,30 %
18.09.2019 06:36 7,2 C 7,2 C 84 % 1023,2 hPa 0,0 l/m 1,6 km/h (1 Bft) W 270 0,000 mm 0,0 UV-I 0 W/m 4,7 C 7,2 C 3,2 km/h (1 Bft) 91,30 %
18.09.2019 06:35 7,2 C 7,2 C 84 % 1023,2 hPa 0,0 l/m 3,2 km/h (1 Bft) W 270 0,000 mm 0,0 UV-I 0 W/m 4,7 C 7,2 C 4,8 km/h (1 Bft) 95,65 %
18.09.2019 06:34 7,2 C 7,2 C 84 % 1023,2 hPa 0,0 l/m 3,2 km/h (1 Bft) W 270 0,000 mm 0,0 UV-I 0 W/m 4,7 C 7,2 C 4,8 km/h (1 Bft) 100,00 %
18.09.2019 06:33 7,2 C 7,8 C 84 % 1023,2 hPa 0,0 l/m 1,6 km/h (1 Bft) W 270 0,000 mm 0,0 UV-I 0 W/m 4,7 C 7,2 C 4,8 km/h (1 Bft) 100,00 %
18.09.2019 06:32 7,2 C 7,2 C 84 % 1023,1 hPa 0,0 l/m 3,2 km/h (1 Bft) W 270 0,000 mm 0,0 UV-I 0 W/m 4,7 C 7,2 C 6,4 km/h (2 Bft) 100,00 %
18.09.2019 06:31 7,2 C 7,2 C 84 % 1023,1 hPa 0,0 l/m 1,6 km/h (1 Bft) W-NW 292 0,000 mm 0,0 UV-I 0 W/m 4,7 C 7,2 C 6,4 km/h (2 Bft) 91,30 %
18.09.2019 06:30 7,2 C 7,2 C 84 % 1023,2 hPa 0,0 l/m 3,2 km/h (1 Bft) W-NW 292 0,000 mm 0,0 UV-I 0 W/m 4,7 C 7,2 C 6,4 km/h (2 Bft) 82,61 %
18.09.2019 06:29 7,2 C 7,2 C 84 % 1023,1 hPa 0,0 l/m 1,6 km/h (1 Bft) W-NW 292 0,000 mm 0,0 UV-I 0 W/m 4,7 C 7,2 C 3,2 km/h (1 Bft) 100,00 %
18.09.2019 06:28 7,2 C 7,2 C 84 % 1023,2 hPa 0,0 l/m 3,2 km/h (1 Bft) W-NW 292 0,000 mm 0,0 UV-I 0 W/m 4,7 C 7,2 C 4,8 km/h (1 Bft) 100,00 %
18.09.2019 06:27 7,2 C 7,2 C 84 % 1023,2 hPa 0,0 l/m 1,6 km/h (1 Bft) W-NW 292 0,000 mm 0,0 UV-I 0 W/m 4,7 C 7,2 C 3,2 km/h (1 Bft) 91,30 %
18.09.2019 06:26 7,3 C 7,2 C 84 % 1023,1 hPa 0,0 l/m 3,2 km/h (1 Bft) W-NW 292 0,000 mm 0,0 UV-I 0 W/m 4,8 C 7,3 C 6,4 km/h (2 Bft) 91,30 %
18.09.2019 06:25 7,3 C 7,2 C 84 % 1023,1 hPa 0,0 l/m 1,6 km/h (1 Bft) W-NW 292 0,000 mm 0,0 UV-I 0 W/m 4,8 C 7,3 C 4,8 km/h (1 Bft) 86,96 %
18.09.2019 06:24 7,3 C 7,2 C 84 % 1023,1 hPa 0,0 l/m 0,0 km/h (0 Bft) W-NW 292 0,000 mm 0,0 UV-I 0 W/m 4,8 C 7,3 C 1,6 km/h (1 Bft) 86,96 %
18.09.2019 06:23 7,3 C 7,2 C 84 % 1023,1 hPa 0,0 l/m 1,6 km/h (1 Bft) W-NW 292 0,000 mm 0,0 UV-I 0 W/m 4,8 C 7,3 C 4,8 km/h (1 Bft) 91,30 %
18.09.2019 06:22 7,3 C 7,2 C 84 % 1023,1 hPa 0,0 l/m 3,2 km/h (1 Bft) W-NW 292 0,000 mm 0,0 UV-I 0 W/m 4,8 C 7,3 C 4,8 km/h (1 Bft) 95,65 %
18.09.2019 06:21 7,3 C 7,2 C 84 % 1023,1 hPa 0,0 l/m 3,2 km/h (1 Bft) W-NW 292 0,000 mm 0,0 UV-I 0 W/m 4,8 C 7,3 C 4,8 km/h (1 Bft) 82,61 %
18.09.2019 06:20 7,4 C 7,2 C 84 % 1023,1 hPa 0,0 l/m 3,2 km/h (1 Bft) W-NW 292 0,000 mm 0,0 UV-I 0 W/m 4,9 C 7,4 C 6,4 km/h (2 Bft) 95,65 %
18.09.2019 06:19 7,4 C 7,2 C 84 % 1023,1 hPa 0,0 l/m 3,2 km/h (1 Bft) W-NW 292 0,000 mm 0,0 UV-I 0 W/m 4,9 C 7,4 C 4,8 km/h (1 Bft) 100,00 %
18.09.2019 06:18 7,4 C 7,2 C 84 % 1023,1 hPa 0,0 l/m 1,6 km/h (1 Bft) W-NW 292 0,000 mm 0,0 UV-I 0 W/m 4,9 C 7,4 C 4,8 km/h (1 Bft) 91,30 %
18.09.2019 06:17 7,4 C 7,2 C 84 % 1023,1 hPa 0,0 l/m 1,6 km/h (1 Bft) W-NW 292 0,000 mm 0,0 UV-I 0 W/m 4,9 C 7,4 C 4,8 km/h (1 Bft) 100,00 %
18.09.2019 06:16 7,4 C 7,2 C 84 % 1023,1 hPa 0,0 l/m 1,6 km/h (1 Bft) W-NW 292 0,000 mm 0,0 UV-I 0 W/m 4,9 C 7,4 C 4,8 km/h (1 Bft) 91,30 %
18.09.2019 06:15 7,4 C 7,2 C 84 % 1023,1 hPa 0,0 l/m 3,2 km/h (1 Bft) W-NW 292 0,000 mm 0,0 UV-I 0 W/m 4,9 C 7,4 C 6,4 km/h (2 Bft) 91,30 %
18.09.2019 06:14 7,4 C 7,8 C 84 % 1023,0 hPa 0,0 l/m 4,8 km/h (1 Bft) W-NW 292 0,000 mm 0,0 UV-I 0 W/m 4,9 C 7,4 C 6,4 km/h (2 Bft) 95,65 %
18.09.2019 06:13 7,4 C 7,8 C 84 % 1023,1 hPa 0,0 l/m 1,6 km/h (1 Bft) W-NW 292 0,000 mm 0,0 UV-I 0 W/m 4,9 C 7,4 C 3,2 km/h (1 Bft) 100,00 %
18.09.2019 06:12 7,4 C 7,8 C 84 % 1023,0 hPa 0,0 l/m 4,8 km/h (1 Bft) W-NW 292 0,000 mm 0,0 UV-I 0 W/m 4,9 C 7,4 C 6,4 km/h (2 Bft) 95,65 %
18.09.2019 06:11 7,4 C 7,8 C 84 % 1023,0 hPa 0,0 l/m 1,6 km/h (1 Bft) W-NW 292 0,000 mm 0,0 UV-I 0 W/m 4,9 C 7,4 C 4,8 km/h (1 Bft) 91,30 %
18.09.2019 06:10 7,5 C 7,8 C 84 % 1023,0 hPa 0,0 l/m 3,2 km/h (1 Bft) W-NW 292 0,000 mm 0,0 UV-I 0 W/m 5,0 C 7,5 C 4,8 km/h (1 Bft) 91,30 %
18.09.2019 06:09 7,5 C 7,8 C 84 % 1023,0 hPa 0,0 l/m 3,2 km/h (1 Bft) W-NW 292 0,000 mm 0,0 UV-I 0 W/m 5,0 C 7,5 C 4,8 km/h (1 Bft) 86,96 %
18.09.2019 06:08 7,6 C 7,8 C 84 % 1023,0 hPa 0,0 l/m 1,6 km/h (1 Bft) W-NW 292 0,000 mm 0,0 UV-I 0 W/m 5,1 C 7,6 C 4,8 km/h (1 Bft) 91,30 %
18.09.2019 06:07 7,6 C 7,8 C 84 % 1023,0 hPa 0,0 l/m 3,2 km/h (1 Bft) W-NW 292 0,000 mm 0,0 UV-I 0 W/m 5,1 C 7,6 C 4,8 km/h (1 Bft) 95,65 %
18.09.2019 06:06 7,6 C 7,8 C 84 % 1023,0 hPa 0,0 l/m 3,2 km/h (1 Bft) W-NW 292 0,000 mm 0,0 UV-I 0 W/m 5,1 C 7,6 C 6,4 km/h (2 Bft) 100,00 %
18.09.2019 06:05 7,6 C 7,8 C 84 % 1023,0 hPa 0,0 l/m 1,6 km/h (1 Bft) W-NW 292 0,000 mm 0,0 UV-I 0 W/m 5,1 C 7,6 C 6,4 km/h (2 Bft) 91,30 %
18.09.2019 06:04 7,7 C 7,8 C 84 % 1022,9 hPa 0,0 l/m 1,6 km/h (1 Bft) W-NW 292 0,000 mm 0,0 UV-I 0 W/m 5,2 C 7,7 C 3,2 km/h (1 Bft) 95,65 %
18.09.2019 06:03 7,7 C 7,8 C 84 % 1023,0 hPa 0,0 l/m 1,6 km/h (1 Bft) W-NW 292 0,000 mm 0,0 UV-I 0 W/m 5,2 C 7,7 C 3,2 km/h (1 Bft) 86,96 %
18.09.2019 06:02 7,8 C 7,8 C 84 % 1023,0 hPa 0,0 l/m 1,6 km/h (1 Bft) W-NW 292 0,000 mm 0,0 UV-I 0 W/m 5,3 C 7,8 C 4,8 km/h (1 Bft) 86,96 %
18.09.2019 06:01 7,8 C 7,8 C 83 % 1022,9 hPa 0,0 l/m 3,2 km/h (1 Bft) W 270 0,000 mm 0,0 UV-I 0 W/m 5,1 C 7,8 C 6,4 km/h (2 Bft) 95,65 %
18.09.2019 06:00 7,8 C 7,8 C 83 % 1023,0 hPa 0,0 l/m 4,8 km/h (1 Bft) W 270 0,025 mm 0,0 UV-I 0 W/m 5,1 C 7,8 C 6,4 km/h (2 Bft) 86,96 %
18.09.2019 05:59 7,8 C 7,8 C 83 % 1023,0 hPa 0,0 l/m 3,2 km/h (1 Bft) W 270 0,000 mm 0,0 UV-I 0 W/m 5,1 C 7,8 C 6,4 km/h (2 Bft) 95,65 %
18.09.2019 05:58 7,8 C 7,8 C 83 % 1023,0 hPa 0,0 l/m 3,2 km/h (1 Bft) W 270 0,000 mm 0,0 UV-I 0 W/m 5,1 C 7,8 C 6,4 km/h (2 Bft) 86,96 %
18.09.2019 05:57 7,8 C 7,8 C 83 % 1023,0 hPa 0,0 l/m 3,2 km/h (1 Bft) W 270 0,000 mm 0,0 UV-I 0 W/m 5,1 C 7,8 C 6,4 km/h (2 Bft) 91,30 %
18.09.2019 05:56 7,8 C 7,8 C 83 % 1022,9 hPa 0,0 l/m 0,0 km/h (0 Bft) W 270 0,000 mm 0,0 UV-I 0 W/m 5,1 C 7,8 C 3,2 km/h (1 Bft) 73,91 %
18.09.2019 05:55 7,8 C 7,8 C 83 % 1023,0 hPa 0,0 l/m 0,0 km/h (0 Bft) W 270 0,000 mm 0,0 UV-I 0 W/m 5,1 C 7,8 C 1,6 km/h (1 Bft) 82,61 %
18.09.2019 05:54 7,8 C 7,8 C 83 % 1022,9 hPa 0,0 l/m 3,2 km/h (1 Bft) W 270 0,000 mm 0,0 UV-I 0 W/m 5,1 C 7,8 C 6,4 km/h (2 Bft) 95,65 %
18.09.2019 05:53 7,8 C 7,8 C 83 % 1022,9 hPa 0,0 l/m 1,6 km/h (1 Bft) W 270 0,000 mm 0,0 UV-I 0 W/m 5,1 C 7,8 C 4,8 km/h (1 Bft) 86,96 %
18.09.2019 05:52 7,8 C 7,8 C 83 % 1022,9 hPa 0,0 l/m 1,6 km/h (1 Bft) W 270 0,000 mm 0,0 UV-I 0 W/m 5,1 C 7,8 C 4,8 km/h (1 Bft) 86,96 %
18.09.2019 05:51 7,9 C 7,8 C 83 % 1022,9 hPa 0,0 l/m 3,2 km/h (1 Bft) W 270 0,000 mm 0,0 UV-I 0 W/m 5,2 C 7,9 C 6,4 km/h (2 Bft) 82,61 %
18.09.2019 05:50 7,9 C 7,8 C 82 % 1022,9 hPa 0,0 l/m 3,2 km/h (1 Bft) W 270 0,000 mm 0,0 UV-I 0 W/m 5,0 C 7,9 C 4,8 km/h (1 Bft) 82,61 %
18.09.2019 05:49 7,9 C 7,8 C 82 % 1022,9 hPa 0,0 l/m 4,8 km/h (1 Bft) W-NW 292 0,000 mm 0,0 UV-I 0 W/m 5,0 C 7,9 C 8,0 km/h (2 Bft) 100,00 %
18.09.2019 05:48 7,9 C 7,8 C 82 % 1022,8 hPa 0,0 l/m 3,2 km/h (1 Bft) W-NW 292 0,000 mm 0,0 UV-I 0 W/m 5,0 C 7,9 C 6,4 km/h (2 Bft) 91,30 %
18.09.2019 05:47 7,9 C 7,8 C 82 % 1022,8 hPa 0,0 l/m 3,2 km/h (1 Bft) W-NW 292 0,000 mm 0,0 UV-I 0 W/m 5,0 C 7,9 C 4,8 km/h (1 Bft) 95,65 %
18.09.2019 05:46 7,9 C 7,8 C 82 % 1022,8 hPa 0,0 l/m 3,2 km/h (1 Bft) W-NW 292 0,000 mm 0,0 UV-I 0 W/m 5,0 C 7,9 C 6,4 km/h (2 Bft) 95,65 %
18.09.2019 05:45 7,9 C 7,8 C 82 % 1022,8 hPa 0,0 l/m 3,2 km/h (1 Bft) W-NW 292 0,000 mm 0,0 UV-I 0 W/m 5,0 C 7,9 C 6,4 km/h (2 Bft) 95,65 %
18.09.2019 05:44 7,9 C 7,8 C 83 % 1022,9 hPa 0,0 l/m 1,6 km/h (1 Bft) W-NW 292 0,000 mm 0,0 UV-I 0 W/m 5,2 C 7,9 C 4,8 km/h (1 Bft) 86,96 %
18.09.2019 05:43 7,9 C 7,8 C 83 % 1022,9 hPa 0,0 l/m 1,6 km/h (1 Bft) W-NW 292 0,000 mm 0,0 UV-I 0 W/m 5,2 C 7,9 C 3,2 km/h (1 Bft) 91,30 %
18.09.2019 05:42 7,9 C 7,8 C 83 % 1022,8 hPa 0,0 l/m 1,6 km/h (1 Bft) W-NW 292 0,000 mm 0,0 UV-I 0 W/m 5,2 C 7,9 C 4,8 km/h (1 Bft) 91,30 %
18.09.2019 05:41 7,9 C 7,8 C 82 % 1022,9 hPa 0,0 l/m 1,6 km/h (1 Bft) W-NW 292 0,000 mm 0,0 UV-I 0 W/m 5,0 C 7,9 C 4,8 km/h (1 Bft) 82,61 %
18.09.2019 05:40 8,0 C 7,8 C 82 % 1022,8 hPa 0,0 l/m 3,2 km/h (1 Bft) W 270 0,000 mm 0,0 UV-I 0 W/m 5,1 C 8,0 C 6,4 km/h (2 Bft) 91,30 %
18.09.2019 05:39 8,0 C 7,8 C 82 % 1022,9 hPa 0,0 l/m 3,2 km/h (1 Bft) W 270 0,000 mm 0,0 UV-I 0 W/m 5,1 C 8,0 C 4,8 km/h (1 Bft) 86,96 %
18.09.2019 05:38 8,0 C 7,8 C 82 % 1022,9 hPa 0,0 l/m 3,2 km/h (1 Bft) W 270 0,000 mm 0,0 UV-I 0 W/m 5,1 C 8,0 C 4,8 km/h (1 Bft) 100,00 %
18.09.2019 05:37 8,1 C 7,8 C 82 % 1022,8 hPa 0,0 l/m 3,2 km/h (1 Bft) W-SW 247 0,000 mm 0,0 UV-I 0 W/m 5,2 C 8,1 C 6,4 km/h (2 Bft) 95,65 %
18.09.2019 05:36 8,1 C 7,8 C 82 % 1022,8 hPa 0,0 l/m 4,8 km/h (1 Bft) W 270 0,000 mm 0,0 UV-I 0 W/m 5,2 C 8,1 C 6,4 km/h (2 Bft) 86,96 %
18.09.2019 05:35 8,1 C 7,8 C 82 % 1022,8 hPa 0,0 l/m 4,8 km/h (1 Bft) W 270 0,000 mm 0,0 UV-I 0 W/m 5,2 C 8,1 C 6,4 km/h (2 Bft) 95,65 %
18.09.2019 05:34 8,1 C 7,8 C 82 % 1022,8 hPa 0,0 l/m 3,2 km/h (1 Bft) W-NW 292 0,000 mm 0,0 UV-I 0 W/m 5,2 C 8,1 C 4,8 km/h (1 Bft) 95,65 %
18.09.2019 05:33 8,1 C 7,8 C 82 % 1022,8 hPa 0,0 l/m 1,6 km/h (1 Bft) W-NW 292 0,000 mm 0,0 UV-I 0 W/m 5,2 C 8,1 C 4,8 km/h (1 Bft) 95,65 %
18.09.2019 05:32 8,2 C 7,8 C 82 % 1022,7 hPa 0,0 l/m 3,2 km/h (1 Bft) W 270 0,000 mm 0,0 UV-I 0 W/m 5,3 C 8,2 C 6,4 km/h (2 Bft) 95,65 %
18.09.2019 05:31 8,2 C 7,8 C 82 % 1022,7 hPa 0,0 l/m 3,2 km/h (1 Bft) W 270 0,000 mm 0,0 UV-I 0 W/m 5,3 C 8,2 C 6,4 km/h (2 Bft) 82,61 %
18.09.2019 05:30 8,2 C 7,8 C 83 % 1022,8 hPa 0,0 l/m 0,0 km/h (0 Bft) W 270 0,000 mm 0,0 UV-I 0 W/m 5,5 C 8,2 C 3,2 km/h (1 Bft) 91,30 %
18.09.2019 05:29 8,2 C 7,8 C 83 % 1022,7 hPa 0,0 l/m 0,0 km/h (0 Bft) W 270 0,000 mm 0,0 UV-I 0 W/m 5,5 C 8,2 C 3,2 km/h (1 Bft) 91,30 %
18.09.2019 05:28 8,2 C 7,8 C 83 % 1022,6 hPa 0,0 l/m 3,2 km/h (1 Bft) W 270 0,000 mm 0,0 UV-I 0 W/m 5,5 C 8,2 C 6,4 km/h (2 Bft) 95,65 %
18.09.2019 05:27 8,2 C 7,8 C 83 % 1022,7 hPa 0,0 l/m 4,8 km/h (1 Bft) W 270 0,000 mm 0,0 UV-I 0 W/m 5,5 C 8,2 C 6,4 km/h (2 Bft) 95,65 %
18.09.2019 05:26 8,2 C 7,8 C 83 % 1022,7 hPa 0,0 l/m 4,8 km/h (1 Bft) W-NW 292 0,000 mm 0,0 UV-I 0 W/m 5,5 C 8,2 C 8,0 km/h (2 Bft) 86,96 %
18.09.2019 05:25 8,2 C 7,8 C 83 % 1022,6 hPa 0,0 l/m 4,8 km/h (1 Bft) W-NW 292 0,000 mm 0,0 UV-I 0 W/m 5,5 C 8,2 C 6,4 km/h (2 Bft) 100,00 %
18.09.2019 05:24 8,2 C 7,8 C 83 % 1022,6 hPa 0,0 l/m 1,6 km/h (1 Bft) W 270 0,000 mm 0,0 UV-I 0 W/m 5,5 C 8,2 C 3,2 km/h (1 Bft) 95,65 %
18.09.2019 05:23 8,3 C 7,8 C 83 % 1022,7 hPa 0,0 l/m 1,6 km/h (1 Bft) W 270 0,000 mm 0,0 UV-I 0 W/m 5,6 C 8,3 C 3,2 km/h (1 Bft) 100,00 %
18.09.2019 05:22 8,3 C 7,8 C 83 % 1022,6 hPa 0,0 l/m 0,0 km/h (0 Bft) W 270 0,000 mm 0,0 UV-I 0 W/m 5,6 C 8,3 C 3,2 km/h (1 Bft) 95,65 %
18.09.2019 05:21 8,3 C 7,8 C 83 % 1022,7 hPa 0,0 l/m 3,2 km/h (1 Bft) W 270 0,000 mm 0,0 UV-I 0 W/m 5,6 C 8,3 C 4,8 km/h (1 Bft) 100,00 %
18.09.2019 05:20 8,4 C 7,8 C 83 % 1022,6 hPa 0,0 l/m 1,6 km/h (1 Bft) W-NW 292 0,000 mm 0,0 UV-I 0 W/m 5,7 C 8,4 C 6,4 km/h (2 Bft) 91,30 %
18.09.2019 05:19 8,4 C 7,8 C 82 % 1022,6 hPa 0,0 l/m 3,2 km/h (1 Bft) NW 315 0,000 mm 0,0 UV-I 0 W/m 5,5 C 8,4 C 6,4 km/h (2 Bft) 95,65 %
18.09.2019 05:18 8,4 C 7,8 C 82 % 1022,6 hPa 0,0 l/m 3,2 km/h (1 Bft) NW 315 0,000 mm 0,0 UV-I 0 W/m 5,5 C 8,4 C 6,4 km/h (2 Bft) 100,00 %
18.09.2019 05:17 8,4 C 8,3 C 83 % 1022,5 hPa 0,0 l/m 4,8 km/h (1 Bft) W-NW 292 0,000 mm 0,0 UV-I 0 W/m 5,7 C 8,4 C 6,4 km/h (2 Bft) 100,00 %
18.09.2019 05:16 8,5 C 7,8 C 83 % 1022,6 hPa 0,0 l/m 3,2 km/h (1 Bft) W-NW 292 0,000 mm 0,0 UV-I 0 W/m 5,8 C 8,5 C 6,4 km/h (2 Bft) 91,30 %
18.09.2019 05:15 8,5 C 7,8 C 82 % 1022,5 hPa 0,0 l/m 1,6 km/h (1 Bft) NW 315 0,000 mm 0,0 UV-I 0 W/m 5,6 C 8,5 C 4,8 km/h (1 Bft) 73,91 %
18.09.2019 05:14 8,6 C 7,8 C 82 % 1022,5 hPa 0,0 l/m 1,6 km/h (1 Bft) W-NW 292 0,000 mm 0,0 UV-I 0 W/m 5,7 C 8,6 C 4,8 km/h (1 Bft) 95,65 %
18.09.2019 05:13 8,6 C 7,8 C 83 % 1022,5 hPa 0,0 l/m 3,2 km/h (1 Bft) W-NW 292 0,000 mm 0,0 UV-I 0 W/m 5,9 C 8,6 C 6,4 km/h (2 Bft) 91,30 %
18.09.2019 05:12 8,6 C 7,8 C 82 % 1022,5 hPa 0,0 l/m 3,2 km/h (1 Bft) W-NW 292 0,000 mm 0,0 UV-I 0 W/m 5,7 C 8,6 C 8,0 km/h (2 Bft) 91,30 %
18.09.2019 05:11 8,6 C 7,8 C 82 % 1022,5 hPa 0,0 l/m 3,2 km/h (1 Bft) W-NW 292 0,000 mm 0,0 UV-I 0 W/m 5,7 C 8,6 C 6,4 km/h (2 Bft) 73,91 %
18.09.2019 05:10 8,6 C 7,8 C 82 % 1022,5 hPa 0,0 l/m 3,2 km/h (1 Bft) W-NW 292 0,000 mm 0,0 UV-I 0 W/m 5,7 C 8,6 C 6,4 km/h (2 Bft) 95,65 %
18.09.2019 05:09 8,7 C 8,3 C 82 % 1022,5 hPa 0,0 l/m 4,8 km/h (1 Bft) W-NW 292 0,000 mm 0,0 UV-I 0 W/m 5,8 C 8,7 C 6,4 km/h (2 Bft) 95,65 %
18.09.2019 05:08 8,7 C 7,8 C 83 % 1022,5 hPa 0,0 l/m 1,6 km/h (1 Bft) W-NW 292 0,000 mm 0,0 UV-I 0 W/m 6,0 C 8,7 C 4,8 km/h (1 Bft) 86,96 %
18.09.2019 05:07 8,7 C 8,3 C 83 % 1022,4 hPa 0,0 l/m 3,2 km/h (1 Bft) W-NW 292 0,000 mm 0,0 UV-I 0 W/m 6,0 C 8,7 C 6,4 km/h (2 Bft) 100,00 %
18.09.2019 05:06 8,7 C 8,3 C 82 % 1022,3 hPa 0,0 l/m 3,2 km/h (1 Bft) W-NW 292 0,000 mm 0,0 UV-I 0 W/m 5,8 C 8,7 C 6,4 km/h (2 Bft) 86,96 %
18.09.2019 05:05 8,7 C 8,3 C 82 % 1022,4 hPa 0,0 l/m 3,2 km/h (1 Bft) W 270 0,000 mm 0,0 UV-I 0 W/m 5,8 C 8,7 C 6,4 km/h (2 Bft) 100,00 %
18.09.2019 05:04 8,7 C 8,3 C 83 % 1022,4 hPa 0,0 l/m 3,2 km/h (1 Bft) W-NW 292 0,000 mm 0,0 UV-I 0 W/m 6,0 C 8,7 C 6,4 km/h (2 Bft) 95,65 %
18.09.2019 05:03 8,8 C 8,3 C 83 % 1022,4 hPa 0,0 l/m 3,2 km/h (1 Bft) W-NW 292 0,000 mm 0,0 UV-I 0 W/m 6,1 C 8,8 C 6,4 km/h (2 Bft) 100,00 %
18.09.2019 05:02 8,7 C 8,3 C 83 % 1022,3 hPa 0,0 l/m 4,8 km/h (1 Bft) W-NW 292 0,000 mm 0,0 UV-I 0 W/m 6,0 C 8,7 C 6,4 km/h (2 Bft) 91,30 %
18.09.2019 05:01 8,7 C 8,3 C 83 % 1022,3 hPa 0,0 l/m 1,6 km/h (1 Bft) W-NW 292 0,000 mm 0,0 UV-I 0 W/m 6,0 C 8,7 C 4,8 km/h (1 Bft) 95,65 %
18.09.2019 05:00 8,7 C 8,3 C 83 % 1022,2 hPa 0,0 l/m 4,8 km/h (1 Bft) W-NW 292 0,025 mm 0,0 UV-I 0 W/m 6,0 C 8,7 C 8,0 km/h (2 Bft) 95,65 %
18.09.2019 04:59 8,7 C 8,3 C 83 % 1022,2 hPa 0,0 l/m 4,8 km/h (1 Bft) W-NW 292 0,000 mm 0,0 UV-I 0 W/m 6,0 C 8,7 C 8,0 km/h (2 Bft) 95,65 %
18.09.2019 04:58 8,7 C 8,3 C 83 % 1022,2 hPa 0,0 l/m 4,8 km/h (1 Bft) W-NW 292 0,000 mm 0,0 UV-I 0 W/m 6,0 C 8,7 C 6,4 km/h (2 Bft) 91,30 %
18.09.2019 04:57 8,7 C 8,3 C 83 % 1022,2 hPa 0,0 l/m 6,4 km/h (2 Bft) W-NW 292 0,000 mm 0,0 UV-I 0 W/m 6,0 C 8,7 C 9,7 km/h (2 Bft) 100,00 %
18.09.2019 04:56 8,7 C 8,3 C 83 % 1022,2 hPa 0,0 l/m 6,4 km/h (2 Bft) W 270 0,000 mm 0,0 UV-I 0 W/m 6,0 C 8,7 C 9,7 km/h (2 Bft) 86,96 %
18.09.2019 04:55 8,7 C 8,3 C 83 % 1022,2 hPa 0,0 l/m 4,8 km/h (1 Bft) W-NW 292 0,000 mm 0,0 UV-I 0 W/m 6,0 C 8,7 C 9,7 km/h (2 Bft) 100,00 %
18.09.2019 04:54 8,7 C 8,3 C 83 % 1022,2 hPa 0,0 l/m 4,8 km/h (1 Bft) W 270 0,000 mm 0,0 UV-I 0 W/m 6,0 C 8,7 C 8,0 km/h (2 Bft) 100,00 %
18.09.2019 04:53 8,6 C 8,3 C 82 % 1022,2 hPa 0,0 l/m 6,4 km/h (2 Bft) W 270 0,000 mm 0,0 UV-I 0 W/m 5,7 C 8,6 C 9,7 km/h (2 Bft) 100,00 %
18.09.2019 04:52 8,7 C 8,3 C 82 % 1022,2 hPa 0,0 l/m 3,2 km/h (1 Bft) W 270 0,000 mm 0,0 UV-I 0 W/m 5,8 C 8,7 C 6,4 km/h (2 Bft) 95,65 %
18.09.2019 04:51 8,7 C 8,3 C 82 % 1022,1 hPa 0,0 l/m 6,4 km/h (2 Bft) W 270 0,000 mm 0,0 UV-I 0 W/m 5,8 C 8,7 C 9,7 km/h (2 Bft) 100,00 %
18.09.2019 04:50 8,7 C 8,3 C 82 % 1022,1 hPa 0,0 l/m 6,4 km/h (2 Bft) W 270 0,000 mm 0,0 UV-I 0 W/m 5,8 C 8,7 C 9,7 km/h (2 Bft) 100,00 %
18.09.2019 04:49 8,7 C 8,3 C 82 % 1022,2 hPa 0,0 l/m 6,4 km/h (2 Bft) W 270 0,000 mm 0,0 UV-I 0 W/m 5,8 C 8,7 C 9,7 km/h (2 Bft) 100,00 %
18.09.2019 04:48 8,7 C 8,3 C 82 % 1022,1 hPa 0,0 l/m 4,8 km/h (1 Bft) W 270 0,000 mm 0,0 UV-I 0 W/m 5,8 C 8,7 C 9,7 km/h (2 Bft) 100,00 %
18.09.2019 04:47 8,8 C 8,3 C 82 % 1022,1 hPa 0,0 l/m 4,8 km/h (1 Bft) W 270 0,000 mm 0,0 UV-I 0 W/m 5,9 C 8,8 C 6,4 km/h (2 Bft) 95,65 %
18.09.2019 04:46 8,8 C 8,3 C 82 % 1022,0 hPa 0,0 l/m 3,2 km/h (1 Bft) W-SW 247 0,000 mm 0,0 UV-I 0 W/m 5,9 C 8,8 C 9,7 km/h (2 Bft) 100,00 %
18.09.2019 04:45 8,8 C 8,3 C 82 % 1022,0 hPa 0,0 l/m 4,8 km/h (1 Bft) W 270 0,000 mm 0,0 UV-I 0 W/m 5,9 C 8,8 C 9,7 km/h (2 Bft) 91,30 %
18.09.2019 04:44 8,8 C 8,3 C 82 % 1021,9 hPa 0,0 l/m 6,4 km/h (2 Bft) W 270 0,000 mm 0,0 UV-I 0 W/m 5,9 C 8,8 C 11,3 km/h (2 Bft) 95,65 %
18.09.2019 04:43 8,8 C 8,3 C 82 % 1021,9 hPa 0,0 l/m 3,2 km/h (1 Bft) NW 315 0,000 mm 0,0 UV-I 0 W/m 5,9 C 8,8 C 9,7 km/h (2 Bft) 91,30 %
18.09.2019 04:42 8,9 C 8,3 C 82 % 1021,9 hPa 0,0 l/m 8,0 km/h (2 Bft) W 270 0,000 mm 0,0 UV-I 0 W/m 6,0 C 7,7 C 9,7 km/h (2 Bft) 100,00 %
18.09.2019 04:41 8,9 C 8,3 C 82 % 1021,9 hPa 0,0 l/m 8,0 km/h (2 Bft) W 270 0,000 mm 0,0 UV-I 0 W/m 6,0 C 7,7 C 11,3 km/h (2 Bft) 95,65 %
18.09.2019 04:40 8,9 C 8,3 C 82 % 1022,0 hPa 0,0 l/m 4,8 km/h (1 Bft) W 270 0,000 mm 0,0 UV-I 0 W/m 6,0 C 8,9 C 9,7 km/h (2 Bft) 95,65 %
18.09.2019 04:39 8,9 C 8,3 C 81 % 1021,9 hPa 0,0 l/m 6,4 km/h (2 Bft) W 270 0,000 mm 0,0 UV-I 0 W/m 5,8 C 8,9 C 9,7 km/h (2 Bft) 100,00 %
18.09.2019 04:38 8,9 C 8,3 C 81 % 1021,9 hPa 0,0 l/m 3,2 km/h (1 Bft) W-NW 292 0,000 mm 0,0 UV-I 0 W/m 5,8 C 8,9 C 6,4 km/h (2 Bft) 95,65 %
18.09.2019 04:37 8,9 C 8,3 C 82 % 1022,0 hPa 0,0 l/m 4,8 km/h (1 Bft) W-NW 292 0,000 mm 0,0 UV-I 0 W/m 6,0 C 8,9 C 6,4 km/h (2 Bft) 91,30 %
18.09.2019 04:36 8,9 C 8,3 C 82 % 1022,0 hPa 0,0 l/m 4,8 km/h (1 Bft) W-NW 292 0,000 mm 0,0 UV-I 0 W/m 6,0 C 8,9 C 6,4 km/h (2 Bft) 100,00 %
18.09.2019 04:35 8,9 C 8,3 C 82 % 1022,0 hPa 0,0 l/m 4,8 km/h (1 Bft) W-NW 292 0,000 mm 0,0 UV-I 0 W/m 6,0 C 8,9 C 9,7 km/h (2 Bft) 95,65 %
18.09.2019 04:34 8,9 C 8,3 C 82 % 1022,0 hPa 0,0 l/m 4,8 km/h (1 Bft) W-NW 292 0,000 mm 0,0 UV-I 0 W/m 6,0 C 8,9 C 8,0 km/h (2 Bft) 91,30 %
18.09.2019 04:33 8,9 C 8,3 C 81 % 1021,9 hPa 0,0 l/m 4,8 km/h (1 Bft) W-NW 292 0,000 mm 0,0 UV-I 0 W/m 5,8 C 8,9 C 8,0 km/h (2 Bft) 100,00 %
18.09.2019 04:32 9,0 C 8,3 C 82 % 1021,9 hPa 0,0 l/m 4,8 km/h (1 Bft) W 270 0,000 mm 0,0 UV-I 0 W/m 6,1 C 9,0 C 11,3 km/h (2 Bft) 86,96 %
18.09.2019 04:31 8,9 C 8,3 C 82 % 1021,9 hPa 0,0 l/m 4,8 km/h (1 Bft) W-NW 292 0,000 mm 0,0 UV-I 0 W/m 6,0 C 8,9 C 11,3 km/h (2 Bft) 78,26 %
18.09.2019 04:30 8,9 C 8,3 C 82 % 1021,8 hPa 0,0 l/m 4,8 km/h (1 Bft) W 270 0,000 mm 0,0 UV-I 0 W/m 6,0 C 8,9 C 8,0 km/h (2 Bft) 95,65 %
18.09.2019 04:29 8,9 C 8,3 C 82 % 1021,9 hPa 0,0 l/m 4,8 km/h (1 Bft) W-NW 292 0,000 mm 0,0 UV-I 0 W/m 6,0 C 8,9 C 8,0 km/h (2 Bft) 100,00 %
18.09.2019 04:28 8,8 C 8,3 C 82 % 1021,8 hPa 0,0 l/m 3,2 km/h (1 Bft) W-NW 292 0,000 mm 0,0 UV-I 0 W/m 5,9 C 8,8 C 6,4 km/h (2 Bft) 82,61 %
18.09.2019 04:27 8,8 C 8,3 C 82 % 1021,7 hPa 0,0 l/m 3,2 km/h (1 Bft) W 270 0,000 mm 0,0 UV-I 0 W/m 5,9 C 8,8 C 8,0 km/h (2 Bft) 86,96 %
18.09.2019 04:26 8,8 C 8,3 C 82 % 1021,8 hPa 0,0 l/m 6,4 km/h (2 Bft) W-NW 292 0,000 mm 0,0 UV-I 0 W/m 5,9 C 8,8 C 11,3 km/h (2 Bft) 91,30 %
18.09.2019 04:25 8,9 C 8,3 C 82 % 1021,8 hPa 0,0 l/m 6,4 km/h (2 Bft) W 270 0,000 mm 0,0 UV-I 0 W/m 6,0 C 8,9 C 11,3 km/h (2 Bft) 95,65 %
18.09.2019 04:24 8,8 C 8,3 C 82 % 1021,7 hPa 0,0 l/m 8,0 km/h (2 Bft) W 270 0,000 mm 0,0 UV-I 0 W/m 5,9 C 7,6 C 11,3 km/h (2 Bft) 82,61 %
18.09.2019 04:23 8,9 C 8,3 C 82 % 1021,7 hPa 0,0 l/m 6,4 km/h (2 Bft) W 270 0,000 mm 0,0 UV-I 0 W/m 6,0 C 8,9 C 11,3 km/h (2 Bft) 95,65 %
18.09.2019 04:22 8,9 C 8,3 C 81 % 1021,7 hPa 0,0 l/m 4,8 km/h (1 Bft) W-SW 247 0,000 mm 0,0 UV-I 0 W/m 5,8 C 8,9 C 9,7 km/h (2 Bft) 86,96 %
18.09.2019 04:21 8,9 C 8,3 C 81 % 1021,7 hPa 0,0 l/m 6,4 km/h (2 Bft) W 270 0,000 mm 0,0 UV-I 0 W/m 5,8 C 8,9 C 9,7 km/h (2 Bft) 95,65 %
18.09.2019 04:20 8,9 C 8,3 C 81 % 1021,7 hPa 0,0 l/m 3,2 km/h (1 Bft) W-NW 292 0,000 mm 0,0 UV-I 0 W/m 5,8 C 8,9 C 8,0 km/h (2 Bft) 91,30 %
18.09.2019 04:19 9,0 C 8,3 C 81 % 1021,7 hPa 0,0 l/m 6,4 km/h (2 Bft) W-NW 292 0,000 mm 0,0 UV-I 0 W/m 5,9 C 9,0 C 8,0 km/h (2 Bft) 73,91 %
18.09.2019 04:18 9,1 C 8,3 C 81 % 1021,7 hPa 0,0 l/m 4,8 km/h (1 Bft) NW 315 0,000 mm 0,0 UV-I 0 W/m 6,0 C 9,1 C 8,0 km/h (2 Bft) 86,96 %
18.09.2019 04:17 9,1 C 8,3 C 81 % 1021,6 hPa 0,0 l/m 4,8 km/h (1 Bft) W-NW 292 0,000 mm 0,0 UV-I 0 W/m 6,0 C 9,1 C 11,3 km/h (2 Bft) 91,30 %
18.09.2019 04:16 9,1 C 8,3 C 81 % 1021,6 hPa 0,0 l/m 6,4 km/h (2 Bft) W-NW 292 0,000 mm 0,0 UV-I 0 W/m 6,0 C 9,1 C 8,0 km/h (2 Bft) 78,26 %
18.09.2019 04:15 9,2 C 8,3 C 81 % 1021,6 hPa 0,0 l/m 4,8 km/h (1 Bft) W-NW 292 0,000 mm 0,0 UV-I 0 W/m 6,1 C 9,2 C 8,0 km/h (2 Bft) 86,96 %
18.09.2019 04:14 9,2 C 8,9 C 81 % 1021,6 hPa 0,0 l/m 3,2 km/h (1 Bft) NW 315 0,000 mm 0,0 UV-I 0 W/m 6,1 C 9,2 C 8,0 km/h (2 Bft) 82,61 %
18.09.2019 04:13 9,2 C 8,3 C 81 % 1021,6 hPa 0,0 l/m 4,8 km/h (1 Bft) W-NW 292 0,000 mm 0,0 UV-I 0 W/m 6,1 C 9,2 C 6,4 km/h (2 Bft) 82,61 %
18.09.2019 04:12 9,2 C 8,9 C 81 % 1021,6 hPa 0,0 l/m 3,2 km/h (1 Bft) W 270 0,000 mm 0,0 UV-I 0 W/m 6,1 C 9,2 C 8,0 km/h (2 Bft) 82,61 %
18.09.2019 04:11 9,3 C 8,9 C 81 % 1021,5 hPa 0,0 l/m 6,4 km/h (2 Bft) NW 315 0,000 mm 0,0 UV-I 0 W/m 6,2 C 9,3 C 12,9 km/h (3 Bft) 78,26 %
18.09.2019 04:10 9,3 C 8,9 C 81 % 1021,6 hPa 0,0 l/m 4,8 km/h (1 Bft) W-NW 292 0,000 mm 0,0 UV-I 0 W/m 6,2 C 9,3 C 8,0 km/h (2 Bft) 86,96 %
18.09.2019 04:09 9,4 C 8,9 C 81 % 1021,6 hPa 0,0 l/m 3,2 km/h (1 Bft) W-NW 292 0,000 mm 0,0 UV-I 0 W/m 6,3 C 9,4 C 8,0 km/h (2 Bft) 73,91 %
18.09.2019 04:08 9,4 C 8,9 C 81 % 1021,6 hPa 0,0 l/m 4,8 km/h (1 Bft) W-NW 292 0,000 mm 0,0 UV-I 0 W/m 6,3 C 9,4 C 9,7 km/h (2 Bft) 82,61 %
18.09.2019 04:07 9,5 C 8,9 C 81 % 1021,6 hPa 0,0 l/m 4,8 km/h (1 Bft) W 270 0,000 mm 0,0 UV-I 0 W/m 6,4 C 9,5 C 6,4 km/h (2 Bft) 91,30 %
18.09.2019 04:06 9,4 C 8,9 C 81 % 1021,6 hPa 0,0 l/m 1,6 km/h (1 Bft) W-NW 292 0,000 mm 0,0 UV-I 0 W/m 6,3 C 9,4 C 6,4 km/h (2 Bft) 82,61 %
18.09.2019 04:05 9,4 C 8,9 C 81 % 1021,5 hPa 0,0 l/m 4,8 km/h (1 Bft) W-NW 292 0,000 mm 0,0 UV-I 0 W/m 6,3 C 9,4 C 11,3 km/h (2 Bft) 78,26 %
18.09.2019 04:04 9,5 C 8,3 C 81 % 1021,6 hPa 0,0 l/m 4,8 km/h (1 Bft) W-NW 292 0,000 mm 0,0 UV-I 0 W/m 6,4 C 9,5 C 11,3 km/h (2 Bft) 91,30 %
18.09.2019 04:03 9,5 C 8,3 C 81 % 1021,6 hPa 0,0 l/m 4,8 km/h (1 Bft) NW 315 0,000 mm 0,0 UV-I 0 W/m 6,4 C 9,5 C 11,3 km/h (2 Bft) 86,96 %
18.09.2019 04:02 9,5 C 8,3 C 81 % 1021,5 hPa 0,0 l/m 3,2 km/h (1 Bft) NW 315 0,000 mm 0,0 UV-I 0 W/m 6,4 C 9,5 C 6,4 km/h (2 Bft) 82,61 %
18.09.2019 04:01 9,5 C 8,3 C 81 % 1021,6 hPa 0,0 l/m 4,8 km/h (1 Bft) N 360 0,000 mm 0,0 UV-I 0 W/m 6,4 C 9,5 C 12,9 km/h (3 Bft) 69,57 %
18.09.2019 04:00 9,5 C 8,3 C 81 % 1021,5 hPa 0,0 l/m 6,4 km/h (2 Bft) NW 315 0,025 mm 0,0 UV-I 0 W/m 6,4 C 9,5 C 11,3 km/h (2 Bft) 78,26 %
18.09.2019 03:59 9,6 C 8,3 C 81 % 1021,5 hPa 0,0 l/m 6,4 km/h (2 Bft) W 270 0,000 mm 0,0 UV-I 0 W/m 6,5 C 9,6 C 11,3 km/h (2 Bft) 95,65 %
18.09.2019 03:58 9,6 C 8,3 C 82 % 1021,5 hPa 0,0 l/m 4,8 km/h (1 Bft) W-NW 292 0,000 mm 0,0 UV-I 0 W/m 6,7 C 9,6 C 6,4 km/h (2 Bft) 91,30 %
18.09.2019 03:57 9,6 C 8,3 C 82 % 1021,6 hPa 0,0 l/m 8,0 km/h (2 Bft) W-NW 292 0,000 mm 0,0 UV-I 0 W/m 6,7 C 8,4 C 11,3 km/h (2 Bft) 86,96 %
18.09.2019 03:56 9,6 C 8,3 C 81 % 1021,5 hPa 0,0 l/m 1,6 km/h (1 Bft) W-NW 292 0,000 mm 0,0 UV-I 0 W/m 6,5 C 9,6 C 11,3 km/h (2 Bft) 91,30 %
18.09.2019 03:55 9,6 C 8,3 C 82 % 1021,6 hPa 0,0 l/m 6,4 km/h (2 Bft) W 270 0,000 mm 0,0 UV-I 0 W/m 6,7 C 9,6 C 11,3 km/h (2 Bft) 95,65 %
18.09.2019 03:54 9,6 C 8,3 C 82 % 1021,6 hPa 0,0 l/m 3,2 km/h (1 Bft) W-NW 292 0,000 mm 0,0 UV-I 0 W/m 6,7 C 9,6 C 8,0 km/h (2 Bft) 78,26 %
18.09.2019 03:53 9,6 C 8,3 C 82 % 1021,5 hPa 0,0 l/m 4,8 km/h (1 Bft) W-NW 292 0,000 mm 0,0 UV-I 0 W/m 6,7 C 9,6 C 11,3 km/h (2 Bft) 82,61 %
18.09.2019 03:52 9,5 C 8,3 C 81 % 1021,5 hPa 0,0 l/m 6,4 km/h (2 Bft) W-NW 292 0,000 mm 0,0 UV-I 0 W/m 6,4 C 9,5 C 11,3 km/h (2 Bft) 95,65 %
18.09.2019 03:51 9,5 C 8,9 C 82 % 1021,5 hPa 0,0 l/m 1,6 km/h (1 Bft) W-NW 292 0,000 mm 0,0 UV-I 0 W/m 6,6 C 9,5 C 3,2 km/h (1 Bft) 91,30 %
18.09.2019 03:50 9,5 C 8,9 C 82 % 1021,5 hPa 0,0 l/m 4,8 km/h (1 Bft) W-NW 292 0,000 mm 0,0 UV-I 0 W/m 6,6 C 9,5 C 11,3 km/h (2 Bft) 91,30 %
18.09.2019 03:49 9,5 C 8,9 C 82 % 1021,4 hPa 0,0 l/m 3,2 km/h (1 Bft) W 270 0,000 mm 0,0 UV-I 0 W/m 6,6 C 9,5 C 9,7 km/h (2 Bft) 91,30 %
18.09.2019 03:48 9,5 C 8,9 C 82 % 1021,5 hPa 0,0 l/m 3,2 km/h (1 Bft) W-NW 292 0,000 mm 0,0 UV-I 0 W/m 6,6 C 9,5 C 9,7 km/h (2 Bft) 95,65 %
18.09.2019 03:47 9,6 C 8,9 C 82 % 1021,4 hPa 0,0 l/m 3,2 km/h (1 Bft) NW 315 0,000 mm 0,0 UV-I 0 W/m 6,7 C 9,6 C 8,0 km/h (2 Bft) 95,65 %
18.09.2019 03:46 9,6 C 8,9 C 82 % 1021,5 hPa 0,0 l/m 4,8 km/h (1 Bft) W-NW 292 0,000 mm 0,0 UV-I 0 W/m 6,7 C 9,6 C 8,0 km/h (2 Bft) 86,96 %
18.09.2019 03:45 9,7 C 8,9 C 82 % 1021,4 hPa 0,0 l/m 4,8 km/h (1 Bft) W-NW 292 0,000 mm 0,0 UV-I 0 W/m 6,8 C 9,7 C 11,3 km/h (2 Bft) 100,00 %
18.09.2019 03:44 9,7 C 8,9 C 82 % 1021,4 hPa 0,0 l/m 4,8 km/h (1 Bft) W-NW 292 0,000 mm 0,0 UV-I 0 W/m 6,8 C 9,7 C 11,3 km/h (2 Bft) 82,61 %
18.09.2019 03:43 9,7 C 8,9 C 82 % 1021,4 hPa 0,0 l/m 4,8 km/h (1 Bft) W-NW 292 0,000 mm 0,0 UV-I 0 W/m 6,8 C 9,7 C 8,0 km/h (2 Bft) 95,65 %
18.09.2019 03:42 9,6 C 8,9 C 82 % 1021,4 hPa 0,0 l/m 4,8 km/h (1 Bft) W-NW 292 0,000 mm 0,0 UV-I 0 W/m 6,7 C 9,6 C 11,3 km/h (2 Bft) 86,96 %
18.09.2019 03:41 9,6 C 8,9 C 82 % 1021,3 hPa 0,0 l/m 4,8 km/h (1 Bft) W-NW 292 0,000 mm 0,0 UV-I 0 W/m 6,7 C 9,6 C 6,4 km/h (2 Bft) 95,65 %
18.09.2019 03:40 9,7 C 8,9 C 82 % 1021,4 hPa 0,0 l/m 6,4 km/h (2 Bft) W-NW 292 0,000 mm 0,0 UV-I 0 W/m 6,8 C 9,7 C 11,3 km/h (2 Bft) 95,65 %
18.09.2019 03:39 9,7 C 8,9 C 81 % 1021,4 hPa 0,0 l/m 3,2 km/h (1 Bft) W-NW 292 0,000 mm 0,0 UV-I 0 W/m 6,6 C 9,7 C 8,0 km/h (2 Bft) 86,96 %
18.09.2019 03:38 9,7 C 8,9 C 81 % 1021,4 hPa 0,0 l/m 6,4 km/h (2 Bft) W-NW 292 0,000 mm 0,0 UV-I 0 W/m 6,6 C 9,7 C 9,7 km/h (2 Bft) 100,00 %
18.09.2019 03:37 9,7 C 8,9 C 82 % 1021,3 hPa 0,0 l/m 6,4 km/h (2 Bft) W-NW 292 0,000 mm 0,0 UV-I 0 W/m 6,8 C 9,7 C 11,3 km/h (2 Bft) 100,00 %
18.09.2019 03:36 9,7 C 8,9 C 82 % 1021,3 hPa 0,0 l/m 3,2 km/h (1 Bft) W-NW 292 0,000 mm 0,0 UV-I 0 W/m 6,8 C 9,7 C 4,8 km/h (1 Bft) 78,26 %
18.09.2019 03:35 9,7 C 8,9 C 81 % 1021,3 hPa 0,0 l/m 4,8 km/h (1 Bft) W-NW 292 0,000 mm 0,0 UV-I 0 W/m 6,6 C 9,7 C 6,4 km/h (2 Bft) 95,65 %
18.09.2019 03:34 9,8 C 8,9 C 81 % 1021,3 hPa 0,0 l/m 6,4 km/h (2 Bft) NW 315 0,000 mm 0,0 UV-I 0 W/m 6,7 C 9,8 C 9,7 km/h (2 Bft) 91,30 %
18.09.2019 03:33 9,8 C 8,9 C 81 % 1021,3 hPa 0,0 l/m 4,8 km/h (1 Bft) W 270 0,000 mm 0,0 UV-I 0 W/m 6,7 C 9,8 C 9,7 km/h (2 Bft) 100,00 %
18.09.2019 03:32 9,8 C 8,9 C 81 % 1021,2 hPa 0,0 l/m 4,8 km/h (1 Bft) W-NW 292 0,000 mm 0,0 UV-I 0 W/m 6,7 C 9,8 C 6,4 km/h (2 Bft) 86,96 %
18.09.2019 03:31 9,9 C 8,9 C 82 % 1021,2 hPa 0,0 l/m 3,2 km/h (1 Bft) NW 315 0,000 mm 0,0 UV-I 0 W/m 7,0 C 9,9 C 6,4 km/h (2 Bft) 95,65 %
18.09.2019 03:30 9,9 C 8,9 C 82 % 1021,2 hPa 0,0 l/m 3,2 km/h (1 Bft) W-NW 292 0,000 mm 0,0 UV-I 0 W/m 7,0 C 9,9 C 11,3 km/h (2 Bft) 100,00 %
18.09.2019 03:29 9,9 C 8,9 C 82 % 1021,2 hPa 0,0 l/m 6,4 km/h (2 Bft) NW 315 0,000 mm 0,0 UV-I 0 W/m 7,0 C 9,9 C 12,9 km/h (3 Bft) 91,30 %
18.09.2019 03:28 9,9 C 8,9 C 82 % 1021,2 hPa 0,0 l/m 6,4 km/h (2 Bft) W-NW 292 0,000 mm 0,0 UV-I 0 W/m 7,0 C 9,9 C 12,9 km/h (3 Bft) 95,65 %
18.09.2019 03:27 9,9 C 8,9 C 82 % 1021,2 hPa 0,0 l/m 6,4 km/h (2 Bft) W-NW 292 0,000 mm 0,0 UV-I 0 W/m 7,0 C 9,9 C 9,7 km/h (2 Bft) 95,65 %
18.09.2019 03:26 9,9 C 8,9 C 82 % 1021,1 hPa 0,0 l/m 6,4 km/h (2 Bft) W-NW 292 0,000 mm 0,0 UV-I 0 W/m 7,0 C 9,9 C 8,0 km/h (2 Bft) 95,65 %
18.09.2019 03:25 9,9 C 8,9 C 82 % 1021,2 hPa 0,0 l/m 4,8 km/h (1 Bft) W-NW 292 0,000 mm 0,0 UV-I 0 W/m 7,0 C 9,9 C 6,4 km/h (2 Bft) 82,61 %
18.09.2019 03:24 9,9 C 8,9 C 81 % 1021,1 hPa 0,0 l/m 4,8 km/h (1 Bft) W-NW 292 0,000 mm 0,0 UV-I 0 W/m 6,8 C 9,9 C 11,3 km/h (2 Bft) 95,65 %
18.09.2019 03:23 9,9 C 8,9 C 82 % 1021,2 hPa 0,0 l/m 4,8 km/h (1 Bft) W-NW 292 0,000 mm 0,0 UV-I 0 W/m 7,0 C 9,9 C 9,7 km/h (2 Bft) 91,30 %
18.09.2019 03:22 9,9 C 8,9 C 82 % 1021,1 hPa 0,0 l/m 4,8 km/h (1 Bft) NW 315 0,000 mm 0,0 UV-I 0 W/m 7,0 C 9,9 C 8,0 km/h (2 Bft) 82,61 %
18.09.2019 03:21 9,9 C 8,9 C 81 % 1021,1 hPa 0,0 l/m 6,4 km/h (2 Bft) W-NW 292 0,000 mm 0,0 UV-I 0 W/m 6,8 C 9,9 C 11,3 km/h (2 Bft) 86,96 %
18.09.2019 03:20 10,0 C 8,9 C 81 % 1021,1 hPa 0,0 l/m 6,4 km/h (2 Bft) W-NW 292 0,000 mm 0,0 UV-I 0 W/m 6,9 C 10,0 C 9,7 km/h (2 Bft) 78,26 %
18.09.2019 03:19 10,1 C 8,9 C 81 % 1021,1 hPa 0,0 l/m 3,2 km/h (1 Bft) W-NW 292 0,000 mm 0,0 UV-I 0 W/m 7,0 C 10,1 C 6,4 km/h (2 Bft) 91,30 %
18.09.2019 03:18 10,1 C 8,9 C 81 % 1021,1 hPa 0,0 l/m 4,8 km/h (1 Bft) W-NW 292 0,000 mm 0,0 UV-I 0 W/m 7,0 C 10,1 C 6,4 km/h (2 Bft) 86,96 %
18.09.2019 03:17 10,1 C 8,9 C 81 % 1021,1 hPa 0,0 l/m 6,4 km/h (2 Bft) W 270 0,000 mm 0,0 UV-I 0 W/m 7,0 C 10,1 C 8,0 km/h (2 Bft) 95,65 %
18.09.2019 03:16 10,1 C 8,9 C 81 % 1021,1 hPa 0,0 l/m 3,2 km/h (1 Bft) W-NW 292 0,000 mm 0,0 UV-I 0 W/m 7,0 C 10,1 C 6,4 km/h (2 Bft) 82,61 %
18.09.2019 03:15 10,2 C 8,9 C 81 % 1021,1 hPa 0,0 l/m 4,8 km/h (1 Bft) W-NW 292 0,000 mm 0,0 UV-I 0 W/m 7,1 C 10,2 C 12,9 km/h (3 Bft) 91,30 %
18.09.2019 03:14 10,2 C 8,9 C 81 % 1021,1 hPa 0,0 l/m 4,8 km/h (1 Bft) W-NW 292 0,000 mm 0,0 UV-I 0 W/m 7,1 C 10,2 C 9,7 km/h (2 Bft) 95,65 %
18.09.2019 03:13 10,2 C 8,9 C 81 % 1021,1 hPa 0,0 l/m 4,8 km/h (1 Bft) W-NW 292 0,000 mm 0,0 UV-I 0 W/m 7,1 C 10,2 C 6,4 km/h (2 Bft) 82,61 %
18.09.2019 03:12 10,2 C 8,9 C 80 % 1021,1 hPa 0,0 l/m 1,6 km/h (1 Bft) W-NW 292 0,000 mm 0,0 UV-I 0 W/m 6,9 C 10,2 C 6,4 km/h (2 Bft) 86,96 %
18.09.2019 03:11 10,2 C 8,9 C 81 % 1021,1 hPa 0,0 l/m 3,2 km/h (1 Bft) W-NW 292 0,000 mm 0,0 UV-I 0 W/m 7,1 C 10,2 C 8,0 km/h (2 Bft) 82,61 %
18.09.2019 03:10 10,2 C 8,9 C 81 % 1021,1 hPa 0,0 l/m 4,8 km/h (1 Bft) W-NW 292 0,000 mm 0,0 UV-I 0 W/m 7,1 C 10,2 C 11,3 km/h (2 Bft) 91,30 %
18.09.2019 03:09 10,2 C 8,9 C 80 % 1021,0 hPa 0,0 l/m 4,8 km/h (1 Bft) W-NW 292 0,000 mm 0,0 UV-I 0 W/m 6,9 C 10,2 C 9,7 km/h (2 Bft) 86,96 %
18.09.2019 03:08 10,2 C 8,9 C 80 % 1021,0 hPa 0,0 l/m 4,8 km/h (1 Bft) W-NW 292 0,000 mm 0,0 UV-I 0 W/m 6,9 C 10,2 C 8,0 km/h (2 Bft) 86,96 %
18.09.2019 03:07 10,3 C 8,9 C 81 % 1021,0 hPa 0,0 l/m 3,2 km/h (1 Bft) W-NW 292 0,000 mm 0,0 UV-I 0 W/m 7,2 C 10,3 C 6,4 km/h (2 Bft) 86,96 %
18.09.2019 03:06 10,3 C 8,9 C 81 % 1021,0 hPa 0,0 l/m 3,2 km/h (1 Bft) NW 315 0,000 mm 0,0 UV-I 0 W/m 7,2 C 10,3 C 6,4 km/h (2 Bft) 91,30 %
18.09.2019 03:05 10,3 C 8,9 C 81 % 1021,0 hPa 0,0 l/m 6,4 km/h (2 Bft) W 270 0,000 mm 0,0 UV-I 0 W/m 7,2 C 10,3 C 12,9 km/h (3 Bft) 91,30 %
18.09.2019 03:04 10,3 C 8,9 C 81 % 1020,9 hPa 0,0 l/m 6,4 km/h (2 Bft) W 270 0,000 mm 0,0 UV-I 0 W/m 7,2 C 10,3 C 12,9 km/h (3 Bft) 95,65 %
18.09.2019 03:03 10,3 C 8,9 C 81 % 1020,9 hPa 0,0 l/m 4,8 km/h (1 Bft) W 270 0,000 mm 0,0 UV-I 0 W/m 7,2 C 10,3 C 6,4 km/h (2 Bft) 65,22 %
18.09.2019 03:02 10,3 C 8,9 C 80 % 1020,9 hPa 0,0 l/m 1,6 km/h (1 Bft) SW 225 0,000 mm 0,0 UV-I 0 W/m 7,0 C 10,3 C 4,8 km/h (1 Bft) 73,91 %
18.09.2019 03:01 10,4 C 8,9 C 80 % 1020,9 hPa 0,0 l/m 6,4 km/h (2 Bft) W-NW 292 0,000 mm 0,0 UV-I 0 W/m 7,1 C 10,4 C 12,9 km/h (3 Bft) 95,65 %
18.09.2019 03:00 10,4 C 8,9 C 80 % 1021,0 hPa 0,0 l/m 8,0 km/h (2 Bft) W-NW 292 0,025 mm 0,0 UV-I 0 W/m 7,1 C 9,3 C 11,3 km/h (2 Bft) 91,30 %
18.09.2019 02:59 10,4 C 8,9 C 80 % 1020,9 hPa 0,0 l/m 3,2 km/h (1 Bft) W 270 0,000 mm 0,0 UV-I 0 W/m 7,1 C 10,4 C 9,7 km/h (2 Bft) 86,96 %
18.09.2019 02:58 10,4 C 8,9 C 80 % 1020,9 hPa 0,0 l/m 6,4 km/h (2 Bft) W 270 0,000 mm 0,0 UV-I 0 W/m 7,1 C 10,4 C 9,7 km/h (2 Bft) 91,30 %
18.09.2019 02:57 10,4 C 8,9 C 80 % 1020,9 hPa 0,0 l/m 3,2 km/h (1 Bft) W-NW 292 0,000 mm 0,0 UV-I 0 W/m 7,1 C 10,4 C 11,3 km/h (2 Bft) 86,96 %
18.09.2019 02:56 10,5 C 8,9 C 80 % 1020,9 hPa 0,0 l/m 4,8 km/h (1 Bft) NW 315 0,000 mm 0,0 UV-I 0 W/m 7,2 C 10,5 C 9,7 km/h (2 Bft) 82,61 %
18.09.2019 02:55 10,4 C 8,9 C 80 % 1020,9 hPa 0,0 l/m 6,4 km/h (2 Bft) W 270 0,000 mm 0,0 UV-I 0 W/m 7,1 C 10,4 C 11,3 km/h (2 Bft) 91,30 %
18.09.2019 02:54 10,5 C 8,9 C 80 % 1020,9 hPa 0,0 l/m 4,8 km/h (1 Bft) W-NW 292 0,000 mm 0,0 UV-I 0 W/m 7,2 C 10,5 C 12,9 km/h (3 Bft) 95,65 %
18.09.2019 02:53 10,5 C 8,9 C 81 % 1021,0 hPa 0,0 l/m 4,8 km/h (1 Bft) W-NW 292 0,000 mm 0,0 UV-I 0 W/m 7,4 C 10,5 C 4,8 km/h (1 Bft) 86,96 %
18.09.2019 02:52 10,5 C 8,9 C 81 % 1020,9 hPa 0,0 l/m 4,8 km/h (1 Bft) NW 315 0,000 mm 0,0 UV-I 0 W/m 7,4 C 10,5 C 6,4 km/h (2 Bft) 73,91 %
18.09.2019 02:51 10,5 C 8,9 C 81 % 1021,0 hPa 0,0 l/m 3,2 km/h (1 Bft) NW 315 0,000 mm 0,0 UV-I 0 W/m 7,4 C 10,5 C 8,0 km/h (2 Bft) 86,96 %
18.09.2019 02:50 10,5 C 8,9 C 80 % 1020,9 hPa 0,0 l/m 4,8 km/h (1 Bft) NW 315 0,000 mm 0,0 UV-I 0 W/m 7,2 C 10,5 C 9,7 km/h (2 Bft) 91,30 %
18.09.2019 02:49 10,5 C 8,9 C 80 % 1020,9 hPa 0,0 l/m 4,8 km/h (1 Bft) W-NW 292 0,000 mm 0,0 UV-I 0 W/m 7,2 C 10,5 C 12,9 km/h (3 Bft) 95,65 %
18.09.2019 02:48 10,6 C 8,9 C 80 % 1020,9 hPa 0,0 l/m 6,4 km/h (2 Bft) W-NW 292 0,000 mm 0,0 UV-I 0 W/m 7,3 C 10,6 C 14,5 km/h (3 Bft) 82,61 %
18.09.2019 02:47 10,6 C 8,9 C 80 % 1020,9 hPa 0,0 l/m 4,8 km/h (1 Bft) W 270 0,000 mm 0,0 UV-I 0 W/m 7,3 C 10,6 C 12,9 km/h (3 Bft) 91,30 %
18.09.2019 02:46 10,6 C 8,9 C 80 % 1020,9 hPa 0,0 l/m 4,8 km/h (1 Bft) W-NW 292 0,000 mm 0,0 UV-I 0 W/m 7,3 C 10,6 C 9,7 km/h (2 Bft) 69,57 %
18.09.2019 02:45 10,6 C 8,9 C 80 % 1020,8 hPa 0,0 l/m 6,4 km/h (2 Bft) W-NW 292 0,000 mm 0,0 UV-I 0 W/m 7,3 C 10,6 C 12,9 km/h (3 Bft) 86,96 %
18.09.2019 02:44 10,6 C 8,9 C 80 % 1020,9 hPa 0,0 l/m 3,2 km/h (1 Bft) W 270 0,000 mm 0,0 UV-I 0 W/m 7,3 C 10,6 C 9,7 km/h (2 Bft) 78,26 %
18.09.2019 02:43 10,6 C 8,9 C 81 % 1020,8 hPa 0,0 l/m 4,8 km/h (1 Bft) W-NW 292 0,000 mm 0,0 UV-I 0 W/m 7,5 C 10,6 C 9,7 km/h (2 Bft) 78,26 %
18.09.2019 02:42 10,5 C 8,9 C 81 % 1020,9 hPa 0,0 l/m 4,8 km/h (1 Bft) W 270 0,000 mm 0,0 UV-I 0 W/m 7,4 C 10,5 C 11,3 km/h (2 Bft) 95,65 %
18.09.2019 02:41 10,5 C 8,9 C 81 % 1020,8 hPa 0,0 l/m 3,2 km/h (1 Bft) W-NW 292 0,000 mm 0,0 UV-I 0 W/m 7,4 C 10,5 C 9,7 km/h (2 Bft) 100,00 %
18.09.2019 02:40 10,5 C 8,9 C 81 % 1020,8 hPa 0,0 l/m 4,8 km/h (1 Bft) SW 225 0,000 mm 0,0 UV-I 0 W/m 7,4 C 10,5 C 11,3 km/h (2 Bft) 100,00 %
18.09.2019 02:39 10,5 C 8,9 C 81 % 1020,8 hPa 0,0 l/m 8,0 km/h (2 Bft) W 270 0,000 mm 0,0 UV-I 0 W/m 7,4 C 9,4 C 12,9 km/h (3 Bft) 82,61 %
18.09.2019 02:38 10,5 C 8,9 C 81 % 1020,8 hPa 0,0 l/m 4,8 km/h (1 Bft) W-NW 292 0,000 mm 0,0 UV-I 0 W/m 7,4 C 10,5 C 9,7 km/h (2 Bft) 82,61 %
18.09.2019 02:37 10,5 C 8,9 C 81 % 1020,8 hPa 0,0 l/m 3,2 km/h (1 Bft) NW 315 0,000 mm 0,0 UV-I 0 W/m 7,4 C 10,5 C 8,0 km/h (2 Bft) 78,26 %
18.09.2019 02:36 10,5 C 8,9 C 81 % 1020,8 hPa 0,0 l/m 3,2 km/h (1 Bft) W 270 0,000 mm 0,0 UV-I 0 W/m 7,4 C 10,5 C 6,4 km/h (2 Bft) 91,30 %
18.09.2019 02:35 10,5 C 9,4 C 81 % 1020,8 hPa 0,0 l/m 8,0 km/h (2 Bft) W 270 0,000 mm 0,0 UV-I 0 W/m 7,4 C 9,4 C 11,3 km/h (2 Bft) 82,61 %
18.09.2019 02:34 10,6 C 9,4 C 81 % 1020,8 hPa 0,0 l/m 6,4 km/h (2 Bft) W 270 0,000 mm 0,0 UV-I 0 W/m 7,5 C 10,6 C 9,7 km/h (2 Bft) 78,26 %
18.09.2019 02:33 10,6 C 9,4 C 81 % 1020,8 hPa 0,0 l/m 6,4 km/h (2 Bft) W-NW 292 0,000 mm 0,0 UV-I 0 W/m 7,5 C 10,6 C 9,7 km/h (2 Bft) 95,65 %
18.09.2019 02:32 10,7 C 9,4 C 81 % 1020,8 hPa 0,0 l/m 4,8 km/h (1 Bft) W 270 0,000 mm 0,0 UV-I 0 W/m 7,6 C 10,7 C 9,7 km/h (2 Bft) 78,26 %
18.09.2019 02:31 10,7 C 9,4 C 81 % 1020,8 hPa 0,0 l/m 3,2 km/h (1 Bft) W-SW 247 0,000 mm 0,0 UV-I 0 W/m 7,6 C 10,7 C 9,7 km/h (2 Bft) 82,61 %
18.09.2019 02:30 10,6 C 9,4 C 81 % 1020,8 hPa 0,0 l/m 6,4 km/h (2 Bft) W 270 0,000 mm 0,0 UV-I 0 W/m 7,5 C 10,6 C 11,3 km/h (2 Bft) 73,91 %
18.09.2019 02:29 10,6 C 9,4 C 81 % 1020,8 hPa 0,0 l/m 3,2 km/h (1 Bft) W-NW 292 0,000 mm 0,0 UV-I 0 W/m 7,5 C 10,6 C 6,4 km/h (2 Bft) 91,30 %
18.09.2019 02:28 10,6 C 9,4 C 81 % 1020,9 hPa 0,0 l/m 8,0 km/h (2 Bft) W 270 0,000 mm 0,0 UV-I 0 W/m 7,5 C 9,5 C 11,3 km/h (2 Bft) 73,91 %
18.09.2019 02:27 10,7 C 9,4 C 81 % 1020,8 hPa 0,0 l/m 9,7 km/h (2 Bft) W 270 0,000 mm 0,0 UV-I 0 W/m 7,6 C 8,5 C 12,9 km/h (3 Bft) 91,30 %
18.09.2019 02:26 10,7 C 9,4 C 81 % 1020,8 hPa 0,0 l/m 3,2 km/h (1 Bft) W 270 0,000 mm 0,0 UV-I 0 W/m 7,6 C 10,7 C 4,8 km/h (1 Bft) 73,91 %
18.09.2019 02:25 10,7 C 9,4 C 81 % 1020,8 hPa 0,0 l/m 3,2 km/h (1 Bft) W 270 0,000 mm 0,0 UV-I 0 W/m 7,6 C 10,7 C 9,7 km/h (2 Bft) 86,96 %
18.09.2019 02:24 10,7 C 9,4 C 81 % 1020,8 hPa 0,0 l/m 4,8 km/h (1 Bft) W 270 0,000 mm 0,0 UV-I 0 W/m 7,6 C 10,7 C 11,3 km/h (2 Bft) 91,30 %
18.09.2019 02:23 10,7 C 9,4 C 81 % 1020,8 hPa 0,0 l/m 8,0 km/h (2 Bft) W 270 0,000 mm 0,0 UV-I 0 W/m 7,6 C 9,6 C 12,9 km/h (3 Bft) 78,26 %
18.09.2019 02:22 10,7 C 9,4 C 81 % 1020,8 hPa 0,0 l/m 4,8 km/h (1 Bft) W-NW 292 0,000 mm 0,0 UV-I 0 W/m 7,6 C 10,7 C 12,9 km/h (3 Bft) 86,96 %
18.09.2019 02:21 10,7 C 9,4 C 81 % 1020,8 hPa 0,0 l/m 3,2 km/h (1 Bft) W 270 0,000 mm 0,0 UV-I 0 W/m 7,6 C 10,7 C 9,7 km/h (2 Bft) 82,61 %
18.09.2019 02:20 10,6 C 9,4 C 81 % 1020,8 hPa 0,0 l/m 4,8 km/h (1 Bft) NW 315 0,000 mm 0,0 UV-I 0 W/m 7,5 C 10,6 C 9,7 km/h (2 Bft) 78,26 %
18.09.2019 02:19 10,6 C 9,4 C 82 % 1020,8 hPa 0,0 l/m 3,2 km/h (1 Bft) W 270 0,000 mm 0,0 UV-I 0 W/m 7,7 C 10,6 C 9,7 km/h (2 Bft) 95,65 %
18.09.2019 02:18 10,6 C 9,4 C 82 % 1020,9 hPa 0,0 l/m 3,2 km/h (1 Bft) W 270 0,000 mm 0,0 UV-I 0 W/m 7,7 C 10,6 C 9,7 km/h (2 Bft) 73,91 %
18.09.2019 02:17 10,7 C 9,4 C 82 % 1020,8 hPa 0,0 l/m 3,2 km/h (1 Bft) W-SW 247 0,000 mm 0,0 UV-I 0 W/m 7,8 C 10,7 C 4,8 km/h (1 Bft) 78,26 %
18.09.2019 02:16 10,7 C 9,4 C 82 % 1020,9 hPa 0,0 l/m 4,8 km/h (1 Bft) W 270 0,000 mm 0,0 UV-I 0 W/m 7,8 C 10,7 C 9,7 km/h (2 Bft) 91,30 %
18.09.2019 02:15 10,7 C 9,4 C 82 % 1020,8 hPa 0,0 l/m 6,4 km/h (2 Bft) W 270 0,000 mm 0,0 UV-I 0 W/m 7,8 C 10,7 C 11,3 km/h (2 Bft) 86,96 %
18.09.2019 02:14 10,8 C 9,4 C 82 % 1020,8 hPa 0,0 l/m 8,0 km/h (2 Bft) W-SW 247 0,000 mm 0,0 UV-I 0 W/m 7,9 C 9,7 C 12,9 km/h (3 Bft) 91,30 %
18.09.2019 02:13 10,8 C 9,4 C 81 % 1020,9 hPa 0,0 l/m 6,4 km/h (2 Bft) W 270 0,000 mm 0,0 UV-I 0 W/m 7,7 C 10,8 C 9,7 km/h (2 Bft) 95,65 %
18.09.2019 02:12 10,7 C 9,4 C 81 % 1020,8 hPa 0,0 l/m 4,8 km/h (1 Bft) W 270 0,000 mm 0,0 UV-I 0 W/m 7,6 C 10,7 C 9,7 km/h (2 Bft) 82,61 %
18.09.2019 02:11 10,7 C 9,4 C 82 % 1020,9 hPa 0,0 l/m 4,8 km/h (1 Bft) W 270 0,000 mm 0,0 UV-I 0 W/m 7,8 C 10,7 C 9,7 km/h (2 Bft) 100,00 %
18.09.2019 02:10 10,7 C 9,4 C 82 % 1020,9 hPa 0,0 l/m 6,4 km/h (2 Bft) W 270 0,000 mm 0,0 UV-I 0 W/m 7,8 C 10,7 C 12,9 km/h (3 Bft) 86,96 %
18.09.2019 02:09 10,7 C 9,4 C 82 % 1020,9 hPa 0,0 l/m 3,2 km/h (1 Bft) W 270 0,000 mm 0,0 UV-I 0 W/m 7,8 C 10,7 C 9,7 km/h (2 Bft) 82,61 %
18.09.2019 02:08 10,7 C 9,4 C 82 % 1020,9 hPa 0,0 l/m 6,4 km/h (2 Bft) W 270 0,000 mm 0,0 UV-I 0 W/m 7,8 C 10,7 C 11,3 km/h (2 Bft) 91,30 %
18.09.2019 02:07 10,7 C 9,4 C 82 % 1020,9 hPa 0,0 l/m 3,2 km/h (1 Bft) W-NW 292 0,000 mm 0,0 UV-I 0 W/m 7,8 C 10,7 C 6,4 km/h (2 Bft) 95,65 %
18.09.2019 02:06 10,6 C 9,4 C 82 % 1020,9 hPa 0,0 l/m 4,8 km/h (1 Bft) W-NW 292 0,000 mm 0,0 UV-I 0 W/m 7,7 C 10,6 C 9,7 km/h (2 Bft) 78,26 %
18.09.2019 02:05 10,7 C 9,4 C 81 % 1020,9 hPa 0,0 l/m 4,8 km/h (1 Bft) W-NW 292 0,000 mm 0,0 UV-I 0 W/m 7,6 C 10,7 C 6,4 km/h (2 Bft) 91,30 %
18.09.2019 02:04 10,7 C 9,4 C 81 % 1020,8 hPa 0,0 l/m 9,7 km/h (2 Bft) W 270 0,000 mm 0,0 UV-I 0 W/m 7,6 C 8,5 C 12,9 km/h (3 Bft) 95,65 %
18.09.2019 02:03 10,7 C 9,4 C 81 % 1020,9 hPa 0,0 l/m 6,4 km/h (2 Bft) W 270 0,000 mm 0,0 UV-I 0 W/m 7,6 C 10,7 C 9,7 km/h (2 Bft) 95,65 %
18.09.2019 02:02 10,7 C 9,4 C 81 % 1020,8 hPa 0,0 l/m 3,2 km/h (1 Bft) W 270 0,000 mm 0,0 UV-I 0 W/m 7,6 C 10,7 C 6,4 km/h (2 Bft) 86,96 %
18.09.2019 02:01 10,7 C 10,0 C 82 % 1020,8 hPa 0,0 l/m 4,8 km/h (1 Bft) W 270 0,000 mm 0,0 UV-I 0 W/m 7,8 C 10,7 C 9,7 km/h (2 Bft) 91,30 %
18.09.2019 02:00 10,7 C 10,0 C 82 % 1020,9 hPa 0,0 l/m 6,4 km/h (2 Bft) W 270 0,025 mm 0,0 UV-I 0 W/m 7,8 C 10,7 C 11,3 km/h (2 Bft) 86,96 %
18.09.2019 01:59 10,7 C 10,0 C 82 % 1020,8 hPa 0,0 l/m 8,0 km/h (2 Bft) W 270 0,000 mm 0,0 UV-I 0 W/m 7,8 C 9,6 C 12,9 km/h (3 Bft) 95,65 %
18.09.2019 01:58 10,8 C 10,0 C 82 % 1020,9 hPa 0,0 l/m 6,4 km/h (2 Bft) W 270 0,000 mm 0,0 UV-I 0 W/m 7,9 C 10,8 C 9,7 km/h (2 Bft) 100,00 %
18.09.2019 01:57 10,8 C 10,0 C 82 % 1020,9 hPa 0,0 l/m 6,4 km/h (2 Bft) W 270 0,000 mm 0,0 UV-I 0 W/m 7,9 C 10,8 C 11,3 km/h (2 Bft) 91,30 %
18.09.2019 01:56 10,8 C 10,0 C 82 % 1020,8 hPa 0,0 l/m 3,2 km/h (1 Bft) W 270 0,000 mm 0,0 UV-I 0 W/m 7,9 C 10,8 C 6,4 km/h (2 Bft) 91,30 %
18.09.2019 01:55 10,8 C 10,0 C 82 % 1020,8 hPa 0,0 l/m 6,4 km/h (2 Bft) W 270 0,000 mm 0,0 UV-I 0 W/m 7,9 C 10,8 C 12,9 km/h (3 Bft) 100,00 %
18.09.2019 01:54 10,8 C 10,0 C 82 % 1020,8 hPa 0,0 l/m 4,8 km/h (1 Bft) W 270 0,000 mm 0,0 UV-I 0 W/m 7,9 C 10,8 C 9,7 km/h (2 Bft) 95,65 %
18.09.2019 01:53 10,8 C 10,0 C 82 % 1020,8 hPa 0,0 l/m 4,8 km/h (1 Bft) W 270 0,000 mm 0,0 UV-I 0 W/m 7,9 C 10,8 C 11,3 km/h (2 Bft) 100,00 %
18.09.2019 01:52 10,8 C 10,0 C 82 % 1020,8 hPa 0,0 l/m 3,2 km/h (1 Bft) W 270 0,000 mm 0,0 UV-I 0 W/m 7,9 C 10,8 C 6,4 km/h (2 Bft) 95,65 %
18.09.2019 01:51 10,8 C 9,4 C 81 % 1020,8 hPa 0,0 l/m 4,8 km/h (1 Bft) W-SW 247 0,000 mm 0,0 UV-I 0 W/m 7,7 C 10,8 C 6,4 km/h (2 Bft) 100,00 %
18.09.2019 01:50 10,8 C 9,4 C 81 % 1020,9 hPa 0,0 l/m 4,8 km/h (1 Bft) W 270 0,000 mm 0,0 UV-I 0 W/m 7,7 C 10,8 C 6,4 km/h (2 Bft) 82,61 %
18.09.2019 01:49 10,8 C 9,4 C 81 % 1020,9 hPa 0,0 l/m 4,8 km/h (1 Bft) W 270 0,000 mm 0,0 UV-I 0 W/m 7,7 C 10,8 C 9,7 km/h (2 Bft) 95,65 %
18.09.2019 01:48 10,9 C 9,4 C 81 % 1020,8 hPa 0,0 l/m 4,8 km/h (1 Bft) W-SW 247 0,000 mm 0,0 UV-I 0 W/m 7,8 C 10,9 C 12,9 km/h (3 Bft) 91,30 %
18.09.2019 01:47 10,9 C 9,4 C 81 % 1020,8 hPa 0,0 l/m 4,8 km/h (1 Bft) W 270 0,000 mm 0,0 UV-I 0 W/m 7,8 C 10,9 C 12,9 km/h (3 Bft) 100,00 %
18.09.2019 01:46 10,9 C 9,4 C 81 % 1020,9 hPa 0,0 l/m 3,2 km/h (1 Bft) W 270 0,000 mm 0,0 UV-I 0 W/m 7,8 C 10,9 C 6,4 km/h (2 Bft) 86,96 %
18.09.2019 01:45 10,9 C 10,0 C 81 % 1020,8 hPa 0,0 l/m 4,8 km/h (1 Bft) W 270 0,000 mm 0,0 UV-I 0 W/m 7,8 C 10,9 C 9,7 km/h (2 Bft) 91,30 %
18.09.2019 01:44 10,9 C 9,4 C 81 % 1020,8 hPa 0,0 l/m 3,2 km/h (1 Bft) W-SW 247 0,000 mm 0,0 UV-I 0 W/m 7,8 C 10,9 C 9,7 km/h (2 Bft) 91,30 %
18.09.2019 01:43 10,9 C 9,4 C 81 % 1020,8 hPa 0,0 l/m 6,4 km/h (2 Bft) W-NW 292 0,000 mm 0,0 UV-I 0 W/m 7,8 C 10,9 C 11,3 km/h (2 Bft) 100,00 %
18.09.2019 01:42 10,9 C 10,0 C 81 % 1020,8 hPa 0,0 l/m 3,2 km/h (1 Bft) W 270 0,000 mm 0,0 UV-I 0 W/m 7,8 C 10,9 C 6,4 km/h (2 Bft) 86,96 %
18.09.2019 01:41 11,0 C 10,0 C 81 % 1020,8 hPa 0,0 l/m 8,0 km/h (2 Bft) W 270 0,000 mm 0,0 UV-I 0 W/m 7,9 C 9,9 C 14,5 km/h (3 Bft) 86,96 %
18.09.2019 01:40 10,9 C 10,0 C 81 % 1020,8 hPa 0,0 l/m 6,4 km/h (2 Bft) W 270 0,000 mm 0,0 UV-I 0 W/m 7,8 C 10,9 C 11,3 km/h (2 Bft) 100,00 %
18.09.2019 01:39 10,9 C 10,0 C 81 % 1020,8 hPa 0,0 l/m 3,2 km/h (1 Bft) W-SW 247 0,000 mm 0,0 UV-I 0 W/m 7,8 C 10,9 C 4,8 km/h (1 Bft) 78,26 %
18.09.2019 01:38 11,0 C 10,0 C 81 % 1020,9 hPa 0,0 l/m 4,8 km/h (1 Bft) W 270 0,000 mm 0,0 UV-I 0 W/m 7,9 C 11,0 C 12,9 km/h (3 Bft) 95,65 %
18.09.2019 01:37 10,9 C 10,0 C 81 % 1020,9 hPa 0,0 l/m 3,2 km/h (1 Bft) W 270 0,000 mm 0,0 UV-I 0 W/m 7,8 C 10,9 C 11,3 km/h (2 Bft) 91,30 %
18.09.2019 01:36 10,9 C 10,0 C 81 % 1020,8 hPa 0,0 l/m 6,4 km/h (2 Bft) W 270 0,000 mm 0,0 UV-I 0 W/m 7,8 C 10,9 C 9,7 km/h (2 Bft) 82,61 %
18.09.2019 01:35 10,9 C 10,0 C 81 % 1020,8 hPa 0,0 l/m 3,2 km/h (1 Bft) W-SW 247 0,000 mm 0,0 UV-I 0 W/m 7,8 C 10,9 C 6,4 km/h (2 Bft) 82,61 %
18.09.2019 01:34 10,9 C 10,0 C 81 % 1020,8 hPa 0,0 l/m 4,8 km/h (1 Bft) W 270 0,000 mm 0,0 UV-I 0 W/m 7,8 C 10,9 C 9,7 km/h (2 Bft) 78,26 %
18.09.2019 01:33 10,9 C 10,0 C 81 % 1020,8 hPa 0,0 l/m 3,2 km/h (1 Bft) W-NW 292 0,000 mm 0,0 UV-I 0 W/m 7,8 C 10,9 C 6,4 km/h (2 Bft) 78,26 %
18.09.2019 01:32 11,0 C 10,0 C 81 % 1020,8 hPa 0,0 l/m 4,8 km/h (1 Bft) W-SW 247 0,000 mm 0,0 UV-I 0 W/m 7,9 C 11,0 C 11,3 km/h (2 Bft) 95,65 %
18.09.2019 01:31 11,1 C 10,0 C 81 % 1020,7 hPa 0,0 l/m 4,8 km/h (1 Bft) W 270 0,000 mm 0,0 UV-I 0 W/m 8,0 C 11,1 C 9,7 km/h (2 Bft) 82,61 %
18.09.2019 01:30 11,1 C 10,0 C 81 % 1020,8 hPa 0,0 l/m 4,8 km/h (1 Bft) W-SW 247 0,000 mm 0,0 UV-I 0 W/m 8,0 C 11,1 C 14,5 km/h (3 Bft) 91,30 %
18.09.2019 01:29 11,1 C 10,0 C 81 % 1020,7 hPa 0,0 l/m 8,0 km/h (2 Bft) W 270 0,000 mm 0,0 UV-I 0 W/m 8,0 C 10,0 C 14,5 km/h (3 Bft) 86,96 %
18.09.2019 01:28 11,2 C 10,0 C 80 % 1020,7 hPa 0,0 l/m 4,8 km/h (1 Bft) W-NW 292 0,000 mm 0,0 UV-I 0 W/m 7,9 C 11,2 C 6,4 km/h (2 Bft) 91,30 %
18.09.2019 01:27 11,2 C 10,0 C 80 % 1020,7 hPa 0,0 l/m 4,8 km/h (1 Bft) W 270 0,000 mm 0,0 UV-I 0 W/m 7,9 C 11,2 C 11,3 km/h (2 Bft) 78,26 %
18.09.2019 01:26 11,2 C 10,0 C 80 % 1020,7 hPa 0,0 l/m 4,8 km/h (1 Bft) W 270 0,000 mm 0,0 UV-I 0 W/m 7,9 C 11,2 C 9,7 km/h (2 Bft) 100,00 %
18.09.2019 01:25 11,2 C 10,0 C 80 % 1020,6 hPa 0,0 l/m 4,8 km/h (1 Bft) W 270 0,000 mm 0,0 UV-I 0 W/m 7,9 C 11,2 C 9,7 km/h (2 Bft) 91,30 %
18.09.2019 01:24 11,2 C 10,0 C 80 % 1020,7 hPa 0,0 l/m 6,4 km/h (2 Bft) W 270 0,000 mm 0,0 UV-I 0 W/m 7,9 C 11,2 C 11,3 km/h (2 Bft) 73,91 %
18.09.2019 01:23 11,2 C 10,0 C 80 % 1020,6 hPa 0,0 l/m 3,2 km/h (1 Bft) W 270 0,000 mm 0,0 UV-I 0 W/m 7,9 C 11,2 C 4,8 km/h (1 Bft) 100,00 %
18.09.2019 01:22 11,3 C 10,0 C 80 % 1020,6 hPa 0,0 l/m 3,2 km/h (1 Bft) W-SW 247 0,000 mm 0,0 UV-I 0 W/m 8,0 C 11,3 C 4,8 km/h (1 Bft) 78,26 %
18.09.2019 01:21 11,3 C 10,0 C 80 % 1020,6 hPa 0,0 l/m 6,4 km/h (2 Bft) W-SW 247 0,000 mm 0,0 UV-I 0 W/m 8,0 C 11,3 C 9,7 km/h (2 Bft) 78,26 %
18.09.2019 01:20 11,2 C 10,0 C 80 % 1020,6 hPa 0,0 l/m 4,8 km/h (1 Bft) W-SW 247 0,000 mm 0,0 UV-I 0 W/m 7,9 C 11,2 C 9,7 km/h (2 Bft) 78,26 %
18.09.2019 01:19 11,2 C 10,0 C 80 % 1020,6 hPa 0,0 l/m 8,0 km/h (2 Bft) W 270 0,000 mm 0,0 UV-I 0 W/m 7,9 C 10,1 C 12,9 km/h (3 Bft) 60,87 %
18.09.2019 01:18 11,2 C 10,0 C 80 % 1020,5 hPa 0,0 l/m 4,8 km/h (1 Bft) W-SW 247 0,000 mm 0,0 UV-I 0 W/m 7,9 C 11,2 C 9,7 km/h (2 Bft) 82,61 %
18.09.2019 01:17 11,2 C 10,0 C 81 % 1020,6 hPa 0,0 l/m 4,8 km/h (1 Bft) W 270 0,000 mm 0,0 UV-I 0 W/m 8,1 C 11,2 C 9,7 km/h (2 Bft) 73,91 %
18.09.2019 01:16 11,2 C 10,0 C 81 % 1020,5 hPa 0,0 l/m 3,2 km/h (1 Bft) W 270 0,000 mm 0,0 UV-I 0 W/m 8,1 C 11,2 C 4,8 km/h (1 Bft) 100,00 %
18.09.2019 01:15 11,2 C 10,0 C 81 % 1020,6 hPa 0,0 l/m 4,8 km/h (1 Bft) W 270 0,000 mm 0,0 UV-I 0 W/m 8,1 C 11,2 C 6,4 km/h (2 Bft) 86,96 %
18.09.2019 01:14 11,2 C 10,0 C 81 % 1020,6 hPa 0,0 l/m 4,8 km/h (1 Bft) W-SW 247 0,000 mm 0,0 UV-I 0 W/m 8,1 C 11,2 C 11,3 km/h (2 Bft) 95,65 %
18.09.2019 01:13 11,2 C 10,0 C 81 % 1020,6 hPa 0,0 l/m 4,8 km/h (1 Bft) W-NW 292 0,000 mm 0,0 UV-I 0 W/m 8,1 C 11,2 C 6,4 km/h (2 Bft) 100,00 %
18.09.2019 01:12 11,2 C 10,0 C 81 % 1020,5 hPa 0,0 l/m 4,8 km/h (1 Bft) W-NW 292 0,000 mm 0,0 UV-I 0 W/m 8,1 C 11,2 C 9,7 km/h (2 Bft) 100,00 %
18.09.2019 01:11 11,3 C 10,0 C 81 % 1020,5 hPa 0,0 l/m 3,2 km/h (1 Bft) W 270 0,000 mm 0,0 UV-I 0 W/m 8,2 C 11,3 C 8,0 km/h (2 Bft) 95,65 %
18.09.2019 01:10 11,3 C 10,6 C 80 % 1020,6 hPa 0,0 l/m 6,4 km/h (2 Bft) W-NW 292 0,000 mm 0,0 UV-I 0 W/m 8,0 C 11,3 C 9,7 km/h (2 Bft) 86,96 %
18.09.2019 01:09 11,4 C 10,6 C 80 % 1020,6 hPa 0,0 l/m 6,4 km/h (2 Bft) W-SW 247 0,000 mm 0,0 UV-I 0 W/m 8,1 C 11,4 C 9,7 km/h (2 Bft) 100,00 %
18.09.2019 01:08 11,4 C 10,6 C 81 % 1020,6 hPa 0,0 l/m 6,4 km/h (2 Bft) W 270 0,000 mm 0,0 UV-I 0 W/m 8,3 C 11,4 C 9,7 km/h (2 Bft) 86,96 %
18.09.2019 01:07 11,4 C 10,6 C 80 % 1020,6 hPa 0,0 l/m 3,2 km/h (1 Bft) W 270 0,000 mm 0,0 UV-I 0 W/m 8,1 C 11,4 C 9,7 km/h (2 Bft) 82,61 %
18.09.2019 01:06 11,4 C 10,6 C 81 % 1020,6 hPa 0,0 l/m 4,8 km/h (1 Bft) W 270 0,000 mm 0,0 UV-I 0 W/m 8,3 C 11,4 C 6,4 km/h (2 Bft) 91,30 %
18.09.2019 01:05 11,4 C 10,6 C 81 % 1020,6 hPa 0,0 l/m 4,8 km/h (1 Bft) W-SW 247 0,000 mm 0,0 UV-I 0 W/m 8,3 C 11,4 C 6,4 km/h (2 Bft) 95,65 %
18.09.2019 01:04 11,5 C 10,6 C 80 % 1020,6 hPa 0,0 l/m 4,8 km/h (1 Bft) W-SW 247 0,000 mm 0,0 UV-I 0 W/m 8,2 C 11,5 C 9,7 km/h (2 Bft) 91,30 %
18.09.2019 01:03 11,5 C 10,6 C 81 % 1020,5 hPa 0,0 l/m 6,4 km/h (2 Bft) W 270 0,000 mm 0,0 UV-I 0 W/m 8,4 C 11,5 C 12,9 km/h (3 Bft) 95,65 %
18.09.2019 01:02 11,5 C 10,0 C 80 % 1020,5 hPa 0,0 l/m 8,0 km/h (2 Bft) W-SW 247 0,000 mm 0,0 UV-I 0 W/m 8,2 C 10,4 C 11,3 km/h (2 Bft) 95,65 %
18.09.2019 01:01 11,6 C 10,6 C 80 % 1020,5 hPa 0,0 l/m 9,7 km/h (2 Bft) W 270 0,000 mm 0,0 UV-I 0 W/m 8,3 C 9,5 C 12,9 km/h (3 Bft) 95,65 %
18.09.2019 01:00 11,6 C 10,6 C 80 % 1020,5 hPa 0,0 l/m 6,4 km/h (2 Bft) W-SW 247 0,025 mm 0,0 UV-I 0 W/m 8,3 C 11,6 C 9,7 km/h (2 Bft) 78,26 %
18.09.2019 00:59 11,7 C 10,6 C 80 % 1020,5 hPa 0,0 l/m 8,0 km/h (2 Bft) W-SW 247 0,000 mm 0,0 UV-I 0 W/m 8,4 C 10,6 C 11,3 km/h (2 Bft) 91,30 %
18.09.2019 00:58 11,7 C 10,0 C 80 % 1020,5 hPa 0,0 l/m 6,4 km/h (2 Bft) W 270 0,000 mm 0,0 UV-I 0 W/m 8,4 C 11,7 C 11,3 km/h (2 Bft) 86,96 %
18.09.2019 00:57 11,7 C 10,6 C 80 % 1020,5 hPa 0,0 l/m 4,8 km/h (1 Bft) W 270 0,000 mm 0,0 UV-I 0 W/m 8,4 C 11,7 C 9,7 km/h (2 Bft) 91,30 %
18.09.2019 00:56 11,7 C 10,6 C 80 % 1020,5 hPa 0,0 l/m 3,2 km/h (1 Bft) W-NW 292 0,000 mm 0,0 UV-I 0 W/m 8,4 C 11,7 C 8,0 km/h (2 Bft) 91,30 %
18.09.2019 00:55 11,7 C 10,6 C 80 % 1020,5 hPa 0,0 l/m 0,0 km/h (0 Bft) N 0 0,000 mm 0,0 UV-I 0 W/m 8,4 C 11,7 C 0,0 km/h (0 Bft) 78,26 %
18.09.2019 00:54 11,7 C 10,6 C 80 % 1020,5 hPa 0,0 l/m 3,2 km/h (1 Bft) NW 315 0,000 mm 0,0 UV-I 0 W/m 8,4 C 11,7 C 8,0 km/h (2 Bft) 69,57 %
18.09.2019 00:53 11,8 C 10,6 C 80 % 1020,5 hPa 0,0 l/m 4,8 km/h (1 Bft) W-NW 292 0,000 mm 0,0 UV-I 0 W/m 8,5 C 11,8 C 9,7 km/h (2 Bft) 78,26 %
18.09.2019 00:52 11,8 C 10,6 C 80 % 1020,5 hPa 0,0 l/m 0,0 km/h (0 Bft) W 270 0,000 mm 0,0 UV-I 0 W/m 8,5 C 11,8 C 3,2 km/h (1 Bft) 56,52 %
18.09.2019 00:51 11,8 C 10,6 C 80 % 1020,5 hPa 0,0 l/m 1,6 km/h (1 Bft) W 270 0,000 mm 0,0 UV-I 0 W/m 8,5 C 11,8 C 3,2 km/h (1 Bft) 86,96 %
18.09.2019 00:50 11,8 C 10,6 C 80 % 1020,5 hPa 0,0 l/m 1,6 km/h (1 Bft) W-NW 292 0,000 mm 0,0 UV-I 0 W/m 8,5 C 11,8 C 4,8 km/h (1 Bft) 91,30 %
18.09.2019 00:49 11,9 C 10,6 C 80 % 1020,5 hPa 0,0 l/m 3,2 km/h (1 Bft) NW 315 0,000 mm 0,0 UV-I 0 W/m 8,6 C 11,9 C 6,4 km/h (2 Bft) 86,96 %
18.09.2019 00:48 11,9 C 10,6 C 80 % 1020,5 hPa 0,0 l/m 1,6 km/h (1 Bft) W-NW 292 0,000 mm 0,0 UV-I 0 W/m 8,6 C 11,9 C 3,2 km/h (1 Bft) 91,30 %
18.09.2019 00:47 11,9 C 10,6 C 80 % 1020,4 hPa 0,0 l/m 1,6 km/h (1 Bft) W 270 0,000 mm 0,0 UV-I 0 W/m 8,6 C 11,9 C 3,2 km/h (1 Bft) 100,00 %
18.09.2019 00:46 11,9 C 10,6 C 80 % 1020,5 hPa 0,0 l/m 1,6 km/h (1 Bft) NW 315 0,000 mm 0,0 UV-I 0 W/m 8,6 C 11,9 C 4,8 km/h (1 Bft) 69,57 %
18.09.2019 00:45 12,0 C 10,6 C 80 % 1020,5 hPa 0,0 l/m 1,6 km/h (1 Bft) W 270 0,000 mm 0,0 UV-I 0 W/m 8,7 C 12,0 C 3,2 km/h (1 Bft) 69,57 %
18.09.2019 00:44 12,0 C 10,6 C 80 % 1020,5 hPa 0,0 l/m 1,6 km/h (1 Bft) NW 315 0,000 mm 0,0 UV-I 0 W/m 8,7 C 12,0 C 4,8 km/h (1 Bft) 73,91 %
18.09.2019 00:43 12,0 C 10,6 C 80 % 1020,5 hPa 0,0 l/m 3,2 km/h (1 Bft) NW 315 0,000 mm 0,0 UV-I 0 W/m 8,7 C 12,0 C 6,4 km/h (2 Bft) 91,30 %
18.09.2019 00:42 12,0 C 10,6 C 80 % 1020,5 hPa 0,0 l/m 1,6 km/h (1 Bft) W-NW 292 0,000 mm 0,0 UV-I 0 W/m 8,7 C 12,0 C 6,4 km/h (2 Bft) 69,57 %
18.09.2019 00:41 12,0 C 10,6 C 80 % 1020,5 hPa 0,0 l/m 3,2 km/h (1 Bft) W-NW 292 0,000 mm 0,0 UV-I 0 W/m 8,7 C 12,0 C 6,4 km/h (2 Bft) 95,65 %
18.09.2019 00:40 12,1 C 10,6 C 80 % 1020,4 hPa 0,0 l/m 1,6 km/h (1 Bft) W 270 0,000 mm 0,0 UV-I 0 W/m 8,8 C 12,1 C 3,2 km/h (1 Bft) 69,57 %
18.09.2019 00:39 12,1 C 10,6 C 80 % 1020,5 hPa 0,0 l/m 1,6 km/h (1 Bft) W 270 0,000 mm 0,0 UV-I 0 W/m 8,8 C 12,1 C 6,4 km/h (2 Bft) 73,91 %
18.09.2019 00:38 12,1 C 10,6 C 80 % 1020,4 hPa 0,0 l/m 1,6 km/h (1 Bft) W 270 0,000 mm 0,0 UV-I 0 W/m 8,8 C 12,1 C 4,8 km/h (1 Bft) 82,61 %
18.09.2019 00:37 12,1 C 10,6 C 80 % 1020,5 hPa 0,0 l/m 0,0 km/h (0 Bft) NW 315 0,000 mm 0,0 UV-I 0 W/m 8,8 C 12,1 C 3,2 km/h (1 Bft) 95,65 %
18.09.2019 00:36 12,1 C 10,6 C 81 % 1020,5 hPa 0,0 l/m 3,2 km/h (1 Bft) NW 315 0,000 mm 0,0 UV-I 0 W/m 8,9 C 12,1 C 6,4 km/h (2 Bft) 78,26 %
18.09.2019 00:35 12,1 C 10,6 C 81 % 1020,5 hPa 0,0 l/m 1,6 km/h (1 Bft) N-NW 337 0,000 mm 0,0 UV-I 0 W/m 8,9 C 12,1 C 3,2 km/h (1 Bft) 82,61 %
18.09.2019 00:34 12,1 C 10,6 C 81 % 1020,4 hPa 0,0 l/m 1,6 km/h (1 Bft) W-NW 292 0,000 mm 0,0 UV-I 0 W/m 8,9 C 12,1 C 4,8 km/h (1 Bft) 82,61 %
18.09.2019 00:33 12,1 C 10,6 C 81 % 1020,4 hPa 0,0 l/m 1,6 km/h (1 Bft) W-NW 292 0,000 mm 0,0 UV-I 0 W/m 8,9 C 12,1 C 4,8 km/h (1 Bft) 73,91 %
18.09.2019 00:32 12,0 C 10,6 C 81 % 1020,4 hPa 0,0 l/m 1,6 km/h (1 Bft) NW 315 0,000 mm 0,0 UV-I 0 W/m 8,8 C 12,0 C 3,2 km/h (1 Bft) 65,22 %
18.09.2019 00:31 12,0 C 10,6 C 81 % 1020,5 hPa 0,0 l/m 1,6 km/h (1 Bft) W 270 0,000 mm 0,0 UV-I 0 W/m 8,8 C 12,0 C 3,2 km/h (1 Bft) 86,96 %
18.09.2019 00:30 12,1 C 10,6 C 81 % 1020,4 hPa 0,0 l/m 1,6 km/h (1 Bft) W 270 0,000 mm 0,0 UV-I 0 W/m 8,9 C 12,1 C 4,8 km/h (1 Bft) 82,61 %
18.09.2019 00:29 12,1 C 10,6 C 81 % 1020,4 hPa 0,0 l/m 3,2 km/h (1 Bft) W-NW 292 0,000 mm 0,0 UV-I 0 W/m 8,9 C 12,1 C 6,4 km/h (2 Bft) 82,61 %
18.09.2019 00:28 12,1 C 10,6 C 81 % 1020,4 hPa 0,0 l/m 0,0 km/h (0 Bft) W-NW 292 0,000 mm 0,0 UV-I 0 W/m 8,9 C 12,1 C 1,6 km/h (1 Bft) 82,61 %
18.09.2019 00:27 12,1 C 10,6 C 82 % 1020,3 hPa 0,0 l/m 1,6 km/h (1 Bft) W-NW 292 0,000 mm 0,0 UV-I 0 W/m 9,1 C 12,1 C 3,2 km/h (1 Bft) 95,65 %
18.09.2019 00:26 12,1 C 10,6 C 81 % 1020,4 hPa 0,0 l/m 0,0 km/h (0 Bft) W-NW 292 0,000 mm 0,0 UV-I 0 W/m 8,9 C 12,1 C 3,2 km/h (1 Bft) 91,30 %
18.09.2019 00:25 12,2 C 10,6 C 81 % 1020,4 hPa 0,0 l/m 1,6 km/h (1 Bft) W-NW 292 0,000 mm 0,0 UV-I 0 W/m 9,0 C 12,2 C 3,2 km/h (1 Bft) 91,30 %
18.09.2019 00:24 12,2 C 10,6 C 81 % 1020,4 hPa 0,0 l/m 1,6 km/h (1 Bft) W-SW 247 0,000 mm 0,0 UV-I 0 W/m 9,0 C 12,2 C 4,8 km/h (1 Bft) 73,91 %
18.09.2019 00:23 12,2 C 10,6 C 81 % 1020,3 hPa 0,0 l/m 1,6 km/h (1 Bft) W-SW 247 0,000 mm 0,0 UV-I 0 W/m 9,0 C 12,2 C 4,8 km/h (1 Bft) 82,61 %
18.09.2019 00:22 12,2 C 10,6 C 82 % 1020,4 hPa 0,0 l/m 3,2 km/h (1 Bft) NW 315 0,000 mm 0,0 UV-I 0 W/m 9,2 C 12,2 C 8,0 km/h (2 Bft) 78,26 %
18.09.2019 00:21 12,1 C 10,6 C 82 % 1020,3 hPa 0,0 l/m 3,2 km/h (1 Bft) W 270 0,000 mm 0,0 UV-I 0 W/m 9,1 C 12,1 C 11,3 km/h (2 Bft) 69,57 %
18.09.2019 00:20 12,2 C 10,6 C 82 % 1020,4 hPa 0,0 l/m 1,6 km/h (1 Bft) W-NW 292 0,000 mm 0,0 UV-I 0 W/m 9,2 C 12,2 C 4,8 km/h (1 Bft) 82,61 %
18.09.2019 00:19 12,1 C 10,6 C 82 % 1020,4 hPa 0,0 l/m 1,6 km/h (1 Bft) W-NW 292 0,000 mm 0,0 UV-I 0 W/m 9,1 C 12,1 C 6,4 km/h (2 Bft) 73,91 %
18.09.2019 00:18 12,1 C 10,6 C 82 % 1020,3 hPa 0,0 l/m 1,6 km/h (1 Bft) W-NW 292 0,000 mm 0,0 UV-I 0 W/m 9,1 C 12,1 C 3,2 km/h (1 Bft) 91,30 %
18.09.2019 00:17 12,1 C 10,6 C 82 % 1020,3 hPa 0,0 l/m 1,6 km/h (1 Bft) W-NW 292 0,000 mm 0,0 UV-I 0 W/m 9,1 C 12,1 C 4,8 km/h (1 Bft) 82,61 %
18.09.2019 00:16 12,2 C 10,6 C 81 % 1020,3 hPa 0,0 l/m 3,2 km/h (1 Bft) NW 315 0,000 mm 0,0 UV-I 0 W/m 9,0 C 12,2 C 6,4 km/h (2 Bft) 73,91 %
18.09.2019 00:15 12,2 C 10,6 C 82 % 1020,2 hPa 0,0 l/m 1,6 km/h (1 Bft) NW 315 0,000 mm 0,0 UV-I 0 W/m 9,2 C 12,2 C 3,2 km/h (1 Bft) 91,30 %
18.09.2019 00:14 12,2 C 10,6 C 82 % 1020,3 hPa 0,0 l/m 3,2 km/h (1 Bft) NW 315 0,000 mm 0,0 UV-I 0 W/m 9,2 C 12,2 C 6,4 km/h (2 Bft) 82,61 %
18.09.2019 00:13 12,2 C 10,6 C 82 % 1020,3 hPa 0,0 l/m 1,6 km/h (1 Bft) NW 315 0,000 mm 0,0 UV-I 0 W/m 9,2 C 12,2 C 4,8 km/h (1 Bft) 65,22 %
18.09.2019 00:12 12,2 C 10,6 C 82 % 1020,3 hPa 0,0 l/m 3,2 km/h (1 Bft) NW 315 0,000 mm 0,0 UV-I 0 W/m 9,2 C 12,2 C 9,7 km/h (2 Bft) 86,96 %
18.09.2019 00:11 12,1 C 10,6 C 82 % 1020,3 hPa 0,0 l/m 1,6 km/h (1 Bft) W 270 0,000 mm 0,0 UV-I 0 W/m 9,1 C 12,1 C 4,8 km/h (1 Bft) 69,57 %
18.09.2019 00:10 12,1 C 10,6 C 82 % 1020,3 hPa 0,0 l/m 1,6 km/h (1 Bft) NW 315 0,000 mm 0,0 UV-I 0 W/m 9,1 C 12,1 C 3,2 km/h (1 Bft) 69,57 %
18.09.2019 00:09 12,1 C 10,6 C 82 % 1020,3 hPa 0,0 l/m 1,6 km/h (1 Bft) NW 315 0,000 mm 0,0 UV-I 0 W/m 9,1 C 12,1 C 3,2 km/h (1 Bft) 60,87 %
18.09.2019 00:08 12,0 C 10,6 C 82 % 1020,3 hPa 0,0 l/m 1,6 km/h (1 Bft) W 270 0,000 mm 0,0 UV-I 0 W/m 9,0 C 12,0 C 3,2 km/h (1 Bft) 69,57 %
18.09.2019 00:07 12,0 C 10,6 C 82 % 1020,3 hPa 0,0 l/m 3,2 km/h (1 Bft) W-NW 292 0,000 mm 0,0 UV-I 0 W/m 9,0 C 12,0 C 4,8 km/h (1 Bft) 78,26 %
18.09.2019 00:06 12,1 C 10,6 C 82 % 1020,3 hPa 0,0 l/m 3,2 km/h (1 Bft) W-SW 247 0,000 mm 0,0 UV-I 0 W/m 9,1 C 12,1 C 8,0 km/h (2 Bft) 91,30 %
18.09.2019 00:05 12,0 C 10,6 C 82 % 1020,3 hPa 0,0 l/m 4,8 km/h (1 Bft) NW 315 0,000 mm 0,0 UV-I 0 W/m 9,0 C 12,0 C 6,4 km/h (2 Bft) 69,57 %
18.09.2019 00:04 12,0 C 10,6 C 82 % 1020,3 hPa 0,0 l/m 1,6 km/h (1 Bft) W 270 0,000 mm 0,0 UV-I 0 W/m 9,0 C 12,0 C 3,2 km/h (1 Bft) 86,96 %
18.09.2019 00:03 11,9 C 10,6 C 82 % 1020,3 hPa 0,0 l/m 3,2 km/h (1 Bft) W 270 0,000 mm 0,0 UV-I 0 W/m 8,9 C 11,9 C 4,8 km/h (1 Bft) 78,26 %
18.09.2019 00:02 11,9 C 10,6 C 82 % 1020,1 hPa 0,2 l/m 4,8 km/h (1 Bft) W-SW 247 0,000 mm 0,0 UV-I 0 W/m 8,9 C 11,9 C 6,4 km/h (2 Bft) 78,26 %
18.09.2019 00:01 12,1 C 10,6 C 82 % 1020,2 hPa 0,0 l/m 4,8 km/h (1 Bft) W-SW 247 0,000 mm 0,0 UV-I 0 W/m 9,1 C 12,1 C 8,0 km/h (2 Bft) 86,96 %
18.09.2019 00:00 12,1 C 10,6 C 82 % 1020,1 hPa 0,0 l/m 3,2 km/h (1 Bft) W-NW 292 0,025 mm 0,0 UV-I 0 W/m 9,1 C 12,1 C 9,7 km/h (2 Bft) 100,00 %
_ Min-Zeit 06:27 06:15 15:24 00:00 - 00:26 - - - - - 19:36 06:27 00:55 16:10
Minimum _ 7,2 C 7,2 C 42 % 1020,1 hPa - 0,0 km/h (0 Bft) - - - - - 1,1 C 7,2 C 0,0 km/h (0 Bft) 39,13 %
_ Max-Zeit 13:05 11:52 06:02 11:53 00:02 01:01 - - 14:00 12:46 12:48 00:12 13:05 01:29 00:00
Maximum _ 15,6 C 20,0 C 84 % 1025,3 hPa 0,2 l/m 9,7 km/h
W (2 Bft)
- - 0,406 mm 3,9 UV-I 788 W/m 9,2 C 15,6 C 14,5 km/h
W (3 Bft)
100,00 %
Durchschnitt _ 11,4 C 11,9 C 69 % 1023,2 hPa #0,2 l/m 2,6 km/h (1 Bft) W - #2,689 mm 2,5 UV-I 391 W/m 5,7 C 11,3 C 5,0 km/h (1 Bft) 89,02 %